[[{"header":{"parameterUnit":"m.s-1","parameterCategory":1,"la1":30.6,"la2":29.2853,"lo1":-89.7004,"lo2":-87.6739,"dy":0.0162,"dx":0.0183,"nx":112,"ny":82,"refTime":"2023-03-22T18:00:00:Z","depth":0,"parameterNumber":2,"parameterNumberName":"U-component_of_WINDS"},"data":[0.0,0.0,0.0,0.0,0.0,0.0,0.0,0.0,0.0,0.0,0.0,0.0,0.0,0.0,0.0,0.0,0.0,0.0,0.0,0.0,0.0,0.0,0.0,0.0,0.0,0.0,0.0,0.0,0.0,0.0,0.0,0.0,0.0,0.0,0.0,0.0,0.0,0.0,0.0,0.0,0.0,0.0,0.0,0.0,0.0,0.0,0.0,0.0,0.0,0.0,0.0,0.0,0.0,0.0,0.0,0.0,0.0,0.0,0.0,0.0,0.0,0.0,0.0,0.0,0.0,0.0,0.0,0.0,0.0,0.0,0.0,0.0,0.0,0.0,0.0,0.0,0.0,0.0,0.0,0.0,0.0,0.0,0.0,0.0,0.0,0.0,0.0,0.0,0.0,0.0,0.0,-4.0377,-4.5293,-4.7645,-4.603,-4.6324,-4.4967,-4.1207,0.0,0.0,0.0,0.0,0.0,0.0,0.0,0.0,0.0,0.0,0.0,0.0,0.0,0.0,0.0,0.0,0.0,0.0,0.0,0.0,0.0,0.0,0.0,0.0,0.0,0.0,0.0,0.0,0.0,0.0,0.0,0.0,0.0,0.0,0.0,0.0,0.0,0.0,0.0,0.0,0.0,0.0,0.0,0.0,0.0,0.0,0.0,0.0,0.0,0.0,0.0,0.0,0.0,0.0,0.0,0.0,0.0,0.0,0.0,0.0,0.0,0.0,0.0,0.0,0.0,0.0,0.0,0.0,0.0,0.0,0.0,0.0,0.0,0.0,0.0,0.0,0.0,0.0,0.0,0.0,0.0,0.0,0.0,0.0,0.0,0.0,0.0,0.0,0.0,0.0,0.0,0.0,0.0,0.0,0.0,0.0,0.0,0.0,0.0,0.0,0.0,0.0,0.0,0.0,-3.9021,-4.3529,-4.6599,-4.7645,-4.603,-4.4745,-4.3428,-4.1919,0.0,0.0,0.0,0.0,0.0,0.0,0.0,0.0,0.0,0.0,0.0,0.0,0.0,0.0,0.0,0.0,0.0,0.0,0.0,0.0,0.0,0.0,0.0,0.0,0.0,0.0,0.0,0.0,0.0,0.0,0.0,0.0,0.0,0.0,0.0,0.0,0.0,0.0,0.0,0.0,0.0,0.0,0.0,0.0,0.0,0.0,0.0,0.0,0.0,0.0,0.0,0.0,0.0,0.0,0.0,0.0,0.0,0.0,0.0,0.0,0.0,0.0,0.0,0.0,0.0,0.0,0.0,0.0,0.0,0.0,0.0,0.0,0.0,0.0,0.0,0.0,0.0,0.0,0.0,0.0,0.0,0.0,0.0,0.0,0.0,0.0,0.0,0.0,0.0,0.0,0.0,0.0,0.0,0.0,0.0,0.0,0.0,0.0,0.0,0.0,0.0,0.0,0.0,-3.8545,-4.104,-4.4929,-4.6709,-4.7149,-4.5993,-4.4011,-4.2622,-4.2029,-4.0788,0.0,0.0,0.0,0.0,0.0,0.0,0.0,0.0,0.0,0.0,0.0,0.0,0.0,0.0,0.0,0.0,0.0,0.0,0.0,0.0,0.0,0.0,0.0,0.0,0.0,0.0,0.0,0.0,0.0,0.0,0.0,0.0,0.0,0.0,0.0,0.0,0.0,0.0,0.0,0.0,0.0,0.0,0.0,0.0,0.0,0.0,0.0,0.0,0.0,0.0,0.0,0.0,0.0,0.0,0.0,0.0,0.0,0.0,0.0,0.0,0.0,0.0,0.0,0.0,0.0,0.0,0.0,0.0,0.0,0.0,0.0,0.0,0.0,0.0,0.0,0.0,0.0,0.0,0.0,0.0,0.0,0.0,0.0,0.0,0.0,0.0,0.0,0.0,0.0,0.0,0.0,0.0,0.0,0.0,0.0,0.0,0.0,0.0,0.0,0.0,0.0,0.0,-4.0072,-4.2199,-4.5296,-4.6361,-4.6489,-4.57,-4.3387,-4.2092,-4.2284,-3.9823,0.0,0.0,0.0,0.0,0.0,0.0,0.0,0.0,0.0,0.0,0.0,0.0,0.0,0.0,0.0,0.0,0.0,0.0,0.0,0.0,0.0,0.0,0.0,0.0,0.0,0.0,0.0,0.0,0.0,0.0,0.0,0.0,0.0,0.0,0.0,0.0,0.0,0.0,0.0,0.0,0.0,0.0,0.0,0.0,0.0,0.0,0.0,0.0,0.0,0.0,0.0,0.0,0.0,0.0,0.0,0.0,0.0,0.0,0.0,0.0,0.0,0.0,0.0,0.0,0.0,0.0,0.0,0.0,0.0,0.0,0.0,0.0,0.0,0.0,0.0,0.0,0.0,0.0,0.0,0.0,0.0,0.0,0.0,0.0,0.0,0.0,0.0,0.0,0.0,0.0,0.0,0.0,0.0,0.0,0.0,0.0,0.0,0.0,0.0,0.0,0.0,0.0,-4.0072,-4.2049,-4.4525,-4.5516,-4.5663,-4.4856,-4.2563,-4.1762,-4.3032,-4.0134,0.0,0.0,0.0,0.0,0.0,0.0,0.0,0.0,0.0,0.0,0.0,0.0,0.0,0.0,0.0,0.0,0.0,0.0,0.0,0.0,0.0,0.0,0.0,0.0,0.0,0.0,0.0,0.0,0.0,0.0,0.0,0.0,0.0,0.0,0.0,0.0,0.0,0.0,0.0,0.0,0.0,0.0,0.0,0.0,0.0,0.0,0.0,0.0,0.0,0.0,0.0,0.0,0.0,0.0,0.0,0.0,0.0,0.0,0.0,0.0,0.0,0.0,0.0,0.0,0.0,0.0,0.0,0.0,0.0,0.0,0.0,0.0,0.0,0.0,0.0,0.0,0.0,0.0,0.0,0.0,0.0,0.0,0.0,0.0,0.0,0.0,0.0,0.0,0.0,0.0,0.0,0.0,0.0,0.0,0.0,0.0,0.0,0.0,0.0,0.0,0.0,0.0,-4.0806,-4.258,0.0,-4.4966,-4.5039,-4.4728,-4.2489,-4.1725,-4.3105,0.0,0.0,0.0,0.0,0.0,0.0,0.0,0.0,0.0,0.0,0.0,0.0,0.0,0.0,0.0,0.0,0.0,0.0,0.0,0.0,0.0,0.0,0.0,0.0,0.0,0.0,0.0,0.0,0.0,0.0,0.0,0.0,0.0,0.0,0.0,0.0,0.0,0.0,0.0,0.0,0.0,0.0,0.0,0.0,0.0,0.0,0.0,0.0,0.0,0.0,0.0,0.0,0.0,0.0,0.0,0.0,0.0,0.0,0.0,0.0,0.0,0.0,0.0,0.0,0.0,0.0,0.0,0.0,0.0,0.0,0.0,0.0,0.0,0.0,0.0,0.0,0.0,0.0,0.0,0.0,0.0,0.0,0.0,0.0,0.0,0.0,0.0,0.0,0.0,0.0,0.0,0.0,0.0,0.0,0.0,0.0,0.0,0.0,0.0,0.0,0.0,0.0,-3.9467,-4.0789,-4.2249,0.0,-4.4305,-4.4232,-4.3975,-4.1719,-4.1049,-4.2668,0.0,0.0,0.0,0.0,0.0,0.0,0.0,0.0,0.0,0.0,0.0,0.0,0.0,0.0,0.0,0.0,0.0,0.0,0.0,0.0,0.0,0.0,0.0,0.0,0.0,0.0,0.0,0.0,0.0,0.0,0.0,0.0,0.0,0.0,0.0,0.0,0.0,0.0,0.0,0.0,0.0,0.0,0.0,0.0,0.0,0.0,0.0,0.0,0.0,0.0,0.0,0.0,0.0,0.0,0.0,0.0,0.0,0.0,0.0,0.0,0.0,0.0,0.0,0.0,0.0,0.0,0.0,0.0,0.0,0.0,0.0,0.0,0.0,0.0,0.0,0.0,0.0,0.0,0.0,0.0,0.0,0.0,0.0,0.0,0.0,0.0,0.0,0.0,0.0,0.0,0.0,0.0,0.0,0.0,0.0,0.0,0.0,0.0,0.0,0.0,0.0,0.0,-3.9309,-3.9768,-4.0834,-4.3258,-4.3515,-4.3167,-4.2359,-4.0084,-3.9589,0.0,0.0,0.0,0.0,0.0,0.0,0.0,0.0,0.0,0.0,0.0,0.0,0.0,0.0,0.0,0.0,0.0,0.0,0.0,0.0,0.0,0.0,0.0,0.0,0.0,0.0,0.0,0.0,0.0,0.0,0.0,0.0,0.0,0.0,0.0,0.0,0.0,0.0,0.0,0.0,0.0,0.0,0.0,0.0,0.0,0.0,0.0,0.0,0.0,0.0,0.0,0.0,0.0,0.0,0.0,0.0,0.0,0.0,0.0,0.0,0.0,0.0,0.0,0.0,0.0,0.0,0.0,0.0,0.0,0.0,0.0,0.0,0.0,0.0,0.0,0.0,0.0,0.0,0.0,0.0,0.0,0.0,0.0,0.0,0.0,0.0,0.0,0.0,0.0,0.0,0.0,0.0,0.0,0.0,0.0,0.0,0.0,0.0,0.0,0.0,0.0,0.0,0.0,-4.0059,-4.0134,-4.0834,-4.3258,-4.2983,-4.2387,-4.1796,-3.9869,-3.9339,-4.0804,0.0,0.0,0.0,0.0,0.0,0.0,0.0,0.0,0.0,0.0,0.0,0.0,0.0,0.0,0.0,0.0,0.0,0.0,0.0,0.0,0.0,0.0,0.0,0.0,0.0,0.0,0.0,0.0,0.0,0.0,0.0,0.0,0.0,0.0,0.0,0.0,0.0,0.0,0.0,0.0,0.0,0.0,0.0,0.0,0.0,0.0,0.0,0.0,0.0,0.0,0.0,0.0,0.0,0.0,0.0,0.0,0.0,0.0,0.0,0.0,0.0,0.0,0.0,0.0,0.0,0.0,0.0,0.0,0.0,0.0,0.0,0.0,0.0,0.0,0.0,0.0,0.0,0.0,0.0,0.0,0.0,0.0,0.0,0.0,0.0,0.0,0.0,0.0,0.0,0.0,0.0,0.0,0.0,0.0,0.0,0.0,0.0,0.0,0.0,0.0,0.0,0.0,-4.035,-3.9987,-4.0341,-4.2763,-4.258,-4.1823,-4.0655,-3.8925,-3.827,-3.9,0.0,0.0,0.0,0.0,0.0,0.0,0.0,0.0,0.0,0.0,0.0,0.0,0.0,0.0,0.0,0.0,0.0,0.0,0.0,0.0,0.0,0.0,0.0,0.0,0.0,0.0,0.0,0.0,0.0,0.0,0.0,0.0,0.0,0.0,0.0,0.0,0.0,0.0,0.0,0.0,0.0,0.0,0.0,0.0,0.0,0.0,0.0,0.0,0.0,0.0,0.0,0.0,0.0,0.0,0.0,0.0,0.0,0.0,0.0,0.0,0.0,0.0,0.0,0.0,0.0,0.0,0.0,0.0,0.0,0.0,0.0,0.0,0.0,0.0,0.0,0.0,0.0,0.0,0.0,0.0,0.0,0.0,0.0,0.0,0.0,0.0,0.0,0.0,0.0,0.0,0.0,0.0,0.0,0.0,0.0,0.0,0.0,0.0,0.0,0.0,0.0,0.0,-4.0277,-3.9585,-3.9627,-4.2072,-4.2182,-4.128,-3.9247,-3.7554,-3.6647,-3.6755,0.0,0.0,0.0,0.0,0.0,0.0,0.0,0.0,0.0,0.0,0.0,0.0,0.0,0.0,0.0,0.0,0.0,0.0,0.0,0.0,0.0,0.0,0.0,0.0,0.0,0.0,0.0,0.0,0.0,0.0,0.0,0.0,0.0,0.0,0.0,0.0,0.0,0.0,0.0,0.0,0.0,0.0,0.0,0.0,0.0,0.0,0.0,0.0,0.0,0.0,0.0,0.0,0.0,0.0,0.0,0.0,0.0,0.0,0.0,0.0,-3.9093,0.0,0.0,0.0,0.0,0.0,0.0,0.0,0.0,0.0,0.0,0.0,0.0,0.0,0.0,0.0,0.0,0.0,0.0,0.0,0.0,0.0,0.0,0.0,0.0,0.0,0.0,0.0,0.0,0.0,0.0,0.0,0.0,0.0,0.0,0.0,0.0,0.0,0.0,0.0,0.0,0.0,-4.0277,-3.9585,-3.9719,-4.234,-4.1488,-4.0181,-3.888,-3.6586,-3.5411,-3.5839,-3.549,0.0,0.0,0.0,0.0,0.0,0.0,0.0,0.0,0.0,0.0,0.0,0.0,0.0,0.0,0.0,0.0,0.0,0.0,0.0,0.0,0.0,0.0,0.0,0.0,0.0,0.0,0.0,0.0,0.0,0.0,0.0,0.0,0.0,0.0,0.0,0.0,0.0,0.0,0.0,0.0,0.0,0.0,0.0,0.0,0.0,0.0,0.0,0.0,0.0,0.0,0.0,0.0,0.0,0.0,0.0,0.0,0.0,0.0,0.0,0.0,-3.9634,0.0,0.0,0.0,0.0,0.0,0.0,0.0,0.0,0.0,0.0,0.0,0.0,0.0,0.0,0.0,0.0,0.0,0.0,0.0,0.0,0.0,0.0,0.0,0.0,0.0,0.0,0.0,0.0,0.0,0.0,0.0,0.0,0.0,0.0,0.0,0.0,0.0,0.0,0.0,0.0,-4.0812,-3.9808,-3.9431,-4.1342,-4.0799,-3.9544,-3.7756,-3.6018,-3.4881,-3.4549,-3.4603,0.0,0.0,0.0,0.0,0.0,0.0,0.0,0.0,0.0,0.0,0.0,0.0,0.0,0.0,0.0,0.0,0.0,0.0,0.0,0.0,0.0,0.0,0.0,0.0,0.0,0.0,0.0,0.0,0.0,0.0,0.0,0.0,0.0,0.0,0.0,0.0,0.0,0.0,0.0,0.0,0.0,0.0,0.0,0.0,0.0,0.0,0.0,0.0,0.0,0.0,0.0,0.0,0.0,-4.557,-4.6411,-4.7524,-4.6739,-4.6412,-4.6322,-4.3395,-4.155,-4.0597,-4.0086,0.0,0.0,0.0,0.0,0.0,0.0,0.0,0.0,0.0,0.0,0.0,0.0,0.0,0.0,0.0,0.0,0.0,0.0,0.0,0.0,0.0,0.0,0.0,0.0,-3.9785,-3.9186,0.0,0.0,0.0,0.0,0.0,0.0,0.0,0.0,0.0,0.0,0.0,0.0,-4.0962,-3.9926,-3.9236,-4.011,-4.02,-3.918,-3.6665,-3.5669,-3.4658,-3.3478,-3.3829,-3.3726,0.0,0.0,0.0,0.0,0.0,0.0,0.0,0.0,0.0,0.0,0.0,0.0,0.0,0.0,0.0,0.0,0.0,0.0,0.0,0.0,0.0,0.0,0.0,0.0,0.0,0.0,0.0,0.0,0.0,0.0,0.0,0.0,-3.8401,-3.7698,0.0,0.0,0.0,0.0,0.0,0.0,0.0,0.0,0.0,0.0,0.0,0.0,0.0,-4.5039,-4.5039,-4.866,-4.9541,-4.7731,-4.9935,-5.0782,-5.0248,-4.9461,-4.9094,-4.904,-4.7827,0.0,-4.387,-4.2426,0.0,0.0,0.0,0.0,0.0,0.0,0.0,0.0,0.0,0.0,0.0,0.0,0.0,0.0,0.0,0.0,0.0,0.0,0.0,0.0,0.0,0.0,-4.1329,-4.0206,-3.9864,-3.9901,0.0,-3.9517,-3.8722,-3.8577,-3.8491,0.0,0.0,0.0,0.0,0.0,0.0,0.0,-3.9175,-3.9537,-3.9784,-3.9861,-3.9776,-3.8913,-3.6922,-3.545,-3.4253,-3.3457,-3.2882,-3.2638,-3.2788,-3.3433,0.0,0.0,0.0,0.0,0.0,0.0,0.0,0.0,0.0,0.0,0.0,0.0,0.0,0.0,0.0,0.0,0.0,0.0,0.0,0.0,0.0,0.0,0.0,0.0,0.0,0.0,0.0,0.0,0.0,-3.9783,-4.058,-3.885,-4.0788,-4.1575,0.0,0.0,0.0,0.0,0.0,0.0,0.0,0.0,0.0,-4.6686,-4.7855,-4.8497,-4.8556,-5.0794,-5.1621,-5.1035,-5.258,-5.3408,-5.3482,-5.3136,-5.2989,-5.2952,-5.2564,-5.1002,-4.8485,-4.4931,-4.2612,-4.1196,0.0,0.0,0.0,0.0,-4.089,-4.1393,-4.364,-4.3648,0.0,-4.3391,0.0,0.0,0.0,0.0,0.0,0.0,0.0,0.0,0.0,0.0,-4.2343,-4.1959,-4.1218,-4.0899,-4.1905,-4.0639,-3.9223,0.0,-3.8789,-3.8706,-3.8763,0.0,0.0,0.0,0.0,-3.7986,-4.0347,-3.9891,-3.9464,-3.9658,-3.9336,-3.8291,-3.6265,-3.5115,-3.4201,-3.3457,-3.2733,-3.229,-3.2214,-3.3194,-3.4508,0.0,0.0,0.0,0.0,0.0,0.0,0.0,0.0,0.0,0.0,0.0,0.0,0.0,0.0,0.0,0.0,0.0,0.0,0.0,0.0,0.0,0.0,0.0,0.0,0.0,0.0,0.0,0.0,-4.1046,-4.2247,-3.954,-4.2686,-4.3889,0.0,0.0,0.0,0.0,0.0,0.0,-4.5605,-4.7414,-4.9025,-5.0334,-5.1177,-5.171,-5.2013,-5.3041,-5.3739,-5.4121,-5.495,-5.5611,-5.6198,-5.5978,-5.5904,-5.5904,-5.5684,-5.4326,-5.1977,-4.7768,-4.493,-4.316,-4.2322,-4.1905,-4.1905,-4.2596,-4.3305,-4.4138,-4.6071,-4.5952,-4.4986,-4.5329,-4.3915,-4.1754,-4.0222,0.0,0.0,0.0,0.0,-4.1078,-4.1149,-4.2338,-4.3617,-4.4044,-4.303,-4.228,-4.3441,-4.1626,-3.9698,0.0,-3.9266,-3.9021,-3.8777,0.0,0.0,0.0,0.0,-3.8295,-4.0981,-4.0348,-3.9565,-3.9455,-3.9011,-3.7917,-3.6073,-3.5047,-3.4201,-3.3457,-3.2733,-3.2139,-3.1806,-3.2932,-3.4088,-3.5285,0.0,0.0,0.0,0.0,0.0,0.0,0.0,0.0,0.0,0.0,0.0,0.0,0.0,0.0,0.0,0.0,0.0,0.0,0.0,0.0,0.0,0.0,0.0,0.0,0.0,0.0,0.0,0.0,0.0,-3.8858,-4.345,0.0,0.0,0.0,0.0,-4.4327,-4.5788,-4.7434,-4.9085,-4.9268,-5.0481,-5.2947,-5.3812,-5.4583,-5.5376,-5.6895,-5.7336,-5.6638,-5.7446,-5.785,-5.785,-5.7079,-5.6748,-5.6712,-5.5941,-5.4656,-5.2983,-5.1185,-4.8979,-4.6555,-4.5769,-4.5345,-4.5193,-4.542,-4.5678,-4.5903,-4.6215,-4.5839,-4.5375,-4.6727,-4.5639,-4.3623,-4.2672,-4.1106,0.0,0.0,-4.1106,-4.1274,-4.2449,-4.3973,-4.5346,-4.6004,-4.5078,-4.4232,-4.4859,-4.2311,-4.0031,0.0,-3.9903,-3.9347,-3.9196,0.0,-3.9009,-3.8863,-3.9405,-3.974,-3.9565,-4.0568,-4.0684,-3.9194,-3.8826,-3.818,-3.6841,-3.5351,-3.4201,-3.3457,-3.2733,-3.2139,-3.1806,-3.2318,-3.3434,-3.5268,-3.6564,0.0,0.0,0.0,0.0,0.0,0.0,0.0,0.0,0.0,0.0,0.0,0.0,0.0,0.0,0.0,0.0,0.0,0.0,0.0,0.0,0.0,0.0,0.0,0.0,0.0,0.0,0.0,0.0,-4.4783,-4.8294,0.0,-4.7995,-4.8201,-4.8424,-4.8424,-5.0021,-5.1234,-5.1804,-5.3806,-5.5089,-5.55,-5.6799,-5.7373,-5.7152,-5.7703,-5.785,-5.7593,-5.785,-5.7997,-5.7997,-5.7703,-5.7299,-5.6785,-5.6492,-5.5464,-5.3922,-5.3371,-5.1369,-4.8559,-4.7696,-4.7328,-4.7326,-4.799,-4.8587,-4.9097,-4.9213,-4.8839,-4.807,-4.6704,-4.5662,-4.476,-4.3503,-4.2634,-4.2064,-4.1997,-4.2226,-4.2644,-4.3109,-4.4341,-4.5267,-4.458,-4.4007,-4.3524,-4.3218,-4.1526,-4.03,-4.12,-4.0095,-3.9144,-3.9587,-3.8916,-3.8561,-3.9151,-3.9494,-3.9909,-4.0604,-4.1118,-4.1185,-4.0648,-3.977,-3.8845,-3.7923,-3.5893,-3.4584,-3.4324,-3.312,-3.2389,-3.2265,-3.2877,-3.3695,-3.4695,-3.6121,-3.7405,0.0,0.0,0.0,0.0,0.0,0.0,0.0,0.0,0.0,0.0,0.0,0.0,0.0,0.0,0.0,0.0,0.0,0.0,0.0,0.0,0.0,0.0,0.0,0.0,0.0,0.0,-4.9285,-4.8928,-5.2343,-5.4012,-5.2294,-5.249,-5.2679,-5.2679,-5.4283,-5.5332,-5.5611,-5.7666,-5.8584,-5.8033,-5.8781,-5.8927,-5.84,-5.8143,-5.7997,-5.7997,-5.7997,-5.7997,-5.7997,-5.7997,-5.7703,-5.7189,-5.6932,-5.6051,-5.4766,-5.4509,-5.2968,-5.0765,-5.0178,-4.9958,-5.0031,-5.0582,-5.1132,-5.16,-5.138,-5.088,-4.9976,-4.7548,-4.6576,-4.6124,-4.4858,-4.447,-4.4353,-4.3829,-4.4019,-4.4431,-4.4431,-4.5057,-4.5474,-4.4311,-4.3638,-4.3045,-4.2533,-4.1343,-4.0648,-4.1617,-4.0562,-3.9647,-4.0069,-3.9456,-3.9122,-3.994,-4.0141,-4.0545,-4.1622,-4.1806,-4.1679,-4.1257,-4.0174,-3.9191,-3.8412,-3.6586,-3.5419,-3.5208,-3.3934,-3.3314,-3.3547,-3.3825,-3.4335,-3.5119,-3.64,-3.7486,-3.8329,0.0,0.0,0.0,0.0,0.0,0.0,0.0,0.0,0.0,0.0,0.0,0.0,0.0,0.0,0.0,0.0,0.0,0.0,0.0,0.0,0.0,0.0,0.0,-4.4857,-4.8862,-5.1627,-5.0848,-5.5096,-5.6799,-5.3573,-5.5493,-5.6932,-5.6932,-5.8377,-5.9588,-6.0382,-6.0419,-6.0419,-6.0382,-5.9588,-5.9184,-5.9148,-5.84,-5.7997,-5.7997,-5.7997,-5.7997,-5.7997,-5.7997,-5.7997,-5.7923,-5.7116,-5.6308,-5.55,-5.4693,-5.3922,-5.3203,-5.3203,-5.3203,-5.3203,-5.3203,-5.3203,-5.3082,-5.2358,-5.1643,-5.084,-4.9373,-4.8443,-4.7742,-4.6845,-4.6603,-4.6587,-4.6434,-4.6389,-4.6389,-4.6389,-4.6315,-4.6046,-4.5427,-4.4108,-4.3009,-4.2951,-4.1866,-4.1127,-4.1682,-4.1296,-4.0906,-4.0742,-4.0739,-4.0842,-4.1157,-4.1353,0.0,-4.2271,-4.2557,-4.2191,-4.0804,-4.0025,-3.9266,-3.8483,-3.7533,-3.6686,-3.6113,-3.5171,-3.4924,-3.558,-3.5044,-3.5314,-3.6585,-3.7394,-3.772,-3.7632,0.0,0.0,0.0,0.0,0.0,0.0,0.0,0.0,0.0,0.0,0.0,0.0,0.0,0.0,0.0,0.0,0.0,0.0,0.0,0.0,0.0,0.0,-4.8719,-4.9651,-5.2553,-5.5126,-5.6621,-5.8537,-5.9612,-5.9258,-5.9331,-5.9428,-5.9428,-6.0346,-6.0786,-6.0419,-6.0933,-6.075,-5.9551,-5.9294,-5.8914,-5.8327,-5.8107,-5.7997,-5.7997,-5.7997,-5.7997,-5.7997,-5.7997,-5.7666,-5.7079,-5.6271,-5.5464,-5.4656,-5.3849,-5.3387,-5.3203,-5.3203,-5.3203,-5.3203,-5.3203,-5.2872,-5.2381,-5.2159,-5.1309,-5.0159,-4.9234,-4.8754,-4.8312,-4.6994,-4.6942,-4.7206,-4.6589,-4.6389,-4.6389,-4.6389,-4.6315,-4.5881,-4.4707,-4.4036,-4.3263,-4.1818,-4.1538,-4.1451,-4.1183,-4.1362,-4.1547,-4.1506,-4.1513,-4.1372,-4.1025,-4.1393,0.0,-4.1362,-4.2103,-4.2505,-4.1955,-4.1552,-4.1234,-4.1017,-3.9155,-3.7976,-3.794,-3.6635,-3.5758,-3.5612,-3.5774,-3.6105,-3.6653,-3.7095,-3.7681,0.0,0.0,0.0,0.0,0.0,0.0,0.0,0.0,0.0,0.0,0.0,0.0,0.0,0.0,0.0,0.0,0.0,0.0,0.0,0.0,0.0,0.0,-4.9838,-5.2773,-5.5082,-5.6373,-5.7886,-5.9979,-6.0933,-6.1594,-6.2071,-6.1704,-6.141,-6.141,-6.1851,-6.1887,-6.1447,-6.1851,-6.152,-6.0272,-5.9905,-5.9318,-5.851,-5.818,-5.7997,-5.7997,-5.7997,-5.7997,-5.7997,-5.7997,-5.774,-5.7262,-5.6455,-5.5647,-5.484,-5.4032,-5.3518,0.0,0.0,0.0,0.0,0.0,-5.2937,-5.2554,-5.2554,-5.1584,-5.0303,-4.9892,-4.9286,-4.8594,-4.7657,-4.7665,-4.7877,-4.7325,-4.7198,-4.7132,-4.6887,-4.6722,-4.6266,-4.4938,-4.4249,-4.3443,-4.1811,-4.1842,-4.1916,-4.1082,-4.1617,0.0,-4.1853,-4.181,-4.1746,-4.1552,-4.1895,-4.2083,-4.1916,-4.256,-4.2849,-4.2411,-4.2213,-4.1987,-4.1657,-4.0258,0.0,0.0,0.0,-3.6999,-3.6539,-3.6916,0.0,0.0,0.0,-3.8645,-3.9109,0.0,0.0,0.0,-4.1007,-4.1024,0.0,0.0,0.0,0.0,0.0,0.0,0.0,0.0,0.0,0.0,0.0,0.0,0.0,0.0,0.0,0.0,-5.3696,-5.6969,-6.0089,-6.0015,-6.0162,-6.1557,-6.2365,-6.278,-6.278,-6.278,-6.278,-6.278,-6.278,-6.278,-6.278,0.0,0.0,0.0,0.0,-5.9795,-5.9074,-5.8364,-5.7997,-5.7997,-5.7997,-5.7997,-5.7997,-5.7997,-5.7997,-5.796,-5.7152,-5.6381,-5.5647,-5.4876,-5.4069,-5.3335,-5.3261,-5.3203,-5.3203,-5.3203,-5.3203,-5.3203,-5.3203,0.0,0.0,-5.0777,-4.977,-4.8542,-4.8425,-4.8409,-4.8475,-4.8334,-4.8306,-4.819,-4.7653,-4.7296,-4.683,-4.5774,-4.4791,-4.3796,-4.2635,-4.2697,-4.253,-4.1263,-4.1874,-4.2422,-4.1895,-4.1853,-4.1979,-4.2297,-4.2537,-4.277,-4.3013,-4.325,-4.3117,-4.2404,0.0,0.0,-4.1392,-4.1112,-4.0467,-3.9388,-3.8849,-3.8416,-3.8077,-3.836,-3.8622,-3.8807,-3.975,-3.9999,-3.9574,-4.0688,-4.1609,-4.2323,-4.2722,-4.265,0.0,0.0,0.0,0.0,0.0,0.0,0.0,0.0,0.0,0.0,0.0,0.0,0.0,0.0,0.0,-5.1998,-5.5346,-5.8437,-6.1006,-6.1814,-6.2193,-6.2548,-6.2732,-6.278,-6.278,-6.278,-6.278,-6.278,-6.278,-6.278,-6.278,-6.1594,-6.0786,-6.0639,-5.9208,-5.84,-5.8217,-5.807,-5.7997,-5.7997,0.0,0.0,-5.7997,-5.7997,-5.7997,-5.796,-5.7152,-5.6712,-5.6528,-5.5684,-5.4876,-5.4106,-5.3445,-5.3203,-5.3203,-5.3203,-5.3203,-5.3203,-5.3203,-5.1799,-5.0006,-5.0006,-4.8942,-4.7665,-4.763,-4.7933,0.0,-4.8304,-4.8306,-4.8267,-4.8134,-4.7623,-4.7038,-4.681,-4.6118,-4.5147,-4.3852,-4.3971,-4.3759,-4.198,-4.181,-4.1937,-4.1832,-4.2221,-4.2382,-4.1958,-4.2362,-4.2557,-4.2124,-4.2521,-4.2734,-4.24,-4.2777,-4.2976,-4.283,-4.2175,-4.1462,-4.076,-4.0004,-3.9657,-3.9734,-3.986,-3.993,-3.998,-4.0166,-4.0257,-4.0165,-4.1445,-4.2139,-4.2286,-4.1742,-4.1779,0.0,0.0,0.0,0.0,0.0,0.0,0.0,0.0,0.0,0.0,0.0,-4.4875,0.0,0.0,-5.2202,-5.5031,-5.7937,-6.0346,-6.1961,-6.2548,-6.278,-6.278,-6.278,-6.278,-6.278,-6.278,-6.278,-6.278,-6.278,-6.278,-6.278,-6.1667,-6.0823,-6.0419,-5.9245,-5.8621,-5.8621,-5.8217,-5.8217,-5.8621,-5.818,-5.7997,-5.7997,-5.7997,-5.7997,-5.796,-5.7593,-5.7189,-5.6748,-5.5941,-5.5133,-5.4363,-5.3959,-5.3555,-5.3203,-5.3203,-5.3203,-5.3203,-5.3203,-5.1956,-5.0299,-5.0299,-4.9206,-4.7838,-4.7838,-4.8055,-4.8306,-4.8306,-4.8306,-4.8306,-4.8306,-4.8012,-4.77,-4.77,-4.7076,-4.612,-4.4802,-4.4927,-4.4728,-4.2774,-4.2974,-4.3221,-4.2534,-4.2895,-4.3048,-4.2374,-4.2518,-4.2693,-4.2657,-4.2921,-4.3069,-4.294,-4.3178,-4.3358,-4.3358,-4.2359,-4.1557,-4.1115,-4.0233,-4.0003,-4.0631,-4.0419,-4.0474,-4.0817,-4.1143,-4.1361,-4.1521,-4.2429,-4.291,-4.2873,-4.2506,-4.2286,0.0,0.0,0.0,0.0,0.0,0.0,0.0,0.0,-4.2577,-4.4364,-4.6045,-4.7746,-4.9764,-5.2679,-5.5544,-5.7886,-6.0126,-6.1924,-6.2915,-6.2915,-6.278,-6.278,-6.278,-6.278,-6.278,-6.278,-6.278,-6.278,-6.278,-6.278,-6.278,-6.2034,-6.13,-6.0639,-5.9869,-5.9404,-5.9404,-5.8804,-5.8731,-5.9184,-5.8547,-5.8143,-5.7997,-5.7997,-5.7997,-5.7997,-5.7997,-5.7629,-5.6969,-5.6308,-5.5574,-5.484,-5.4693,-5.4142,-5.3408,-5.324,-5.3203,-5.3203,-5.3203,-5.227,-5.1022,-5.0839,-4.9774,-4.8526,-4.8343,-4.8306,-4.8306,-4.8306,-4.8306,-4.8306,-4.8306,-4.8306,-4.8306,-4.8306,-4.7773,-4.6981,-4.5774,-4.5842,-4.5624,-4.3888,-4.4407,-4.4782,-4.3748,-4.3883,-4.3796,-4.2838,-4.277,-4.3032,-4.3426,-4.3515,-4.3515,-4.3515,-4.3515,-4.3515,-4.3515,-4.2377,-4.1578,-4.1421,-4.0618,-4.0508,-4.1384,-4.1087,-4.1198,-4.1777,-4.2281,-4.2647,-4.2882,-4.3286,-4.3515,-4.3515,-4.3515,-4.313,-3.833,-3.8777,-4.0019,-4.1323,-4.1686,-4.2905,0.0,0.0,-4.7779,-4.9605,-5.1238,-5.2449,-5.2726,-5.4818,-5.7093,-5.8781,-6.0493,-6.2144,-6.3723,-6.3282,-6.278,-6.278,-6.278,-6.278,-6.278,-6.278,-6.278,-6.278,-6.278,-6.278,-6.278,-6.2034,-6.1557,-6.1484,-6.0676,-6.0272,-6.0272,-6.0199,-5.9832,-5.9184,-5.9111,-5.8694,-5.7997,-5.7997,-5.7997,-5.7997,-5.7997,-5.796,-5.785,-5.7776,-5.7262,-5.6455,-5.5721,-5.495,-5.4179,-5.3482,-5.3203,-5.3203,-5.3203,-5.2601,-5.1756,-5.1022,-5.0178,-4.9317,-4.8526,-4.8306,-4.8306,-4.8306,-4.8306,-4.8306,-4.8306,-4.8306,-4.8306,-4.8306,-4.8233,-4.792,-4.7056,-4.6928,-4.669,-4.5754,-4.5321,-4.5184,-4.5515,-4.5249,-4.4429,-4.2946,-4.3105,-4.3445,-4.3497,-4.3515,-4.3515,-4.3515,-4.3515,-4.3515,-4.3515,-4.2729,-4.2319,-4.25,-4.2177,-4.2139,-4.25,-4.2941,-4.3171,-4.3245,-4.3333,-4.337,-4.3391,-4.348,-4.3515,-4.3515,-4.3515,-4.3441,-4.0398,-4.0271,0.0,0.0,-4.3798,-4.5513,-4.8173,-4.9139,-5.0012,-5.1825,-5.3482,-5.473,-5.5207,-5.7262,-5.9134,0.0,-6.1667,-6.3099,-6.3319,-6.3025,-6.2658,-6.2144,-6.1704,-6.1594,-6.2071,-6.2548,-6.278,-6.278,-6.278,-6.278,-6.278,-6.2034,-6.1594,-6.1594,-6.0823,-6.0639,-6.108,-6.0639,-6.0236,-5.9905,-5.9404,-5.8804,-5.7997,-5.7997,-5.7997,-5.7997,-5.7997,-5.7997,-5.7997,-5.7997,-5.7262,-5.6051,-5.5721,-5.4803,-5.3665,-5.3314,-5.3203,-5.3203,-5.3203,-5.2674,-5.194,-5.161,-5.0949,-5.0141,-4.9297,-4.904,-4.893,-4.8453,-4.8306,-4.8306,-4.8306,-4.8306,-4.8306,-4.8306,-4.8306,-4.8067,-4.7259,-4.748,-4.7553,-4.6746,-4.6797,-4.6866,-4.6654,-4.6412,-4.5877,-4.4746,-4.4364,-4.4011,-4.3534,-4.3515,-4.3515,-4.3515,-4.3515,-4.3515,-4.3515,-4.3167,-4.3044,-4.3142,-4.3063,-4.3044,-4.3178,-4.3374,-4.3515,-4.3515,-4.3515,-4.3515,-4.3515,-4.3515,-4.3515,-4.3515,-4.3515,-4.3515,-4.0825,0.0,0.0,-4.3524,-4.601,-4.826,-4.9345,-5.079,-5.2364,-5.3901,-5.5133,-5.6161,-5.6969,-5.8547,-5.9979,-6.0639,-6.2438,-6.3686,-6.3503,-6.3099,-6.2511,-6.1704,-6.0896,-6.0529,-6.0896,-6.1887,-6.2585,-6.278,-6.278,-6.278,-6.278,-6.2254,-6.1924,-6.1924,-6.1374,-6.1337,-6.1924,-6.1374,-6.097,-6.0713,-5.9942,-5.9134,-5.8327,-5.8107,-5.7997,-5.7997,-5.7997,-5.7997,-5.7997,-5.7997,-5.7299,-5.6235,-5.6014,-5.5207,-5.4121,-5.3702,-5.3408,-5.3203,-5.3203,-5.2821,-5.227,-5.205,-5.161,-5.0986,-5.0178,-4.9941,-4.9738,-4.8893,-4.8673,-4.8673,-4.8673,-4.8673,-4.871,-4.893,-4.9003,-4.8857,-4.825,-4.86,-4.882,-4.8213,-4.858,-4.8746,-4.7939,-4.7792,-4.7425,-4.6397,-4.5736,-4.5076,-4.4268,-4.3975,-4.3754,-4.3515,-4.3515,-4.3515,-4.3515,-4.3515,-4.3515,-4.3515,-4.3515,-4.3515,-4.3515,-4.3515,-4.3515,-4.3515,-4.3515,-4.3515,-4.3515,-4.3515,-4.3515,-4.3515,-4.3515,-4.3515,0.0,0.0,-4.2486,-4.5021,-4.819,-5.1096,-5.269,-5.4289,-5.5684,-5.6528,-5.6748,-5.7005,-5.7813,-5.8033,-5.8841,-6.119,-6.2291,-6.3429,-6.5007,-6.3807,-6.2511,-6.1704,-6.0896,-6.0126,0.0,-6.0713,-6.1961,-6.2743,-6.278,-6.278,-6.278,-6.278,-6.2768,-6.2768,-6.2743,-6.2743,-6.2768,-6.2743,-6.2365,-6.1557,-6.075,-5.9942,-5.9148,-5.8364,-5.7997,-5.7997,-5.7997,-5.7997,-5.7997,-5.7997,-5.796,-5.785,-5.7079,-5.6748,-5.6492,-5.495,-5.3885,-5.3203,-5.3203,-5.3167,-5.3041,-5.2234,-5.1977,-5.1793,-5.1022,-5.0765,-5.0618,-4.9794,-4.9574,-4.9574,-4.9574,-4.9574,-4.9757,-5.0545,-5.0729,-5.0729,-5.0692,-5.0729,-5.0729,-5.0692,-5.0729,-5.0472,-4.9647,-4.9537,-4.8967,-4.7296,-4.7039,-4.6746,-4.592,-4.5149,-4.4378,-4.3588,-4.3515,-4.3515,-4.3515,-4.3515,-4.3515,-4.3515,-4.3515,-4.3515,-4.3515,-4.3515,-4.3515,-4.3515,-4.3515,-4.3515,-4.3515,-4.3515,-4.3515,-4.3515,-4.3515,-4.3515,0.0,0.0,-4.4491,-4.8153,-5.0762,-5.2968,-5.5097,-5.6014,-5.6455,-5.6748,-5.5456,-5.4349,-5.4642,-5.5119,-5.6108,-5.805,-6.0848,-6.3,-6.3576,-6.4127,-6.3576,-6.1117,-6.0566,0.0,0.0,0.0,0.0,-6.1924,-6.1998,-6.2254,-6.2743,-6.278,-6.278,-6.278,-6.278,-6.278,-6.278,-6.278,-6.2401,-6.1557,-6.0236,-5.9208,-5.84,-5.8107,-5.7997,-5.7997,-5.7997,-5.7997,-5.7997,-5.7997,-5.7703,-5.7189,-5.6932,-5.6455,-5.5941,-5.539,-5.4693,-5.3922,-5.3408,-5.3203,-5.3188,-5.2894,-5.2821,-5.2637,-5.183,-5.161,-5.1426,-5.0618,-5.0398,-5.0398,-5.0398,-5.0398,-5.0472,-5.0729,-5.0802,-5.0802,-5.0802,-5.0802,-5.0802,-5.0802,-5.0802,-5.0729,-5.0435,-5.0398,-4.9811,-4.8159,-4.6985,-4.6214,-4.592,-4.5223,-4.4599,-4.4342,-4.3828,-4.3515,-4.3515,-4.3515,-4.3515,-4.3515,-4.3515,-4.3515,-4.3515,-4.3515,-4.3515,-4.3515,-4.3515,-4.3515,-4.3515,-4.3515,-4.3515,-4.3515,-4.3515,-4.3515,0.0,-4.4985,-4.7273,-5.1479,-5.3518,-5.4913,-5.6455,-5.6822,-5.6565,-5.5684,-5.3711,-5.2145,-5.2123,-5.2087,-5.2892,-5.5373,-5.8247,-6.0677,-6.2143,-6.3023,-6.3085,-6.1851,-6.119,-6.075,0.0,0.0,0.0,-6.1557,-6.2144,-6.2732,-6.3246,-6.3282,-6.3282,-6.3282,-6.2989,-6.278,-6.278,-6.278,-6.2401,-6.1594,-6.0566,-5.9501,-5.8437,-5.8437,-5.8253,-5.7997,-5.7997,-5.7997,-5.7997,-5.7997,-5.7703,-5.7226,-5.7226,-5.6895,-5.6418,-5.6124,-5.5684,-5.5097,-5.4032,-5.3445,-5.3203,-5.3203,-5.3203,-5.3093,-5.2601,-5.2417,-5.227,-5.1463,-5.1242,-5.1242,-5.1242,-5.1242,-5.1316,-5.161,-5.1683,-5.1683,-5.1683,-5.1683,-5.1683,-5.1683,-5.1683,-5.1573,-5.1279,-5.0729,-4.9994,-4.893,-4.7609,-4.6544,-4.5957,-4.5443,-4.5039,-4.4728,-4.3975,-4.3515,-4.3515,-4.3515,-4.3515,-4.3515,-4.3515,-4.3515,-4.3515,-4.3515,-4.3515,-4.3515,-4.3515,-4.3515,-4.3515,-4.3515,-4.3515,-4.3515,-4.3515,-4.3515,-4.6046,-4.8393,-5.0611,-5.4656,-5.6198,-5.6748,-5.6748,-5.6638,-5.5904,-5.3497,-5.16,-5.033,0.0,0.0,-4.9468,-5.3346,-5.4875,-5.6992,-6.0982,-6.1018,-6.1471,0.0,0.0,0.0,0.0,0.0,0.0,-6.1777,0.0,-6.4053,-6.4163,-6.4163,-6.4163,-6.4163,-6.3356,-6.289,-6.2879,-6.2817,-6.2401,-6.1594,-6.1594,-6.0786,-5.9258,-5.9221,-5.8804,-5.807,-5.8033,-5.7997,-5.7997,-5.7997,-5.7997,-5.7997,-5.7997,-5.7997,-5.7923,-5.7152,-5.6859,-5.6602,-5.506,-5.3959,-5.324,-5.324,-5.3203,-5.3203,-5.3203,-5.3203,-5.3041,-5.227,-5.205,-5.205,-5.205,-5.205,-5.2234,-5.3041,-5.3203,-5.3203,-5.3203,-5.3203,-5.3203,-5.3203,-5.3203,-5.2968,-5.2197,-5.0749,-4.9647,-4.9647,-4.8893,-4.7755,-4.6214,-4.5993,-4.5663,-4.4856,-4.4048,-4.3551,-4.3515,-4.3515,-4.3515,-4.3515,-4.3515,-4.3515,-4.3515,-4.3515,-4.3515,-4.3515,-4.3515,-4.3515,-4.3515,-4.3515,-4.3515,-4.3515,-4.3515,-4.3515,-4.8902,-5.1344,-5.368,-5.5941,-5.6198,-5.5904,-5.5904,-5.4509,-5.269,-5.0758,-4.8533,-4.6681,0.0,0.0,0.0,-5.1886,-5.5637,0.0,-6.2058,-6.3892,0.0,-6.4163,0.0,-6.42,-6.3796,-6.3576,0.0,0.0,-6.3613,-6.3686,-6.4934,-6.5007,-6.5007,-6.5007,-6.4787,-6.4383,-6.3759,-6.3135,-6.2401,-6.1594,-6.1594,-6.108,-6.0089,-5.9478,-5.9074,-5.8854,-5.8253,-5.7997,-5.7997,-5.7997,-5.7997,-5.7997,-5.7997,-5.7997,-5.796,-5.7776,-5.7299,-5.6748,-5.6345,-5.528,-5.4106,-5.4106,-5.3702,-5.3203,-5.3203,-5.3203,-5.3188,-5.2968,-5.2894,-5.2894,-5.2894,-5.2894,-5.2968,-5.313,-5.3203,-5.3203,-5.3203,-5.3203,-5.3203,-5.3203,-5.3203,-5.3151,-5.2931,-5.1573,-5.0472,-5.0472,-4.926,-4.8159,-4.7755,-4.7149,-4.6489,-4.5663,-4.4856,-4.4158,-4.3551,-4.3515,-4.3515,-4.3515,-4.3515,-4.3515,-4.3515,-4.3515,-4.3515,-4.3515,-4.3515,-4.3515,-4.3515,-4.3515,-4.3515,-4.3515,-4.3515,-4.3515,-5.2024,-5.4099,-5.5757,-5.7005,-5.6712,-5.5757,-5.4283,-5.2632,-5.0501,-4.7382,-4.555,0.0,0.0,0.0,0.0,0.0,0.0,0.0,-6.119,-6.3207,-6.4662,0.0,-6.6072,0.0,-6.6219,-6.5888,-6.5999,0.0,-6.5375,-6.4824,-6.5778,-6.5852,-6.5852,-6.5852,-6.5485,-6.4897,-6.409,-6.3613,-6.2952,-6.2144,-6.2144,-6.1704,-6.0896,-6.0456,-5.9869,-5.9148,0.0,-5.8327,-5.7997,-5.7997,-5.7997,-5.7997,-5.7997,-5.7997,-5.7997,-5.7997,-5.7703,-5.7336,-5.7336,-5.6492,-5.539,-5.5023,-5.462,-5.4252,-5.4252,-5.3995,-5.3739,-5.3739,-5.3482,-5.3203,-5.3203,-5.3203,-5.3203,-5.3203,-5.3203,-5.3203,-5.3203,-5.3203,-5.3203,-5.3203,-5.3203,-5.3203,-5.3203,-5.216,-5.1316,-5.1316,-4.9921,-4.8857,-4.8857,-4.781,-4.6929,-4.6471,-4.5388,-4.4525,-4.4085,-4.3681,-4.3515,-4.3515,-4.3515,-4.3515,-4.3515,-4.3515,-4.3515,-4.3515,-4.3515,-4.3515,-4.3515,-4.3515,-4.3515,-4.3515,-4.3515,-4.3515,-5.495,-5.6345,-5.7152,-5.7813,-5.7226,-5.5625,-5.2364,-5.0769,-4.8626,-4.3908,0.0,-4.2577,-4.1851,0.0,-4.5238,-4.7818,0.0,-5.4891,-5.9785,-6.1263,-6.3291,-6.7247,-6.7687,-6.8054,-6.8972,-6.8238,-6.8054,-6.9009,-6.7577,-6.6659,-6.6659,-6.6659,-6.6659,-6.6659,-6.5888,-6.5118,-6.442,-6.431,-6.387,-6.311,-6.3025,-6.2622,-6.1924,-6.1704,-6.086,-5.9515,-5.9404,0.0,-5.8327,-5.8217,-5.8143,-5.8143,-5.8033,-5.7997,-5.7997,-5.7997,-5.7997,-5.7997,-5.7997,-5.7556,-5.6822,-5.6014,-5.5684,-5.5596,-5.5596,-5.5097,-5.4546,-5.4546,-5.4069,-5.3482,-5.3408,-5.3445,-5.3482,-5.3408,-5.3371,-5.3371,-5.3371,-5.3277,-5.3203,-5.3203,-5.3203,-5.3203,-5.3203,-5.2527,-5.1977,-5.1977,-5.0712,-4.9757,-4.9757,-4.8306,-4.7223,-4.7113,-4.5828,-4.4911,-4.4728,-4.4048,-4.3608,-4.3515,-4.3515,-4.3515,-4.3515,-4.3625,-4.3608,-4.3515,-4.3625,-4.3625,-4.3515,-4.3515,-4.3515,-4.3515,-4.3515,-4.3515,-5.6271,-5.7189,-5.7813,-5.796,-5.6381,-5.4121,-5.1433,-4.8646,0.0,0.0,0.0,-4.1051,-4.0781,-4.2741,0.0,-4.9435,0.0,0.0,0.0,0.0,-6.4677,0.0,0.0,0.0,0.0,0.0,0.0,0.0,0.0,-6.7467,-6.7467,-6.7467,-6.7467,-6.7467,-6.6696,-6.6219,-6.6072,-6.5411,-6.5044,-6.4861,-6.42,-6.3796,-6.3613,-6.2218,-6.1447,-6.1153,-6.0493,0.0,-5.9942,-5.9281,-5.8964,-5.8927,-5.8253,-5.7997,-5.7997,-5.7997,-5.7997,-5.7997,-5.7997,-5.7923,-5.7666,-5.6859,-5.6124,-5.5596,-5.5596,-5.55,-5.539,-5.539,-5.528,-5.5023,-5.4363,-5.4693,-5.5023,-5.4363,-5.4179,-5.4179,-5.4179,-5.3665,-5.3203,-5.3203,-5.3203,-5.3203,-5.3203,-5.2527,-5.1977,-5.1977,-5.1206,-5.0582,-5.0582,-4.915,-4.7846,-4.7186,-4.6856,-4.6159,-4.4801,-4.4544,-4.4195,-4.3551,-4.3515,-4.3515,-4.3515,-4.4158,-4.4195,-4.3497,-4.4158,-4.4158,-4.3515,-4.3515,-4.3515,-4.3515,-4.3515,-4.3515,-5.7079,-5.7703,-5.7997,-5.7997,-5.5868,-5.2999,-4.998,0.0,0.0,0.0,-4.0055,-4.0599,-4.0599,0.0,0.0,0.0,0.0,0.0,0.0,0.0,0.0,0.0,0.0,0.0,0.0,0.0,0.0,0.0,0.0,-6.8311,-6.8311,-6.7907,-6.7687,-6.7687,-6.732,-6.6916,-6.6512,-6.6109,-6.5705,-6.5301,-6.4494,-6.409,-6.4053,-6.2805,-6.1998,-6.1557,-6.119,0.0,-6.0382,-5.9979,-5.9808,-5.9795,-5.9391,-5.8988,-5.8621,-5.8621,-5.8364,-5.7997,-5.7997,-5.7997,-5.7923,-5.7556,-5.7152,-5.6859,-5.6859,-5.6565,-5.6235,-5.6235,-5.5904,-5.55,-5.5097,-5.5317,-5.55,-5.5097,-5.4693,-5.4289,-5.3885,-5.3482,-5.3314,-5.3739,-5.3812,-5.3959,-5.4363,-5.3775,-5.3261,-5.3261,-5.2197,-5.1426,-5.1426,-5.0362,-4.9297,-4.8489,-4.7626,-4.6782,-4.6012,-4.559,-4.5149,-4.4782,-4.4745,-4.4745,-4.4745,-4.5112,-4.5149,-4.4745,-4.4709,-4.4525,-4.4121,-4.3681,-4.3515,-4.3515,-4.3938,-4.4121,-5.7299,-5.7886,-5.7997,-5.7997,-5.5464,-5.2082,-4.8859,-4.5459,0.0,0.0,-3.9314,-4.0364,-4.0669,0.0,0.0,0.0,0.0,0.0,0.0,0.0,0.0,0.0,0.0,0.0,0.0,0.0,0.0,0.0,0.0,0.0,-6.8898,-6.8311,-6.7871,-6.7714,-6.7687,-6.7393,-6.6769,-6.6769,-6.6439,-6.5815,-6.5007,-6.453,-6.431,-6.3466,-6.2622,-6.1851,-6.1851,0.0,0.0,-6.075,-6.0676,-6.0639,-6.0456,-5.9905,-5.9184,-5.9184,-5.8694,-5.7997,-5.7997,-5.7997,-5.7997,-5.7997,-5.7997,-5.7997,-5.7997,-5.7556,-5.7079,-5.7079,-5.6602,-5.6051,-5.5904,-5.5978,-5.6051,-5.5904,-5.5354,-5.4693,-5.3885,-5.3702,-5.3922,-5.4509,-5.4656,-5.484,-5.5486,-5.506,-5.4583,-5.4436,-5.3335,-5.2454,-5.227,-5.1536,-5.0802,-5.0198,-4.8636,-4.748,-4.7113,-4.6544,-4.6067,-4.592,-4.5883,-4.5883,-4.5883,-4.6067,-4.6067,-4.5883,-4.5443,-4.5131,-4.4966,-4.4305,-4.4029,-4.4011,-4.4672,-4.4966,-5.6432,-5.7446,-5.7997,-5.7997,-5.5023,-5.1422,-4.8713,0.0,0.0,-3.8749,-3.893,-3.9816,-4.056,-4.1594,-4.336,0.0,0.0,0.0,0.0,0.0,0.0,0.0,0.0,0.0,0.0,0.0,0.0,0.0,0.0,0.0,-6.8935,-6.8825,-6.8458,-6.7724,-6.7687,-6.765,-6.7577,-6.7577,-6.754,-6.7467,-6.6659,-6.5888,-6.5154,-6.4347,-6.3503,-6.2695,-6.2695,0.0,0.0,-6.1777,-6.1484,-6.141,-6.0676,-5.9905,-5.9184,-5.9184,-5.8694,-5.7997,-5.7997,-5.7997,-5.7997,-5.7997,-5.7997,-5.7997,-5.7997,-5.796,-5.7886,-5.7886,-5.785,-5.7593,-5.6895,-5.7226,-5.7593,-5.6859,-5.6638,-5.6381,-5.5537,-5.5354,-5.539,-5.5464,-5.5486,-5.55,-5.5574,-5.5559,-5.5244,-5.4509,-5.4252,-5.3922,-5.3167,-5.238,-5.1867,-5.1793,-5.0345,-4.8746,-4.7223,-4.7039,-4.6672,-4.5957,-4.5883,-4.5883,-4.5883,-4.6599,-4.6636,-4.592,-4.6526,-4.6526,-4.5773,-4.57,-4.5663,-4.5663,-4.5773,-4.5773,-5.5478,-5.7005,-5.7997,-5.7997,-5.4539,-5.0607,-4.8583,0.0,0.0,-3.924,-3.9671,-4.052,-4.1339,-4.2229,-4.345,0.0,0.0,0.0,0.0,0.0,0.0,0.0,0.0,0.0,0.0,0.0,0.0,0.0,0.0,0.0,-7.0367,-6.8972,-6.8238,-6.8421,-6.7944,-6.7687,-6.7687,-6.7687,-6.7687,-6.7677,-6.6402,-6.5852,-6.5999,-6.4677,-6.3906,-6.3576,-6.3576,0.0,0.0,-6.2475,-6.2328,-6.2291,-6.1961,-6.108,-5.9942,-5.9942,-5.9098,-5.7997,-5.7997,-5.7997,-5.7997,-5.7997,-5.7997,-5.7997,-5.7997,-5.7997,-5.7997,-5.7997,-5.7997,-5.7923,-5.7593,-5.7776,-5.7813,-5.7005,-5.6822,-5.6602,-5.5757,-5.5596,-5.5721,-5.6235,-5.6308,-5.6492,-5.6969,-5.6638,-5.6198,-5.5904,-5.5023,-5.4289,-5.3959,-5.3225,-5.2527,-5.205,-5.0986,-5.0031,-4.937,-4.8893,-4.8453,-4.8142,-4.7645,-4.7352,-4.7352,-4.7645,-4.7663,-4.7352,-4.7186,-4.6929,-4.6599,-4.614,-4.5883,-4.592,-4.6397,-4.6599,-5.3784,-5.6029,-5.7666,-5.7666,-5.3909,-4.9834,0.0,0.0,-4.0173,-3.924,-3.9962,-4.0955,-4.1537,-4.2592,-4.3541,0.0,0.0,0.0,0.0,0.0,0.0,0.0,0.0,0.0,0.0,0.0,0.0,0.0,0.0,0.0,-7.1651,-6.9376,-6.8311,-6.8898,-6.8128,-6.7687,-6.7687,-6.7687,-6.7687,-6.7687,-6.6549,-6.6182,-6.6439,-6.5081,-6.431,-6.409,-6.3833,0.0,0.0,-6.278,-6.278,-6.278,-6.2548,-6.1741,-6.0713,-6.0236,-5.9318,-5.8327,-5.807,-5.7997,-5.7997,-5.7997,-5.7997,-5.7997,-5.7997,-5.7997,-5.7997,-5.7997,-5.7997,-5.7997,-5.7997,-5.7997,-5.785,-5.7299,-5.7152,-5.7005,-5.6418,-5.6308,-5.6492,-5.7042,-5.7152,-5.7336,-5.7886,-5.7519,-5.7079,-5.6859,-5.5831,-5.495,-5.4473,-5.3922,-5.3261,-5.2454,-5.1867,-5.1316,-5.0839,-5.0288,-4.9958,-4.9958,-4.937,-4.893,-4.8673,-4.8673,-4.8563,-4.8306,-4.7736,-4.7443,-4.7443,-4.6911,-4.6617,-4.6617,-4.7186,-4.7443,-5.1188,-5.4276,-5.6822,-5.6822,-5.3066,-4.8956,0.0,0.0,-3.9336,-3.8405,-3.9528,-4.0704,-4.0808,-4.212,-4.3286,-4.348,0.0,0.0,0.0,0.0,0.0,0.0,0.0,0.0,0.0,0.0,0.0,0.0,0.0,0.0,-7.2459,-7.022,-6.8898,-6.8898,-6.8128,-6.7687,-6.7687,-6.7687,-6.7687,-6.7687,-6.7677,-6.7247,-6.6476,-6.5668,-6.4861,0.0,0.0,0.0,0.0,-6.278,-6.278,-6.2707,-6.1924,-6.1594,-6.1374,-5.9795,-5.9184,-5.9074,-5.829,-5.7997,-5.7997,-5.7997,-5.7997,-5.7997,-5.7997,-5.7997,-5.7997,-5.7997,-5.7997,-5.7997,-5.7997,-5.7997,-5.7997,-5.7997,-5.7997,-5.7997,-5.796,-5.796,-5.796,-5.7997,-5.7997,-5.7997,-5.7997,-5.7997,-5.7703,-5.6932,-5.6785,-5.6198,-5.462,-5.4399,-5.4069,-5.3298,-5.3167,-5.2527,-5.0949,-5.0802,-5.0802,-5.0802,-5.0765,-5.0398,-4.961,-4.961,-4.9187,-4.8343,-4.8306,-4.8306,-4.8306,-4.8269,-4.8269,-4.8269,-4.8269,-4.8306,-4.7163,-4.9292,-5.0965,-5.0925,-4.8846,-4.6353,-4.4691,0.0,-4.0268,-3.9962,-4.0428,-4.1241,-4.2372,-4.3046,-4.3611,-4.4214,0.0,0.0,0.0,0.0,0.0,0.0,0.0,0.0,0.0,0.0,0.0,0.0,0.0,0.0,-7.0881,-6.9633,-6.9155,-6.9706,-6.8385,-6.7687,-6.7687,-6.7687,-6.7687,-6.7687,-6.7136,-6.6733,-6.6476,-6.5668,-6.4861,0.0,0.0,0.0,0.0,-6.278,-6.2475,-6.1961,-6.1704,-6.0933,-5.9905,-5.9368,-5.8877,-5.8327,-5.8107,-5.7997,-5.7997,-5.7997,-5.7997,-5.7997,-5.7997,-5.7997,-5.7997,-5.7997,-5.7997,-5.7997,-5.7997,-5.7997,-5.7997,-5.7997,-5.7997,-5.7997,-5.7997,-5.7997,-5.7997,-5.7997,-5.7997,-5.7997,-5.7997,-5.7997,-5.7923,-5.7666,-5.7152,-5.6638,-5.6124,-5.5097,-5.4289,-5.4069,-5.3555,-5.2983,-5.2491,-5.194,-5.161,-5.161,-5.1096,-5.0435,-4.9647,-5.0105,-5.0031,-4.9187,-4.9206,-4.9206,-4.9206,-4.86,-4.8306,-4.8306,-4.8306,-4.8306,0.0,-4.6449,-4.819,-4.8187,-4.6628,0.0,0.0,0.0,-4.0199,-4.0233,-4.0846,-4.1679,-4.2736,-4.3227,-4.3646,-4.4158,0.0,0.0,0.0,0.0,0.0,0.0,0.0,0.0,0.0,0.0,0.0,0.0,0.0,0.0,-7.055,-6.9522,-6.9119,-6.9633,-6.8385,-6.7687,-6.7687,-6.7687,-6.7687,-6.7687,-6.7173,-6.6769,-6.6476,-6.5668,-6.4861,0.0,0.0,0.0,0.0,-6.278,-6.2511,-6.2034,-6.1704,-6.1006,-6.0052,-5.9404,-5.8854,-5.84,-5.8107,-5.7997,-5.7997,-5.7997,-5.7997,-5.7997,-5.7997,-5.7997,-5.7997,-5.7997,-5.7997,-5.7997,-5.7997,-5.7997,-5.7997,-5.7997,-5.7997,-5.7997,-5.7997,-5.7997,-5.7997,-5.7997,-5.7997,-5.7997,-5.7997,-5.7997,-5.7997,-5.7997,-5.7556,-5.7152,-5.6859,-5.5941,-5.506,-5.4473,-5.3959,-5.3555,-5.3203,-5.2747,-5.2454,-5.2454,-5.1977,-5.1353,-5.0528,-5.0986,-5.0875,-5.0088,-5.0031,-4.9904,-4.961,-4.871,-4.8306,-4.8306,-4.8636,-4.8783,0.0,0.0,0.0,0.0,0.0,0.0,0.0,0.0,0.0,-3.9579,-4.0832,-4.1995,-4.2316,-4.2973,-4.3539,-4.37,0.0,0.0,0.0,0.0,0.0,0.0,0.0,0.0,0.0,0.0,0.0,0.0,0.0,0.0,-7.0999,-6.9633,-6.8825,-6.8825,-6.8091,-6.7687,-6.7687,-6.7687,-6.7687,-6.7687,-6.7687,-6.7247,-6.6402,-6.5632,-6.4824,0.0,0.0,0.0,0.0,-6.278,-6.2743,-6.2658,-6.1887,-6.152,-6.1263,-5.9758,-5.9148,-5.9001,-5.8253,-5.7997,-5.7997,-5.7997,-5.7997,-5.7997,-5.7997,-5.7997,-5.7997,-5.7997,-5.7997,-5.7997,-5.7997,-5.7997,-5.7997,-5.7997,-5.7997,-5.7997,-5.7997,-5.7997,-5.7997,-5.7997,-5.7997,-5.7997,-5.7997,-5.7997,-5.7997,-5.7997,-5.7997,-5.774,-5.6969,-5.6859,-5.6235,-5.473,-5.4509,-5.4179,-5.3424,-5.3298,-5.3203,-5.3203,-5.3203,-5.2858,-5.2013,-5.205,-5.172,-5.0912,-5.0839,-5.0398,-4.961,-4.871,-4.8343,-4.8416,-4.9243,-4.9647,-3.9892,0.0,-4.161,-4.1522,-4.2014,0.0,0.0,0.0,0.0,0.0,0.0,0.0,0.0,0.0,0.0,0.0,0.0,0.0,0.0,0.0,0.0,0.0,0.0,0.0,0.0,0.0,0.0,0.0,0.0,-6.9633,-6.8605,-6.8164,-6.7981,-6.7981,-6.7797,-6.7687,-6.7687,-6.7687,-6.7687,-6.7687,-6.7687,-6.6953,-6.5595,-6.5411,-6.4494,0.0,0.0,0.0,-6.278,-6.278,-6.2438,-6.1851,-6.1667,-6.086,-5.9722,-5.9331,-5.8804,-5.8253,-5.807,-5.7997,-5.7997,-5.7997,-5.7997,-5.7997,-5.7997,-5.7997,-5.7997,-5.7997,-5.7997,-5.7997,-5.7997,-5.7997,-5.7997,-5.7997,-5.7997,-5.7997,-5.7997,-5.7997,-5.7997,-5.7997,-5.7997,-5.7997,-5.7997,-5.7997,-5.7997,-5.7997,-5.7997,-5.7923,-5.774,-5.7189,-5.6675,-5.6271,-5.5684,-5.5244,-5.506,-5.3922,-5.3203,-5.3203,-5.3203,-5.2858,-5.2013,-5.2601,-5.2527,-5.172,-5.1096,-5.0398,-4.961,-4.871,-4.8636,-4.9317,-4.95,-4.9941,-3.9188,-3.9692,-4.0071,-4.0418,-4.118,-4.1452,0.0,0.0,0.0,0.0,0.0,0.0,0.0,0.0,0.0,0.0,0.0,0.0,0.0,0.0,0.0,0.0,0.0,0.0,0.0,0.0,0.0,0.0,0.0,-6.8788,-6.8274,-6.7907,-6.7687,-6.7687,-6.732,-6.732,-6.7687,-6.732,-6.732,-6.7687,-6.732,-6.6512,-6.5301,-6.5301,-6.4383,0.0,0.0,0.0,-6.278,-6.278,-6.2548,-6.2144,-6.2144,-6.119,-5.9758,-5.9758,-5.9024,-5.7997,-5.7997,-5.7997,-5.7997,-5.7997,-5.7997,-5.7997,-5.7997,-5.7997,-5.7997,-5.7997,-5.7997,-5.7997,-5.7997,-5.7997,-5.7997,-5.7997,-5.7997,-5.7997,-5.7997,-5.7997,-5.7997,-5.7997,-5.7997,-5.7997,-5.7997,-5.7997,-5.7997,-5.7997,-5.7997,-5.7997,-5.7997,-5.7629,-5.7226,-5.6859,-5.6418,-5.5978,-5.5633,-5.4803,-5.4142,-5.3775,-5.3739,-5.3408,-5.2564,-5.2968,-5.3004,-5.2564,-5.1756,-5.1132,-5.0712,-4.9848,-4.9701,-5.0141,-5.0528,-5.0912,-3.9297,-4.0147,-4.0872,-4.1524,-4.1777,-4.1669,-4.0872,0.0,0.0,0.0,0.0,0.0,0.0,0.0,0.0,0.0,0.0,0.0,0.0,0.0,0.0,0.0,0.0,0.0,0.0,0.0,0.0,0.0,0.0,-6.8128,-6.8678,-6.8054,-6.7614,-6.7504,-6.6843,-6.6769,-6.732,-6.6659,-6.6659,-6.732,-6.6623,-6.5888,-6.5118,-6.5118,-6.4273,-6.278,0.0,0.0,-6.278,-6.278,-6.278,-6.2805,-6.2658,-6.1704,-6.0382,-6.0272,-5.9281,-5.7997,-5.7997,-5.7997,-5.7997,-5.7997,-5.7997,-5.7997,-5.7997,-5.7997,-5.7997,-5.7997,-5.7997,-5.7997,-5.7997,-5.7997,-5.7997,-5.7997,-5.7997,-5.7997,-5.7997,-5.7997,-5.7997,-5.7997,-5.7997,-5.7997,-5.7997,-5.7997,-5.7997,-5.7997,-5.7997,-5.7997,-5.7997,-5.7997,-5.774,-5.7079,-5.6969,-5.6712,-5.6014,-5.5978,-5.5611,-5.4803,-5.4546,-5.4032,-5.3203,-5.3203,-5.3203,-5.3203,-5.2417,-5.1977,-5.1977,-5.1206,-5.0875,-5.0986,-5.1683,-5.205,-3.9948,-4.0998,-4.1705,-4.1705,-4.223,-4.252,-4.1705,0.0,0.0,0.0,0.0,0.0,0.0,0.0,0.0,0.0,0.0,0.0,0.0,0.0,0.0,0.0,0.0,0.0,0.0,0.0,0.0,0.0,0.0,-6.8458,-6.7907,-6.776,-6.7393,-6.6696,-6.6549,-6.6219,-6.5668,-6.5558,-6.5558,-6.5668,-6.5558,-6.5081,-6.4273,-6.4273,-6.3723,-6.278,0.0,-6.278,-6.278,-6.278,-6.278,-6.2732,-6.2034,-6.1227,-6.0309,-5.9625,-5.8804,-5.7997,-5.7997,-5.7997,-5.7997,-5.7997,-5.7997,-5.7997,-5.7997,-5.7997,-5.7997,-5.7997,-5.7997,-5.7997,-5.7997,-5.7997,-5.7997,-5.7997,-5.7997,-5.7997,-5.7997,-5.7997,-5.7997,-5.7997,-5.7997,-5.7997,-5.7997,-5.7997,-5.7997,-5.7997,-5.7997,-5.7997,-5.7997,-5.7997,-5.796,-5.7813,-5.7813,-5.7776,-5.7629,-5.7629,-5.7299,-5.6492,-5.517,-5.4032,-5.3203,-5.3203,-5.3203,-5.3203,-5.2417,-5.1977,-5.1977,-5.1206,-5.1169,-5.183,-5.194,-5.2344,-4.0309,-4.118,-4.1905,-4.2341,-4.3086,-4.3377,0.0,0.0,0.0,0.0,0.0,0.0,0.0,0.0,0.0,0.0,0.0,0.0,0.0,0.0,0.0,0.0,0.0,0.0,0.0,0.0,0.0,0.0,0.0,0.0,-6.7063,-6.6623,-6.6219,-6.5852,-6.5411,-6.5007,-6.464,-6.42,-6.4395,-6.5301,-6.4861,-6.4457,-6.409,-6.409,-6.3613,-6.278,0.0,-6.278,-6.2743,-6.2328,-6.2401,-6.2695,-6.1447,-6.075,-6.0272,-5.9024,-5.8327,-5.7997,-5.7997,-5.7997,-5.7997,-5.7997,-5.7997,-5.7997,-5.7997,-5.829,-5.8657,-5.8657,-5.8327,-5.7997,-5.7997,-5.7997,-5.7997,-5.7997,-5.7997,-5.7997,-5.7997,-5.7997,-5.7997,-5.7997,-5.7997,-5.7997,-5.7997,-5.7997,-5.7997,-5.7997,-5.7997,-5.7997,-5.7997,-5.7997,-5.7997,-5.7997,-5.7997,-5.7997,-5.7997,-5.7997,-5.7666,-5.6859,-5.5684,-5.4693,-5.3885,-5.3849,-5.3665,-5.3203,-5.2858,-5.2637,-5.2637,-5.227,-5.2307,-5.2637,-5.2637,-5.2858,-4.0453,-4.1325,-4.2195,-4.2941,0.0,0.0,0.0,0.0,0.0,0.0,0.0,0.0,0.0,0.0,0.0,0.0,0.0,0.0,0.0,0.0,0.0,0.0,0.0,0.0,0.0,0.0,0.0,0.0,0.0,0.0,-6.6219,-6.5632,-6.5228,-6.5044,-6.442,-6.398,-6.3796,-6.3135,-6.3441,-6.4714,-6.409,-6.3796,-6.3796,-6.3796,-6.3429,-6.278,-6.278,-6.267,-6.2511,-6.2071,-6.2034,-6.2144,-6.108,-6.0456,-5.9979,-5.8731,-5.829,-5.829,-5.829,-5.84,-5.851,-5.8107,-5.8143,-5.8253,-5.807,-5.8437,-5.8964,-5.9148,-5.8767,-5.829,-5.829,-5.829,-5.829,-5.829,-5.829,-5.829,-5.829,-5.829,-5.8217,-5.8033,-5.7997,-5.7997,-5.7997,-5.7997,-5.7997,-5.7997,-5.7997,-5.7997,-5.7997,-5.7997,-5.7997,-5.7997,-5.7997,-5.7997,-5.7997,-5.7997,-5.774,-5.7116,-5.6161,-5.5244,-5.4436,-5.4399,-5.4032,-5.3203,-5.3203,-5.3203,-5.3203,-5.3203,-5.3203,-5.3203,-5.3203,-5.3203,-4.0311,-4.1724,-4.2995,-4.3068,-4.3049,0.0,-4.593,-4.6438,0.0,-4.9471,0.0,0.0,0.0,0.0,0.0,0.0,0.0,0.0,0.0,0.0,0.0,0.0,0.0,0.0,0.0,0.0,0.0,0.0,0.0,0.0,-6.5448,-6.5338,-6.4971,-6.42,-6.4127,-6.3723,-6.2915,-6.2817,-6.2853,-6.2989,-6.289,-6.289,-6.289,-6.289,-6.2853,-6.278,-6.278,-6.2401,-6.1741,-6.2438,-6.1887,-6.0639,-6.1263,-6.0603,-5.9258,-5.9148,-5.9111,-5.9111,-5.9111,-5.9588,-5.9979,-5.8474,-5.851,-5.8964,-5.8217,-5.8033,-5.8253,-5.8964,-5.9148,-5.9111,-5.9111,-5.9111,-5.9111,-5.9111,-5.9111,-5.9111,-5.9111,-5.9111,-5.8914,-5.8143,-5.7997,-5.7997,-5.7997,-5.7997,-5.7997,-5.7997,-5.7997,-5.7997,-5.7997,-5.7997,-5.7997,-5.7997,-5.7997,-5.7997,-5.7997,-5.7997,-5.796,-5.7923,-5.6455,-5.5244,-5.4436,-5.4399,-5.4032,-5.3203,-5.3203,-5.3203,-5.3203,-5.3203,-5.3203,-5.3203,-5.3203,-5.3203,-4.0544,-4.2214,-4.3741,-4.3213,-4.3449,0.0,0.0,-4.7268,-4.8198,-5.0055,-5.1046,0.0,0.0,0.0,0.0,0.0,0.0,0.0,0.0,0.0,0.0,0.0,0.0,0.0,0.0,0.0,0.0,0.0,0.0,0.0,-6.4567,-6.4053,-6.3613,-6.3319,-6.3282,-6.3135,-6.278,-6.278,-6.278,-6.278,-6.278,-6.278,-6.278,-6.278,-6.278,-6.278,-6.278,-6.2658,-6.2328,-6.2144,-6.1998,-6.1887,-6.1667,-6.0639,-5.9258,-5.9735,-5.9942,-5.9942,-5.9942,-6.0162,-6.0309,-5.9685,-5.9722,-5.9795,-5.8988,-5.9465,-6.0199,-6.0015,-6.0652,-6.1202,-6.0236,-5.9942,-5.9942,-5.9942,-5.9942,-5.9942,-5.9942,-5.9942,-5.9722,-5.8914,-5.8767,-5.8584,-5.8107,-5.7997,-5.7997,-5.7997,-5.7997,-5.7997,-5.7997,-5.7997,-5.7997,-5.7997,-5.7997,-5.7997,-5.7997,-5.7997,-5.7997,-5.7997,-5.7409,-5.6712,-5.5941,-5.5904,-5.528,-5.3959,-5.3959,-5.3702,-5.3203,-5.3203,-5.3203,-5.3203,-5.3203,-5.3203,-4.0306,-4.1905,-4.3414,-4.2868,0.0,0.0,-4.7619,-4.8553,-4.972,-5.2586,-5.3507,0.0,0.0,0.0,0.0,0.0,0.0,0.0,0.0,0.0,0.0,0.0,0.0,0.0,0.0,0.0,0.0,0.0,0.0,0.0,0.0,-6.2768,-6.2438,-6.2438,-6.2181,-6.2181,-6.2438,-6.2181,-6.201,-6.201,-6.201,-6.2303,-6.278,-6.2548,-6.2438,-6.2401,-6.2144,-6.201,-6.1998,-6.1447,-6.1557,-6.1961,-6.1153,-6.0309,-5.9661,-6.0493,-6.0786,-6.0786,-6.0786,-6.097,-6.108,-6.0566,-6.0566,-6.0639,-5.9808,-6.0346,-6.1153,-6.086,-6.1557,-6.2254,-6.1374,-6.097,-6.0786,-6.0786,-6.0786,-6.0786,-6.0786,-6.0786,-6.0529,-5.9758,-5.9368,-5.9038,-5.8474,-5.84,-5.84,-5.84,-5.84,-5.84,-5.84,-5.8143,-5.7997,-5.7997,-5.7997,-5.7997,-5.7997,-5.7997,-5.7997,-5.7997,-5.7997,-5.7629,-5.6822,-5.6822,-5.6161,-5.4803,-5.4509,-5.4252,-5.3959,-5.3445,-5.3482,-5.3959,-5.3702,-5.3702,-3.9526,-4.0688,-4.1923,0.0,0.0,0.0,-4.983,-5.0561,-5.2169,-5.7987,0.0,0.0,0.0,0.0,0.0,0.0,0.0,0.0,0.0,0.0,0.0,0.0,0.0,0.0,0.0,0.0,0.0,0.0,0.0,0.0,0.0,-6.1594,-6.1594,-6.1594,-6.0823,-6.0786,-6.1557,-6.0786,-6.0419,-6.0419,-6.0419,-6.1227,-6.2743,-6.1961,-6.1594,-6.152,-6.075,-6.0419,-6.0419,-6.0419,-6.0419,-6.0309,-5.9515,-5.9698,-6.0493,-6.13,-6.1594,-6.1594,-6.1594,-6.2144,-6.2548,-6.0933,-6.097,-6.1447,-6.0676,-6.0419,-6.0603,-6.1374,-6.1594,-6.1777,-6.2585,-6.2218,-6.1594,-6.1594,-6.1594,-6.1594,-6.1594,-6.1594,-6.1374,-6.0566,-5.9795,-5.9221,-5.9184,-5.9184,-5.9184,-5.9184,-5.9184,-5.9184,-5.9184,-5.851,-5.7997,-5.7997,-5.7997,-5.7997,-5.7997,-5.7997,-5.7997,-5.7997,-5.7997,-5.7629,-5.6859,-5.6822,-5.6418,-5.5633,-5.484,-5.4803,-5.5596,-5.3995,-5.4032,-5.5596,-5.4766,-5.484,-3.9986,-4.1008,0.0,0.0,0.0,0.0,0.0,-5.227,0.0,0.0,0.0,0.0,0.0,0.0,0.0,0.0,0.0,0.0,0.0,0.0,0.0,0.0,0.0,0.0,0.0,0.0,0.0,0.0,0.0,0.0,0.0,-6.1043,-6.075,-6.075,-6.0529,-6.0529,-6.075,-6.0529,-6.0419,-6.0419,-6.0419,-6.0639,-6.1117,-6.086,-6.075,-6.0786,-6.108,-6.0933,-6.0419,-6.0419,-6.0089,-5.9588,-5.9942,-6.0199,-6.0493,-6.13,-6.1961,-6.2438,-6.2438,-6.2622,-6.2707,-6.2254,-6.2254,-6.2291,-6.1484,-6.163,-6.2034,-6.1704,-6.1998,-6.2511,-6.2768,-6.2622,-6.2438,-6.2438,-6.2438,-6.2438,-6.2438,-6.2438,-6.2218,-6.141,-6.1043,-6.0713,-6.0162,-6.0052,-5.9869,-5.9294,-5.9184,-5.9024,-5.8437,-5.8143,-5.7997,-5.7997,-5.7997,-5.7997,-5.7997,-5.7997,-5.7997,-5.7997,-5.7997,-5.7886,-5.7666,-5.7629,-5.7262,-5.6455,-5.6198,-5.5941,-5.5596,-5.5097,-5.5133,-5.5574,-5.5354,-5.5354,-3.8902,0.0,0.0,0.0,0.0,0.0,0.0,0.0,0.0,0.0,0.0,0.0,0.0,0.0,0.0,0.0,0.0,0.0,0.0,0.0,0.0,0.0,0.0,0.0,0.0,0.0,0.0,0.0,0.0,0.0,0.0,-6.0199,-5.9942,-5.9942,-5.9612,-5.9612,-5.9942,-5.9612,-5.9465,-5.9465,-5.9465,-5.9465,-5.9465,-5.9795,-5.9942,-5.9942,-6.0456,-6.0199,-5.9465,-5.9795,-5.9465,-5.8804,-5.9612,-5.9942,-6.0015,-6.0823,-6.1447,-6.1887,-6.2218,-6.2328,-6.2401,-6.267,-6.278,-6.2732,-6.2218,-6.2438,-6.267,-6.2218,-6.2438,-6.278,-6.278,-6.278,-6.278,-6.278,-6.278,-6.278,-6.278,-6.278,-6.2658,-6.2181,-6.1814,-6.1447,-6.097,-6.0896,-6.0603,-5.9795,-5.9404,-5.8891,-5.8107,-5.7997,-5.7997,-5.7997,-5.7997,-5.7997,-5.7997,-5.7997,-5.7997,-5.7997,-5.7997,-5.7997,-5.7997,-5.7997,-5.7776,-5.7299,-5.6969,-5.6712,-5.6528,-5.5904,-5.5926,-5.6528,-5.6235,-5.6235,-3.7158,0.0,0.0,0.0,0.0,0.0,0.0,0.0,0.0,0.0,0.0,0.0,0.0,0.0,0.0,0.0,0.0,0.0,0.0,0.0,0.0,0.0,0.0,0.0,0.0,0.0,0.0,0.0,0.0,0.0,0.0,-5.9111,-5.9074,-5.9074,-5.84,-5.8364,-5.9074,-5.8364,-5.7997,-5.7997,-5.7997,-5.7997,-5.8033,-5.8767,-5.9111,-5.9184,-5.9111,-5.8731,-5.8143,-5.8841,-5.8657,-5.807,-5.8804,-5.9148,-5.9294,-6.0015,-6.0346,-6.0493,-6.1227,-6.152,-6.1704,-6.2475,-6.2743,-6.278,-6.278,-6.278,-6.278,-6.278,-6.278,-6.278,-6.278,-6.278,-6.278,-6.278,-6.278,-6.278,-6.278,-6.278,-6.278,-6.278,-6.2218,-6.1704,-6.1704,-6.1704,-6.141,-6.0529,-5.9625,-5.8841,-5.8107,-5.7997,-5.7997,-5.7997,-5.7997,-5.7997,-5.7997,-5.7997,-5.7997,-5.7997,-5.7997,-5.7997,-5.7997,-5.7997,-5.7997,-5.7997,-5.7299,-5.7262,-5.7997,-5.6528,-5.6565,-5.796,-5.7262,-5.7299,0.0,-3.9231,0.0,0.0,0.0,0.0,0.0,0.0,0.0,0.0,0.0,0.0,0.0,0.0,0.0,0.0,0.0,0.0,0.0,0.0,0.0,0.0,0.0,0.0,0.0,0.0,0.0,0.0,0.0,0.0,-5.9184,-5.8621,-5.8253,-5.8253,-5.8107,-5.807,-5.8253,-5.8107,-5.7997,0.0,-5.7997,-5.7997,-5.7997,-5.818,-5.8621,-5.9148,-5.8547,-5.851,-5.8891,-5.8437,-5.8143,-5.8033,-5.818,-5.8657,-5.9221,-5.9368,-5.9869,-6.0419,-6.0603,-6.108,-6.163,-6.1777,-6.2291,-6.278,-6.278,-6.278,-6.278,-6.278,-6.278,-6.278,-6.278,-6.278,-6.278,-6.278,-6.278,-6.278,-6.278,-6.278,-6.278,-6.278,-6.2658,-6.2548,-6.2548,-6.2548,-6.2071,-6.0639,-5.9171,-5.8217,-5.8033,-5.7997,-5.7997,-5.7997,-5.7997,-5.7997,-5.7997,-5.7997,-5.7997,-5.7997,-5.7997,-5.7997,-5.7997,-5.7997,-5.7997,-5.7997,-5.7813,-5.7813,-5.7997,-5.7629,-5.7666,-5.7997,-5.7813,-5.7813,0.0,0.0,0.0,0.0,0.0,0.0,0.0,0.0,0.0,0.0,0.0,0.0,0.0,0.0,0.0,0.0,0.0,0.0,0.0,0.0,0.0,0.0,0.0,0.0,0.0,0.0,0.0,0.0,0.0,-5.8621,-5.8621,-5.8217,-5.7997,-5.7997,-5.7997,-5.7997,-5.7997,-5.7997,-5.7997,-5.7997,-5.7997,-5.7997,-5.7997,-5.7997,-5.8217,-5.8621,-5.818,-5.8253,-5.8584,-5.818,-5.7997,-5.7997,-5.7997,-5.8253,-5.8621,-5.8621,-5.8877,-5.9318,-5.9685,-6.0126,-6.0566,-6.1337,-6.1887,-6.2291,-6.2695,-6.278,-6.278,-6.278,-6.278,-6.278,-6.278,-6.278,-6.278,-6.278,-6.278,-6.267,-6.2328,-6.2548,-6.2695,-6.2291,-6.2548,-6.2695,-6.2291,-6.1594,-6.0762,-5.9955,-5.8767,-5.7997,-5.7997,-5.7997,-5.7997,-5.7997,-5.7997,-5.7997,-5.7997,-5.7997,-5.7997,-5.7997,-5.7997,-5.7997,-5.7997,-5.7997,-5.7997,-5.7997,-5.7997,-5.7997,-5.7997,-5.7997,-5.7997,-5.7997,-5.7997,-5.7997,0.0,0.0,0.0,0.0,0.0,0.0,0.0,0.0,0.0,0.0,0.0,0.0,0.0,0.0,0.0,0.0,0.0,0.0,0.0,0.0,0.0,0.0,0.0,0.0,0.0,0.0,0.0,0.0,0.0,-5.7997,-5.7997,-5.7997,-5.795,-5.7797,-5.795,-5.795,-5.7797,-5.795,-5.7997,-5.7997,-5.7997,-5.7997,-5.7997,-5.7997,-5.7997,-5.7997,-5.7997,-5.7997,-5.7997,-5.7997,-5.7997,-5.7997,-5.7997,-5.7997,-5.7997,-5.7997,-5.7997,-5.8107,-5.8767,-5.9074,-5.9441,-6.0896,-6.1484,-6.1741,-6.2585,-6.278,-6.278,-6.278,-6.278,-6.278,-6.278,-6.278,-6.278,-6.278,-6.278,-6.2585,-6.1777,-6.2218,-6.2585,-6.1741,-6.2254,-6.2585,-6.1924,-6.0493,-5.9404,-5.9404,-5.8621,-5.7997,-5.7997,-5.8107,-5.8217,-5.8217,-5.8327,-5.84,-5.84,-5.829,-5.8217,-5.8217,-5.807,-5.7997,-5.7997,-5.7997,-5.7997,-5.7997,-5.7997,-5.7997,-5.7997,-5.7997,-5.7997,-5.7997,-5.7997,-5.7997,0.0,0.0,0.0,0.0,0.0,0.0,0.0,0.0,0.0,0.0,0.0,0.0,0.0,0.0,0.0,0.0,0.0,0.0,0.0,0.0,0.0,0.0,0.0,0.0,0.0,0.0,0.0,0.0,-5.7997,-5.7997,-5.7997,-5.7997,-5.7703,-5.7065,-5.7679,-5.7703,-5.704,-5.7679,-5.7997,-5.7997,-5.7997,-5.7997,-5.7997,-5.7997,-5.7997,-5.7997,-5.7997,-5.7997,-5.7997,-5.7997,-5.7997,-5.7997,-5.7997,-5.7997,-5.7997,-5.7997,-5.7997,-5.8033,-5.8107,-5.8621,-5.9331,-6.0272,-6.1043,-6.1741,-6.2585,-6.278,-6.278,-6.278,-6.278,-6.278,-6.278,-6.278,-6.278,-6.278,-6.278,-6.2585,-6.1777,-6.2218,-6.2585,-6.1741,-6.2254,-6.2743,-6.2658,-6.13,-6.0236,-6.0236,-5.8951,-5.7997,-5.7997,-5.8621,-5.9038,-5.9038,-5.9685,-6.0089,-6.0089,-5.9465,-5.9038,-5.9038,-5.84,-5.7997,-5.7997,-5.7997,-5.7997,-5.7997,-5.7997,-5.7997,-5.7997,-5.7997,-5.7997,-5.7997,-5.7997,-5.7997,0.0,0.0,0.0,0.0,0.0,0.0,0.0,0.0,0.0,0.0,0.0,0.0,0.0,0.0,0.0,0.0,0.0,0.0,0.0,0.0,0.0,0.0,0.0,0.0,0.0,0.0,0.0,0.0,-5.6638,-5.6638,-5.6638,-5.6638,-5.651,-5.6227,-5.6937,-5.718,-5.6912,-5.7655,-5.7997,-5.7997,-5.7997,-5.7997,-5.7997,-5.7997,-5.7997,-5.7997,-5.7997,-5.7997,-5.7997,-5.7997,-5.7997,-5.7997,-5.7997,-5.7997,-5.7997,-5.7997,-5.7997,-5.7997,-5.7997,-5.8217,-5.8657,-5.9465,-6.0272,-6.108,-6.1887,-6.2438,-6.278,-6.278,-6.278,-6.278,-6.278,-6.278,-6.278,-6.278,-6.278,-6.2585,-6.1777,-6.2218,-6.267,-6.2365,-6.2181,-6.2144,-6.2144,-6.119,-6.0419,-6.0419,-5.9795,-5.9355,-5.9355,-5.9648,-5.9869,-5.9869,-6.0199,-6.0419,-6.0419,-6.0089,-5.9661,-5.9221,-5.8877,-5.8474,-5.8033,-5.7997,-5.7997,-5.7997,-5.7997,-5.7997,-5.7997,-5.7997,-5.7997,-5.7997,-5.7997,-5.7997,0.0,0.0,0.0,0.0,0.0,0.0,0.0,0.0,0.0,0.0,0.0,0.0,0.0,0.0,0.0,0.0,0.0,0.0,0.0,0.0,0.0,0.0,0.0,0.0,0.0,0.0,0.0,0.0,-5.5596,-5.5596,-5.5596,-5.544,-5.5291,-5.5133,-5.5861,-5.6176,-5.6005,-5.7121,-5.7703,-5.7703,-5.7886,-5.7997,-5.7997,-5.7997,-5.7997,-5.7997,-5.7997,-5.7997,-5.7997,-5.7997,-5.7997,-5.7997,-5.7997,-5.7997,-5.7997,-5.7997,-5.7997,-5.7997,-5.7997,-5.7997,-5.8143,-5.8927,-5.9758,-6.0566,-6.1374,-6.2144,-6.278,-6.278,-6.278,-6.278,-6.278,-6.278,-6.278,-6.278,-6.278,-6.2658,-6.2034,-6.2218,-6.2511,-6.2511,-6.2181,-6.1851,-6.163,-6.108,-6.0713,-6.0713,-6.0529,-6.0419,-6.0419,-6.0566,-6.0713,-6.0713,-6.0896,-6.1006,-6.1006,-6.0823,-6.0456,-5.9869,-5.9404,-5.8927,-5.8327,-5.8107,-5.7997,-5.7997,-5.7997,-5.7997,-5.7997,-5.7997,-5.7997,-5.7997,-5.7997,-5.7997,0.0,0.0,0.0,0.0,0.0,0.0,0.0,0.0,0.0,0.0,0.0,0.0,0.0,0.0,0.0,0.0,0.0,0.0,0.0,0.0,0.0,0.0,0.0,0.0,0.0,0.0,0.0,0.0,-5.5596,-5.5596,-5.5596,-5.5013,-5.4306,-5.3539,-5.4291,-5.4353,-5.3583,-5.5741,-5.6859,-5.6859,-5.7629,-5.7997,-5.7997,-5.7997,-5.7997,-5.7997,-5.7997,-5.7997,-5.7997,-5.7997,-5.7997,-5.7997,-5.7997,-5.7997,-5.7997,-5.7997,-5.7997,-5.7997,-5.7997,-5.7997,-5.8143,-5.8927,-5.9758,-6.0566,-6.1374,-6.2144,-6.278,-6.278,-6.278,-6.278,-6.278,-6.278,-6.278,-6.278,-6.278,-6.278,-6.2743,-6.2181,-6.1667,-6.1667,-6.2254,-6.2511,-6.1741,-6.1557,-6.152,-6.152,-6.0896,-6.0419,-6.0419,-6.108,-6.152,-6.152,-6.2218,-6.2695,-6.2695,-6.1998,-6.152,-6.1484,-6.0052,-5.9184,-5.9148,-5.84,-5.7997,-5.7997,-5.7997,-5.7997,-5.7997,-5.7997,-5.7997,-5.7997,-5.7997,-5.7997,0.0,0.0,0.0,0.0,0.0,0.0,0.0,0.0,0.0,0.0,0.0,0.0,0.0,0.0,0.0,0.0,0.0,0.0,0.0,0.0,0.0,0.0,0.0,0.0,0.0,0.0,0.0,0.0,0.0,-5.4069,-5.4069,-5.3403,-5.2877,-5.2617,-5.2944,-5.3463,-5.4169,-5.5385,-5.6014,-5.6051,-5.6859,-5.7226,-5.7262,-5.7776,-5.7997,-5.7997,-5.7997,-5.7997,-5.7997,-5.7997,-5.7997,-5.7997,-5.7997,-5.7997,-5.7997,-5.7997,-5.7997,-5.7997,-5.7997,-5.7997,-5.8033,-5.8327,-5.9318,-6.0456,-6.075,-6.1741,-6.278,-6.278,-6.278,-6.278,-6.278,-6.278,-6.278,-6.278,-6.278,-6.278,-6.278,-6.2585,-6.2365,-6.2365,-6.2622,-6.2732,-6.2438,-6.2365,-6.2365,-6.2365,-6.2144,-6.1961,-6.1961,-6.2181,-6.2365,-6.2365,-6.2658,-6.278,-6.278,-6.2548,-6.2144,-6.163,-6.0566,-5.9979,-5.9979,-5.9208,-5.9024,-5.9538,-5.9024,-5.851,-5.7997,-5.7997,-5.7997,-5.7997,-5.7997,-5.7997,0.0,0.0,0.0,0.0,0.0,0.0,0.0,0.0,0.0,0.0,0.0,0.0,0.0,0.0,0.0,0.0,0.0,0.0,0.0,0.0,0.0,0.0,0.0,0.0,0.0,0.0,0.0,0.0,0.0,0.0,-5.3203,-5.2289,-5.1693,-5.1489,-5.1732,-5.2513,-5.3761,-5.4697,-5.5207,-5.5207,-5.6014,-5.6418,-5.6418,-5.7226,-5.7593,-5.7593,-5.7886,-5.7997,-5.7997,-5.7997,-5.7997,-5.7997,-5.7997,-5.7997,-5.7997,-5.7997,-5.7997,-5.7997,-5.7997,-5.7997,-5.8033,-5.8327,-5.9318,-6.0456,-6.0713,-6.1741,-6.278,-6.278,-6.278,-6.278,-6.278,-6.278,-6.278,-6.278,-6.278,-6.278,-6.278,-6.278,-6.2707,-6.2438,-6.2622,-6.2732,-6.2438,-6.2622,-6.278,-6.278,-6.278,-6.278,-6.278,-6.278,-6.278,-6.278,-6.278,-6.278,-6.278,-6.278,-6.2585,-6.2034,-6.1263,-6.0786,-6.0786,-6.0052,-5.9869,-6.0382,-5.9905,-5.9208,-5.84,-5.7896,-5.7655,-5.7655,-5.7655,-5.775,0.0,0.0,0.0,0.0,0.0,0.0,0.0,0.0,0.0,0.0,0.0,0.0,0.0,0.0,0.0,0.0,0.0,0.0,0.0,0.0,0.0,0.0,0.0,0.0,0.0,0.0,0.0,0.0,-5.2711,-5.3167,-5.3167,-5.1874,-5.077,-5.0033,-5.0743,-5.1444,-5.2089,-5.3602,-5.4363,-5.4399,-5.5207,-5.5596,-5.5633,-5.6418,-5.6822,-5.6859,-5.7629,-5.796,-5.7997,-5.7997,-5.7997,-5.7997,-5.7997,-5.7997,-5.7997,-5.7997,-5.7997,-5.7997,-5.7997,-5.7997,-5.8143,-5.8891,-5.9722,-6.0566,-6.1337,-6.2144,-6.278,-6.278,-6.278,-6.278,-6.278,-6.278,-6.278,-6.278,-6.2817,-6.2817,-6.278,-6.2817,-6.2622,-6.1777,-6.2291,-6.2548,-6.1777,-6.2291,-6.278,-6.278,-6.278,-6.278,-6.278,-6.278,-6.278,-6.278,-6.278,-6.278,-6.278,-6.278,-6.278,-6.278,-6.2034,-6.1594,-6.163,-6.086,-6.0456,-6.0493,-6.0456,-6.0052,-5.9221,-5.7713,-5.6948,-5.6912,-5.6948,-5.7338,-4.1464,0.0,0.0,0.0,0.0,0.0,0.0,0.0,0.0,0.0,0.0,0.0,0.0,0.0,0.0,0.0,0.0,0.0,0.0,0.0,0.0,0.0,0.0,0.0,0.0,0.0,0.0,0.0,-5.1867,-5.2344,-5.2344,-5.1986,-5.1266,-5.0033,-5.1189,-5.1886,-5.2112,-5.3032,-5.3812,-5.4399,-5.5207,-5.5596,-5.5633,-5.6418,-5.6822,-5.6822,-5.7042,-5.7446,-5.7997,-5.7997,-5.7997,-5.7997,-5.7997,-5.7997,-5.7997,-5.7997,-5.7997,-5.7997,-5.7997,-5.7997,-5.8033,-5.8253,-5.9281,-6.0456,-6.0676,-6.1704,-6.278,-6.278,-6.278,-6.278,-6.278,-6.278,-6.278,-6.278,-6.3282,-6.3576,-6.2952,-6.3319,-6.3503,-6.2622,-6.2658,-6.2732,-6.2511,-6.2658,-6.278,-6.278,-6.278,-6.278,-6.278,-6.278,-6.278,-6.278,-6.278,-6.278,-6.278,-6.278,-6.278,-6.278,-6.2034,-6.1851,-6.2438,-6.1704,-6.1557,-6.212,-6.1557,-6.086,-6.0052,-5.8511,-5.7454,-5.6912,-5.749,-5.8137,0.0,0.0,0.0,0.0,0.0,0.0,-4.2232,-4.2284,0.0,0.0,0.0,0.0,0.0,0.0,0.0,0.0,0.0,0.0,0.0,0.0,0.0,0.0,0.0,0.0,0.0,-4.8959,-4.9658,-4.9419,-5.07,-5.1506,-5.1529,-5.1574,-5.1272,-5.05,-5.1544,-5.2112,-5.2112,-5.2813,-5.3445,-5.3922,-5.4693,-5.5097,-5.5133,-5.5941,-5.6308,-5.6308,-5.6638,-5.7079,-5.7519,-5.785,-5.7997,-5.7997,-5.7997,-5.7997,-5.7997,-5.7997,-5.7997,-5.7997,-5.7997,-5.7997,-5.807,-5.84,-5.9355,-6.0456,-6.0786,-6.1814,-6.278,-6.278,-6.278,-6.278,-6.278,-6.278,-6.278,-6.278,-6.3209,-6.3429,-6.2915,-6.3209,-6.3429,-6.2915,-6.278,-6.278,-6.278,-6.278,-6.278,-6.278,-6.278,-6.278,-6.278,-6.278,-6.278,-6.278,-6.278,-6.278,-6.278,-6.278,-6.278,-6.278,-6.2365,-6.2328,-6.278,-6.2365,-6.2328,-6.278,-6.2365,-6.1544,-6.0427,-5.9206,-5.8346,-5.7913,-5.8382,-5.8816,0.0,0.0,0.0,0.0,0.0,0.0,-4.2941,-4.2504,-4.2265,0.0,0.0,0.0,0.0,0.0,0.0,0.0,0.0,0.0,0.0,0.0,0.0,0.0,0.0,0.0,-4.522,-4.692,-4.7875,-4.7487,-4.946,-5.0702,-5.0764,-5.0931,-5.1035,-5.1073,-5.1802,-5.2206,-5.2206,-5.2893,-5.3277,-5.3482,-5.4179,-5.4583,-5.4693,-5.539,-5.5684,-5.5647,-5.6345,-5.6712,-5.6859,-5.7556,-5.7923,-5.7997,-5.7997,-5.7997,-5.7997,-5.7997,-5.7997,-5.7997,-5.7997,-5.7997,-5.8107,-5.8817,-5.9612,-6.0419,-6.1227,-6.2034,-6.2695,-6.2743,-6.278,-6.278,-6.278,-6.278,-6.278,-6.278,-6.2879,-6.289,-6.2817,-6.2879,-6.289,-6.2817,-6.278,-6.278,-6.278,-6.278,-6.278,-6.278,-6.278,-6.278,-6.278,-6.278,-6.278,-6.278,-6.278,-6.278,-6.278,-6.278,-6.278,-6.278,-6.278,-6.278,-6.278,-6.278,-6.278,-6.278,-6.2732,-6.2051,-6.0756,-5.9798,-5.9348,-5.942,-5.942,-5.9434,0.0,0.0,0.0,0.0,0.0,0.0,-4.2681,-4.221,-4.2159,0.0,0.0,0.0,0.0,0.0,0.0,0.0,0.0,0.0,0.0,0.0,0.0,0.0,0.0,0.0,-4.5754,-4.6122,-4.658,-4.7145,-4.8854,-4.9862,-4.9947,-5.1115,-5.1552,-5.0975,-5.2272,-5.298,-5.298,-5.3124,-5.3849,-5.5133,-5.528,-5.5721,-5.6345,-5.6492,-5.6198,-5.5633,-5.5757,-5.6198,-5.6822,-5.6969,-5.7409,-5.7997,-5.7997,-5.7997,-5.7997,-5.7997,-5.7997,-5.7997,-5.7997,-5.7997,-5.8033,-5.818,-5.8804,-5.9588,-6.0382,-6.119,-6.1961,-6.2622,-6.278,-6.278,-6.278,-6.278,-6.278,-6.278,-6.3356,-6.3649,-6.2952,-6.3356,-6.3649,-6.2952,-6.278,-6.278,-6.278,-6.278,-6.278,-6.278,-6.278,-6.278,-6.278,-6.278,-6.278,-6.278,-6.278,-6.278,-6.278,-6.278,-6.278,-6.278,-6.278,-6.278,-6.278,-6.278,-6.278,-6.278,-6.2181,-6.1997,-6.2347,-6.03,-5.9637,-6.0251,-6.0251,-6.0586,0.0,0.0,0.0,-4.3945,0.0,0.0,0.0,-4.2593,-4.2283,0.0,0.0,0.0,0.0,0.0,0.0,0.0,0.0,0.0,0.0,0.0,0.0,0.0,0.0,0.0,-4.3927,-4.4728,-4.581,-4.7003,-4.7902,-4.8739,-4.9586,-5.0769,-5.1412,-5.1442,-5.2599,-5.3203,-5.3203,-5.3203,-5.3592,-5.4399,-5.4803,-5.5207,-5.5611,-5.5611,-5.539,-5.5023,-5.5449,-5.5831,-5.6271,-5.7079,-5.7629,-5.7997,-5.7997,-5.7997,-5.7997,-5.7997,-5.7997,-5.7997,-5.7997,-5.7997,-5.7997,-5.7997,-5.8841,-5.9869,-6.0272,-6.1227,-6.2291,-6.2695,-6.278,-6.278,-6.278,-6.278,-6.278,-6.278,-6.3135,-6.3319,-6.289,-6.3135,-6.3319,-6.2853,-6.278,-6.278,-6.278,-6.278,-6.278,-6.278,-6.278,-6.278,-6.278,-6.278,-6.278,-6.278,-6.278,-6.278,-6.278,-6.278,-6.278,-6.278,-6.278,-6.278,-6.278,-6.278,-6.278,-6.278,-6.2401,-6.2401,-6.278,-6.1598,-6.1262,-6.1662,-6.1662,-6.1624,0.0,0.0,0.0,0.0,0.0,-4.3469,0.0,0.0,0.0,0.0,0.0,0.0,0.0,0.0,0.0,0.0,0.0,0.0,0.0,0.0,0.0,0.0,0.0,0.0,0.0,-4.3666,-4.5297,-4.6746,-4.6984,-4.7736,-4.928,-5.0105,-5.0949,-5.172,-5.2564,-5.3041,-5.3203,-5.3203,-5.3277,-5.3445,-5.4106,-5.4473,-5.462,-5.4803,-5.4693,-5.4436,-5.539,-5.5721,-5.5706,-5.7152,-5.785,-5.7997,-5.7997,-5.7997,-5.7997,-5.7997,-5.7997,-5.7997,-5.7997,-5.7997,-5.7997,-5.7997,-5.9098,-6.0419,-6.0566,-6.1667,-6.278,-6.278,-6.278,-6.278,-6.278,-6.278,-6.278,-6.278,-6.278,-6.278,-6.278,-6.278,-6.278,-6.278,-6.278,-6.278,-6.278,-6.278,-6.278,-6.278,-6.278,-6.278,-6.278,-6.278,-6.278,-6.278,-6.278,-6.278,-6.278,-6.278,-6.278,-6.278,-6.278,-6.278,-6.278,-6.278,-6.278,-6.278,-6.278,-6.278,-6.278,-6.278,-6.278,-6.278,-6.278,-6.2438,0.0,0.0,0.0,0.0,-4.4656,0.0,0.0,0.0,-4.3042,0.0,0.0,0.0,0.0,0.0,0.0,0.0,0.0,0.0,0.0,0.0,0.0,0.0,0.0,0.0,0.0,-4.4072,-4.5022,-4.5957,-4.6653,-4.7423,-4.8416,-4.926,-5.0105,-5.0912,-5.172,-5.2491,-5.3167,-5.3203,-5.3555,-5.4252,-5.4363,-5.4766,-5.5486,-5.6198,-5.5757,-5.4473,-5.6014,-5.6271,-5.5647,-5.6565,-5.7373,-5.7997,-5.7997,-5.7997,-5.7997,-5.7997,-5.7997,-5.7997,-5.7997,-5.7997,-5.7997,-5.7997,-5.9098,-6.0529,-6.1263,-6.2108,-6.278,-6.278,-6.278,-6.278,-6.278,-6.278,-6.278,-6.278,-6.278,-6.278,-6.278,-6.278,-6.278,-6.278,-6.278,-6.278,-6.278,-6.278,-6.278,-6.278,-6.278,-6.278,-6.278,-6.278,-6.278,-6.278,-6.278,-6.278,-6.278,-6.278,-6.278,-6.278,-6.278,-6.278,-6.278,-6.278,-6.278,-6.278,-6.278,-6.278,-6.278,-6.278,-6.278,-6.278,-6.278,-6.2743,0.0,0.0,0.0,0.0,0.0,0.0,-4.3637,0.0,-4.2492,0.0,0.0,0.0,0.0,0.0,0.0,0.0,0.0,0.0,0.0,0.0,0.0,0.0,0.0,0.0,0.0,0.0,0.0,0.0,-4.592,-4.6727,-4.7553,-4.8857,-4.9757,-5.0068,-5.1316,-5.216,-5.2491,-5.2968,-5.335,-5.368,-5.328,-5.3231,-5.3595,-5.4418,-5.4418,-5.3872,-5.5894,-5.6602,-5.6345,-5.7152,-5.7703,-5.7997,-5.7997,-5.7997,-5.7997,-5.7997,-5.7997,-5.7997,-5.7997,-5.7997,-5.8143,-5.9098,-5.9869,-6.0639,-6.1924,-6.2548,-6.278,-6.278,-6.278,-6.278,-6.278,-6.278,-6.278,-6.278,-6.3209,-6.3539,-6.3539,-6.3539,-6.3686,-6.4163,-6.3466,-6.311,-6.409,-6.3441,-6.278,-6.278,-6.278,-6.278,-6.278,-6.278,-6.278,-6.278,-6.278,-6.278,-6.278,-6.278,-6.278,-6.278,-6.3282,-6.3759,-6.4237,-6.3796,-6.3539,-6.3539,-6.3062,-6.278,-6.278,-6.278,-6.278,-6.278,-6.278,-6.278,-4.5521,0.0,0.0,0.0,0.0,0.0,0.0,0.0,0.0,0.0,0.0,0.0,0.0,0.0,0.0,0.0,0.0,0.0,0.0,0.0,0.0,0.0,0.0,0.0,0.0,0.0,0.0,-4.4601,-4.5223,-4.5993,-4.7039,-4.8269,-4.9133,-4.961,-5.0969,-5.1756,-5.1977,-5.2599,-5.2915,-5.2893,-5.2196,-5.1814,-5.185,-5.3111,-5.3508,-5.3448,-5.6022,-5.7005,-5.6859,-5.7666,-5.7997,-5.7997,-5.7997,-5.7997,-5.7997,-5.7997,-5.7997,-5.7997,-5.7997,-5.7881,-5.7982,-5.9821,-6.0262,-6.0456,-6.2253,-6.278,-6.278,-6.278,-6.278,-6.278,-6.278,-6.278,-6.278,-6.278,-6.3466,-6.409,-6.409,-6.4273,-6.4604,-6.5191,-6.4347,-6.3844,-6.5081,-6.4127,-6.3246,-6.3466,-6.3319,-6.3172,-6.3172,-6.2952,-6.278,-6.278,-6.278,-6.278,-6.278,-6.3025,-6.3246,-6.3466,-6.409,-6.4677,-6.5301,-6.4751,-6.442,-6.442,-6.3613,-6.3172,-6.3172,-6.289,-6.278,-6.278,-6.278,-6.278,0.0,0.0,0.0,-4.4784,0.0,0.0,0.0,0.0,-4.3664,0.0,0.0,0.0,0.0,0.0,0.0,0.0,0.0,0.0,0.0,0.0,0.0,0.0,0.0,0.0,0.0,0.0,0.0,-4.451,-4.4638,-4.537,-4.7003,-4.7149,-4.7939,-4.9537,-5.0398,-5.1206,-5.1977,-5.2073,-5.2136,-5.2136,-5.1444,-5.1138,-5.1235,-5.3526,-5.4086,-5.3484,-5.6606,-5.7519,-5.6859,-5.7666,-5.7997,-5.7997,-5.7997,-5.7997,-5.7997,-5.7997,-5.7997,-5.7997,-5.7997,-5.7522,-5.7293,-5.964,-5.9928,-5.976,-6.2091,-6.278,-6.278,-6.278,-6.278,-6.278,-6.278,-6.278,-6.278,-6.278,-6.3466,-6.409,-6.409,-6.4714,-6.5264,-6.5301,-6.5264,-6.5264,-6.5301,-6.4604,-6.431,-6.5118,-6.4567,-6.4053,-6.4053,-6.3319,-6.278,-6.278,-6.278,-6.278,-6.278,-6.3576,-6.4383,-6.5191,-6.5264,-6.5264,-6.5301,-6.5301,-6.5264,-6.5264,-6.4457,-6.4053,-6.4053,-6.3209,-6.278,-6.278,-6.278,-6.278,0.0,0.0,-4.6887,-4.5635,0.0,0.0,0.0,0.0,0.0,0.0,0.0,0.0,0.0,0.0,0.0,0.0,0.0,0.0,0.0,0.0,0.0,0.0,0.0,0.0,0.0,0.0,0.0,-4.3797,-4.4326,-4.515,-4.625,-4.6819,-4.7865,-4.9537,-5.0362,-5.1206,-5.1977,-5.2556,-5.2576,-5.2089,-5.1419,-5.1131,-5.12,-5.2523,-5.3233,-5.357,-5.6171,-5.6808,-5.6159,-5.7461,-5.7726,-5.7327,-5.7797,-5.7997,-5.7997,-5.7997,-5.7997,-5.7997,-5.7997,-5.7821,-5.7934,-5.9797,-6.0237,-6.037,-6.2253,-6.278,-6.278,-6.278,-6.278,-6.278,-6.278,-6.3246,-6.3649,-6.3649,-6.4714,-6.5705,-6.5705,-6.5888,-6.6256,-6.6769,-6.6035,-6.5632,-6.6696,-6.6219,-6.5595,-6.5338,-6.4604,-6.409,-6.409,-6.3356,-6.278,-6.278,-6.278,-6.3025,-6.3613,-6.442,-6.5228,-6.6035,-6.6109,-6.6329,-6.688,-6.6366,-6.6109,-6.6109,-6.5301,-6.4897,-6.4897,-6.4053,-6.3649,-6.3649,-6.3062,-6.278,-4.6075,-4.6989,0.0,-4.6075,-4.6244,0.0,-4.4953,0.0,0.0,0.0,0.0,0.0,0.0,0.0,0.0,0.0,0.0,0.0,0.0,0.0,0.0,0.0,0.0,0.0,0.0,0.0,-4.3323,-4.3394,-4.3923,-4.471,0.0,0.0,-4.7572,-4.9537,-5.0362,-5.1206,-5.1977,-5.2302,-5.2219,-5.1716,-5.0796,-5.0506,-5.0832,-5.1919,-5.2795,-5.3589,-5.5601,-5.6204,-5.5808,-5.7054,-5.7327,-5.6964,-5.7726,-5.7997,-5.7997,-5.7997,-5.7997,-5.7997,-5.7997,-5.8004,-5.83,-5.987,-6.042,-6.0747,-6.2327,-6.278,-6.2743,-6.2475,-6.2585,-6.2732,-6.2438,-6.3246,-6.409,-6.409,-6.5338,-6.6512,-6.6512,-6.6733,-6.7063,-6.7577,-6.6843,-6.6476,-6.7504,-6.7247,-6.6733,-6.6219,-6.5485,-6.4934,-6.4934,-6.3943,-6.3282,-6.3282,-6.3282,-6.3723,-6.4861,-6.5448,-6.6072,-6.688,-6.6916,-6.7136,-6.7677,-6.7173,-6.721,-6.776,-6.6439,-6.6035,-6.6586,-6.4897,-6.409,-6.4053,-6.3209,-6.278]},{"header":{"parameterUnit":"m.s-1","parameterCategory":1,"la1":30.6,"la2":29.2853,"lo1":-89.7004,"lo2":-87.6739,"dy":0.0162,"dx":0.0183,"nx":112,"ny":82,"refTime":"2023-03-22T18:00:00:Z","depth":0,"parameterNumber":3,"parameterNumberName":"V-component_of_WINDS"},"data":[0.0,0.0,0.0,0.0,0.0,0.0,0.0,0.0,0.0,0.0,0.0,0.0,0.0,0.0,0.0,0.0,0.0,0.0,0.0,0.0,0.0,0.0,0.0,0.0,0.0,0.0,0.0,0.0,0.0,0.0,0.0,0.0,0.0,0.0,0.0,0.0,0.0,0.0,0.0,0.0,0.0,0.0,0.0,0.0,0.0,0.0,0.0,0.0,0.0,0.0,0.0,0.0,0.0,0.0,0.0,0.0,0.0,0.0,0.0,0.0,0.0,0.0,0.0,0.0,0.0,0.0,0.0,0.0,0.0,0.0,0.0,0.0,0.0,0.0,0.0,0.0,0.0,0.0,0.0,0.0,0.0,0.0,0.0,0.0,0.0,0.0,0.0,0.0,0.0,0.0,0.0,1.3755,1.615,1.7341,1.6754,1.686,1.6589,1.5715,0.0,0.0,0.0,0.0,0.0,0.0,0.0,0.0,0.0,0.0,0.0,0.0,0.0,0.0,0.0,0.0,0.0,0.0,0.0,0.0,0.0,0.0,0.0,0.0,0.0,0.0,0.0,0.0,0.0,0.0,0.0,0.0,0.0,0.0,0.0,0.0,0.0,0.0,0.0,0.0,0.0,0.0,0.0,0.0,0.0,0.0,0.0,0.0,0.0,0.0,0.0,0.0,0.0,0.0,0.0,0.0,0.0,0.0,0.0,0.0,0.0,0.0,0.0,0.0,0.0,0.0,0.0,0.0,0.0,0.0,0.0,0.0,0.0,0.0,0.0,0.0,0.0,0.0,0.0,0.0,0.0,0.0,0.0,0.0,0.0,0.0,0.0,0.0,0.0,0.0,0.0,0.0,0.0,0.0,0.0,0.0,0.0,0.0,0.0,0.0,0.0,0.0,0.0,0.0,1.3009,1.5629,1.6903,1.7341,1.6754,1.6286,1.6021,1.6039,0.0,0.0,0.0,0.0,0.0,0.0,0.0,0.0,0.0,0.0,0.0,0.0,0.0,0.0,0.0,0.0,0.0,0.0,0.0,0.0,0.0,0.0,0.0,0.0,0.0,0.0,0.0,0.0,0.0,0.0,0.0,0.0,0.0,0.0,0.0,0.0,0.0,0.0,0.0,0.0,0.0,0.0,0.0,0.0,0.0,0.0,0.0,0.0,0.0,0.0,0.0,0.0,0.0,0.0,0.0,0.0,0.0,0.0,0.0,0.0,0.0,0.0,0.0,0.0,0.0,0.0,0.0,0.0,0.0,0.0,0.0,0.0,0.0,0.0,0.0,0.0,0.0,0.0,0.0,0.0,0.0,0.0,0.0,0.0,0.0,0.0,0.0,0.0,0.0,0.0,0.0,0.0,0.0,0.0,0.0,0.0,0.0,0.0,0.0,0.0,0.0,0.0,0.0,1.3555,1.4584,1.6353,1.7058,1.7219,1.674,1.6019,1.5724,1.6081,1.5606,0.0,0.0,0.0,0.0,0.0,0.0,0.0,0.0,0.0,0.0,0.0,0.0,0.0,0.0,0.0,0.0,0.0,0.0,0.0,0.0,0.0,0.0,0.0,0.0,0.0,0.0,0.0,0.0,0.0,0.0,0.0,0.0,0.0,0.0,0.0,0.0,0.0,0.0,0.0,0.0,0.0,0.0,0.0,0.0,0.0,0.0,0.0,0.0,0.0,0.0,0.0,0.0,0.0,0.0,0.0,0.0,0.0,0.0,0.0,0.0,0.0,0.0,0.0,0.0,0.0,0.0,0.0,0.0,0.0,0.0,0.0,0.0,0.0,0.0,0.0,0.0,0.0,0.0,0.0,0.0,0.0,0.0,0.0,0.0,0.0,0.0,0.0,0.0,0.0,0.0,0.0,0.0,0.0,0.0,0.0,0.0,0.0,0.0,0.0,0.0,0.0,0.0,1.4734,1.5516,1.6486,1.6874,1.6978,1.6633,1.5792,1.5581,1.6178,1.5287,0.0,0.0,0.0,0.0,0.0,0.0,0.0,0.0,0.0,0.0,0.0,0.0,0.0,0.0,0.0,0.0,0.0,0.0,0.0,0.0,0.0,0.0,0.0,0.0,0.0,0.0,0.0,0.0,0.0,0.0,0.0,0.0,0.0,0.0,0.0,0.0,0.0,0.0,0.0,0.0,0.0,0.0,0.0,0.0,0.0,0.0,0.0,0.0,0.0,0.0,0.0,0.0,0.0,0.0,0.0,0.0,0.0,0.0,0.0,0.0,0.0,0.0,0.0,0.0,0.0,0.0,0.0,0.0,0.0,0.0,0.0,0.0,0.0,0.0,0.0,0.0,0.0,0.0,0.0,0.0,0.0,0.0,0.0,0.0,0.0,0.0,0.0,0.0,0.0,0.0,0.0,0.0,0.0,0.0,0.0,0.0,0.0,0.0,0.0,0.0,0.0,0.0,1.4734,1.5357,1.6206,1.6567,1.662,1.6326,1.5544,1.5459,1.6518,1.5456,0.0,0.0,0.0,0.0,0.0,0.0,0.0,0.0,0.0,0.0,0.0,0.0,0.0,0.0,0.0,0.0,0.0,0.0,0.0,0.0,0.0,0.0,0.0,0.0,0.0,0.0,0.0,0.0,0.0,0.0,0.0,0.0,0.0,0.0,0.0,0.0,0.0,0.0,0.0,0.0,0.0,0.0,0.0,0.0,0.0,0.0,0.0,0.0,0.0,0.0,0.0,0.0,0.0,0.0,0.0,0.0,0.0,0.0,0.0,0.0,0.0,0.0,0.0,0.0,0.0,0.0,0.0,0.0,0.0,0.0,0.0,0.0,0.0,0.0,0.0,0.0,0.0,0.0,0.0,0.0,0.0,0.0,0.0,0.0,0.0,0.0,0.0,0.0,0.0,0.0,0.0,0.0,0.0,0.0,0.0,0.0,0.0,0.0,0.0,0.0,0.0,0.0,1.5003,1.5498,0.0,1.6366,1.6393,1.6335,1.5517,1.5445,1.6546,0.0,0.0,0.0,0.0,0.0,0.0,0.0,0.0,0.0,0.0,0.0,0.0,0.0,0.0,0.0,0.0,0.0,0.0,0.0,0.0,0.0,0.0,0.0,0.0,0.0,0.0,0.0,0.0,0.0,0.0,0.0,0.0,0.0,0.0,0.0,0.0,0.0,0.0,0.0,0.0,0.0,0.0,0.0,0.0,0.0,0.0,0.0,0.0,0.0,0.0,0.0,0.0,0.0,0.0,0.0,0.0,0.0,0.0,0.0,0.0,0.0,0.0,0.0,0.0,0.0,0.0,0.0,0.0,0.0,0.0,0.0,0.0,0.0,0.0,0.0,0.0,0.0,0.0,0.0,0.0,0.0,0.0,0.0,0.0,0.0,0.0,0.0,0.0,0.0,0.0,0.0,0.0,0.0,0.0,0.0,0.0,0.0,0.0,0.0,0.0,0.0,0.0,1.4904,1.5048,1.5378,0.0,1.6126,1.6099,1.6005,1.5236,1.5246,1.6486,0.0,0.0,0.0,0.0,0.0,0.0,0.0,0.0,0.0,0.0,0.0,0.0,0.0,0.0,0.0,0.0,0.0,0.0,0.0,0.0,0.0,0.0,0.0,0.0,0.0,0.0,0.0,0.0,0.0,0.0,0.0,0.0,0.0,0.0,0.0,0.0,0.0,0.0,0.0,0.0,0.0,0.0,0.0,0.0,0.0,0.0,0.0,0.0,0.0,0.0,0.0,0.0,0.0,0.0,0.0,0.0,0.0,0.0,0.0,0.0,0.0,0.0,0.0,0.0,0.0,0.0,0.0,0.0,0.0,0.0,0.0,0.0,0.0,0.0,0.0,0.0,0.0,0.0,0.0,0.0,0.0,0.0,0.0,0.0,0.0,0.0,0.0,0.0,0.0,0.0,0.0,0.0,0.0,0.0,0.0,0.0,0.0,0.0,0.0,0.0,0.0,0.0,1.4991,1.477,1.4812,1.5691,1.5784,1.5712,1.5418,1.4589,1.4802,0.0,0.0,0.0,0.0,0.0,0.0,0.0,0.0,0.0,0.0,0.0,0.0,0.0,0.0,0.0,0.0,0.0,0.0,0.0,0.0,0.0,0.0,0.0,0.0,0.0,0.0,0.0,0.0,0.0,0.0,0.0,0.0,0.0,0.0,0.0,0.0,0.0,0.0,0.0,0.0,0.0,0.0,0.0,0.0,0.0,0.0,0.0,0.0,0.0,0.0,0.0,0.0,0.0,0.0,0.0,0.0,0.0,0.0,0.0,0.0,0.0,0.0,0.0,0.0,0.0,0.0,0.0,0.0,0.0,0.0,0.0,0.0,0.0,0.0,0.0,0.0,0.0,0.0,0.0,0.0,0.0,0.0,0.0,0.0,0.0,0.0,0.0,0.0,0.0,0.0,0.0,0.0,0.0,0.0,0.0,0.0,0.0,0.0,0.0,0.0,0.0,0.0,0.0,1.5327,1.4906,1.4812,1.5691,1.5645,1.5795,1.6464,1.5055,1.5347,1.8221,0.0,0.0,0.0,0.0,0.0,0.0,0.0,0.0,0.0,0.0,0.0,0.0,0.0,0.0,0.0,0.0,0.0,0.0,0.0,0.0,0.0,0.0,0.0,0.0,0.0,0.0,0.0,0.0,0.0,0.0,0.0,0.0,0.0,0.0,0.0,0.0,0.0,0.0,0.0,0.0,0.0,0.0,0.0,0.0,0.0,0.0,0.0,0.0,0.0,0.0,0.0,0.0,0.0,0.0,0.0,0.0,0.0,0.0,0.0,0.0,0.0,0.0,0.0,0.0,0.0,0.0,0.0,0.0,0.0,0.0,0.0,0.0,0.0,0.0,0.0,0.0,0.0,0.0,0.0,0.0,0.0,0.0,0.0,0.0,0.0,0.0,0.0,0.0,0.0,0.0,0.0,0.0,0.0,0.0,0.0,0.0,0.0,0.0,0.0,0.0,0.0,0.0,1.5439,1.4851,1.4683,1.5565,1.5498,1.5741,1.6581,1.5333,1.5705,1.8498,0.0,0.0,0.0,0.0,0.0,0.0,0.0,0.0,0.0,0.0,0.0,0.0,0.0,0.0,0.0,0.0,0.0,0.0,0.0,0.0,0.0,0.0,0.0,0.0,0.0,0.0,0.0,0.0,0.0,0.0,0.0,0.0,0.0,0.0,0.0,0.0,0.0,0.0,0.0,0.0,0.0,0.0,0.0,0.0,0.0,0.0,0.0,0.0,0.0,0.0,0.0,0.0,0.0,0.0,0.0,0.0,0.0,0.0,0.0,0.0,0.0,0.0,0.0,0.0,0.0,0.0,0.0,0.0,0.0,0.0,0.0,0.0,0.0,0.0,0.0,0.0,0.0,0.0,0.0,0.0,0.0,0.0,0.0,0.0,0.0,0.0,0.0,0.0,0.0,0.0,0.0,0.0,0.0,0.0,0.0,0.0,0.0,0.0,0.0,0.0,0.0,0.0,1.5411,1.4702,1.4472,1.5521,1.5562,1.5743,1.6407,1.5699,1.603,1.8026,0.0,0.0,0.0,0.0,0.0,0.0,0.0,0.0,0.0,0.0,0.0,0.0,0.0,0.0,0.0,0.0,0.0,0.0,0.0,0.0,0.0,0.0,0.0,0.0,0.0,0.0,0.0,0.0,0.0,0.0,0.0,0.0,0.0,0.0,0.0,0.0,0.0,0.0,0.0,0.0,0.0,0.0,0.0,0.0,0.0,0.0,0.0,0.0,0.0,0.0,0.0,0.0,0.0,0.0,0.0,0.0,0.0,0.0,0.0,0.0,1.4568,0.0,0.0,0.0,0.0,0.0,0.0,0.0,0.0,0.0,0.0,0.0,0.0,0.0,0.0,0.0,0.0,0.0,0.0,0.0,0.0,0.0,0.0,0.0,0.0,0.0,0.0,0.0,0.0,0.0,0.0,0.0,0.0,0.0,0.0,0.0,0.0,0.0,0.0,0.0,0.0,0.0,1.5411,1.4702,1.49,1.6999,1.671,1.7108,1.9016,1.7206,1.7128,1.9866,1.7937,0.0,0.0,0.0,0.0,0.0,0.0,0.0,0.0,0.0,0.0,0.0,0.0,0.0,0.0,0.0,0.0,0.0,0.0,0.0,0.0,0.0,0.0,0.0,0.0,0.0,0.0,0.0,0.0,0.0,0.0,0.0,0.0,0.0,0.0,0.0,0.0,0.0,0.0,0.0,0.0,0.0,0.0,0.0,0.0,0.0,0.0,0.0,0.0,0.0,0.0,0.0,0.0,0.0,0.0,0.0,0.0,0.0,0.0,0.0,0.0,1.5016,0.0,0.0,0.0,0.0,0.0,0.0,0.0,0.0,0.0,0.0,0.0,0.0,0.0,0.0,0.0,0.0,0.0,0.0,0.0,0.0,0.0,0.0,0.0,0.0,0.0,0.0,0.0,0.0,0.0,0.0,0.0,0.0,0.0,0.0,0.0,0.0,0.0,0.0,0.0,0.0,1.5871,1.4884,1.489,1.6966,1.6847,1.74,1.9342,1.8105,1.8013,1.9847,1.8788,0.0,0.0,0.0,0.0,0.0,0.0,0.0,0.0,0.0,0.0,0.0,0.0,0.0,0.0,0.0,0.0,0.0,0.0,0.0,0.0,0.0,0.0,0.0,0.0,0.0,0.0,0.0,0.0,0.0,0.0,0.0,0.0,0.0,0.0,0.0,0.0,0.0,0.0,0.0,0.0,0.0,0.0,0.0,0.0,0.0,0.0,0.0,0.0,0.0,0.0,0.0,0.0,0.0,1.7208,1.7525,1.8005,1.765,1.741,1.7204,1.6333,1.569,1.5229,1.5689,0.0,0.0,0.0,0.0,0.0,0.0,0.0,0.0,0.0,0.0,0.0,0.0,0.0,0.0,0.0,0.0,0.0,0.0,0.0,0.0,0.0,0.0,0.0,0.0,1.9566,1.8743,0.0,0.0,0.0,0.0,0.0,0.0,0.0,0.0,0.0,0.0,0.0,0.0,1.6342,1.5127,1.4963,1.7077,1.7064,1.7547,1.9239,1.8866,1.8769,1.928,1.9531,1.9081,0.0,0.0,0.0,0.0,0.0,0.0,0.0,0.0,0.0,0.0,0.0,0.0,0.0,0.0,0.0,0.0,0.0,0.0,0.0,0.0,0.0,0.0,0.0,0.0,0.0,0.0,0.0,0.0,0.0,0.0,0.0,0.0,1.4072,1.3721,0.0,0.0,0.0,0.0,0.0,0.0,0.0,0.0,0.0,0.0,0.0,0.0,0.0,1.7176,1.7176,1.8314,1.8523,1.7787,1.836,1.8546,1.8413,1.8063,1.7929,1.7849,1.7526,0.0,1.6402,1.5915,0.0,0.0,0.0,0.0,0.0,0.0,0.0,0.0,0.0,0.0,0.0,0.0,0.0,0.0,0.0,0.0,0.0,0.0,0.0,0.0,0.0,0.0,1.9327,2.0211,2.0367,1.9948,0.0,1.7749,1.7038,1.7075,1.6091,0.0,0.0,0.0,0.0,0.0,0.0,0.0,1.6579,1.5375,1.5922,1.9765,1.8866,1.8769,2.073,2.0159,1.9577,1.9316,1.8984,1.8466,1.771,1.6898,0.0,0.0,0.0,0.0,0.0,0.0,0.0,0.0,0.0,0.0,0.0,0.0,0.0,0.0,0.0,0.0,0.0,0.0,0.0,0.0,0.0,0.0,0.0,0.0,0.0,0.0,0.0,0.0,0.0,1.5172,1.5273,1.4768,1.5606,1.6063,0.0,0.0,0.0,0.0,0.0,0.0,0.0,0.0,0.0,1.7571,1.8011,1.8193,1.8034,1.8739,1.898,1.8764,1.9202,1.9439,1.9466,1.9274,1.9221,1.9208,1.9132,1.8626,1.7887,1.6799,1.6304,1.6176,0.0,0.0,0.0,0.0,1.6625,1.7251,1.7743,1.8135,0.0,1.9036,0.0,0.0,0.0,0.0,0.0,0.0,0.0,0.0,0.0,0.0,2.1867,2.2841,2.273,2.2091,2.1179,2.0041,1.9025,0.0,1.7933,1.7741,1.8541,0.0,0.0,0.0,0.0,1.588,1.6301,1.5864,1.6498,1.9022,1.9239,1.9668,2.078,2.0273,1.9746,1.9316,1.8851,1.8129,1.7128,1.7279,1.7018,0.0,0.0,0.0,0.0,0.0,0.0,0.0,0.0,0.0,0.0,0.0,0.0,0.0,0.0,0.0,0.0,0.0,0.0,0.0,0.0,0.0,0.0,0.0,0.0,0.0,0.0,0.0,0.0,1.5807,1.6164,1.5476,1.6439,1.6902,0.0,0.0,0.0,0.0,0.0,0.0,1.7335,1.7964,1.8452,1.8632,1.8944,1.9077,1.8931,1.9305,1.9559,1.9765,2.0,2.0241,2.0454,2.0374,2.0347,2.0347,2.0267,1.9773,1.8918,1.78,1.7023,1.6513,1.6405,1.6507,1.6718,1.6672,1.7004,1.7553,1.7974,1.8799,1.9677,2.0063,2.0712,2.1217,2.0439,0.0,0.0,0.0,0.0,2.1841,2.1707,2.2216,2.2888,2.3419,2.3242,2.2658,2.1777,2.1554,2.1108,0.0,1.9204,1.9349,1.9918,0.0,0.0,0.0,0.0,1.6354,1.6713,1.661,1.7255,1.9084,1.9717,2.0214,2.0722,2.0234,1.9746,1.9316,1.8851,1.7999,1.6645,1.7189,1.681,1.5342,0.0,0.0,0.0,0.0,0.0,0.0,0.0,0.0,0.0,0.0,0.0,0.0,0.0,0.0,0.0,0.0,0.0,0.0,0.0,0.0,0.0,0.0,0.0,0.0,0.0,0.0,0.0,0.0,0.0,1.4965,1.6408,0.0,0.0,0.0,0.0,1.6849,1.7405,1.7912,1.8291,1.8359,1.8686,1.9336,1.9586,1.9867,2.0087,2.0708,2.0869,2.0615,2.0909,2.1056,2.1056,2.0775,2.0655,2.0641,2.0361,1.9893,1.935,1.8693,1.813,1.7696,1.7455,1.7577,1.7859,1.7492,1.8224,1.9425,1.9084,1.9872,2.1279,2.235,2.3317,2.3624,2.1567,2.2203,0.0,0.0,2.2203,2.3352,2.0876,2.0681,2.0785,1.9587,1.9952,2.0216,1.8984,2.1153,2.2533,0.0,1.8873,1.8768,1.917,0.0,1.8659,1.7202,1.7134,1.7538,1.8397,1.7692,1.8487,2.195,2.0916,2.0301,2.111,2.041,1.9746,1.9316,1.8851,1.7999,1.6645,1.5806,1.5369,1.5381,1.4819,0.0,0.0,0.0,0.0,0.0,0.0,0.0,0.0,0.0,0.0,0.0,0.0,0.0,0.0,0.0,0.0,0.0,0.0,0.0,0.0,0.0,0.0,0.0,0.0,0.0,0.0,0.0,0.0,1.7079,1.8177,0.0,1.8304,1.8202,1.8165,1.8165,1.8578,1.8901,1.9047,1.9717,2.0187,2.0201,2.0743,2.0882,2.0802,2.1002,2.1056,2.0962,2.1056,2.1109,2.1109,2.1002,2.0855,2.0668,2.0561,2.0187,1.9626,1.9426,1.876,1.7914,1.7655,1.7637,1.7753,1.7764,1.8287,1.9031,2.0008,2.1299,2.28,2.4572,2.4535,2.3736,2.3682,2.4121,2.4408,2.3339,2.389,2.4497,2.3589,2.3021,2.2754,2.2899,2.2302,2.1523,2.0904,2.208,2.2454,1.9872,2.043,2.1475,2.1887,2.1405,2.0666,1.9787,1.8732,1.7925,1.7708,1.7401,1.7641,1.8847,1.8969,1.8998,1.9011,1.8092,1.7479,1.7301,1.6739,1.6193,1.5737,1.5637,1.5267,1.4638,1.487,1.5446,0.0,0.0,0.0,0.0,0.0,0.0,0.0,0.0,0.0,0.0,0.0,0.0,0.0,0.0,0.0,0.0,0.0,0.0,0.0,0.0,0.0,0.0,0.0,0.0,0.0,0.0,1.8427,1.8598,1.9505,2.006,1.9747,1.956,1.9499,1.9499,1.9891,2.0207,2.0241,2.0989,2.1323,2.1122,2.1467,2.1521,2.1256,2.1162,2.1109,2.1109,2.1109,2.1109,2.1109,2.1109,2.1002,2.0815,2.0722,2.0401,1.9933,1.984,1.9279,1.8477,1.8263,1.8183,1.821,1.841,1.8611,1.9036,2.0694,2.2189,2.3704,2.5481,2.5552,2.4913,2.4865,2.4841,2.4649,2.3736,2.3714,2.3936,2.3936,2.3082,2.2425,2.3499,2.2595,2.152,2.1322,2.1925,2.1898,1.9906,2.1059,2.226,2.1983,2.1312,2.0692,2.0131,1.8825,1.784,1.7614,1.7477,1.7477,1.7672,1.8097,1.8275,1.7912,1.7206,1.6658,1.6371,1.5959,1.5534,1.5024,1.5638,1.5557,1.4637,1.5217,1.596,1.6865,0.0,0.0,0.0,0.0,0.0,0.0,0.0,0.0,0.0,0.0,0.0,0.0,0.0,0.0,0.0,0.0,0.0,0.0,0.0,0.0,0.0,0.0,0.0,1.6995,1.833,1.9302,1.9265,2.0394,2.0743,1.9897,2.0335,2.0722,2.0722,2.132,2.1762,2.1977,2.1991,2.1991,2.1977,2.1762,2.1614,2.1601,2.1256,2.1109,2.1109,2.1109,2.1109,2.1109,2.1109,2.1109,2.1082,2.0788,2.0494,2.0201,1.9907,1.9626,1.943,1.943,1.943,1.943,1.943,1.943,1.9649,2.1088,2.2589,2.3978,2.5021,2.6371,2.7149,2.4973,2.426,2.3865,2.2148,2.1693,2.1693,2.1693,2.044,1.9486,2.0702,2.0392,1.9884,1.9915,2.0646,2.0899,1.977,2.0477,2.073,1.9107,1.8835,1.8613,1.8002,1.7447,0.0,1.838,1.801,1.8072,1.8973,1.8611,1.8206,1.7945,1.7852,1.7449,1.6648,1.6635,1.6054,1.4647,1.5695,1.6047,1.5482,1.5777,1.6108,1.6412,0.0,0.0,0.0,0.0,0.0,0.0,0.0,0.0,0.0,0.0,0.0,0.0,0.0,0.0,0.0,0.0,0.0,0.0,0.0,0.0,0.0,0.0,1.8155,1.8564,1.9388,2.0201,2.0889,2.1451,2.1697,2.1641,2.1668,2.163,2.163,2.1964,2.2124,2.1991,2.2178,2.2111,2.1748,2.1655,2.1443,2.1229,2.1149,2.1109,2.1109,2.1109,2.1109,2.1109,2.1109,2.0989,2.0775,2.0481,2.0187,1.9893,1.9599,1.9497,1.943,1.943,1.943,1.943,1.943,2.0097,2.1031,2.1472,2.2377,2.359,2.4951,2.4774,2.4088,2.4268,2.3597,2.2706,2.1911,2.1693,2.1693,2.1693,2.044,1.9475,2.0492,1.9606,1.9036,2.0566,2.0428,2.0161,2.0702,2.0342,1.9872,1.941,1.9303,1.9512,2.0231,1.9467,0.0,2.0342,1.8856,1.7933,1.8515,1.7478,1.6712,1.6624,1.6019,1.5391,1.4849,1.4431,1.4311,1.4569,1.4272,1.4496,1.5323,1.6467,1.6974,0.0,0.0,0.0,0.0,0.0,0.0,0.0,0.0,0.0,0.0,0.0,0.0,0.0,0.0,0.0,0.0,0.0,0.0,0.0,0.0,0.0,0.0,1.851,1.9469,2.0321,2.0658,2.1069,2.183,2.2178,2.2418,2.2592,2.2458,2.2352,2.2352,2.2512,2.2525,2.2365,2.2512,2.2392,2.1937,2.1804,2.159,2.1296,2.1176,2.1109,2.1109,2.1109,2.1109,2.1109,2.1109,2.1015,2.0842,2.0548,2.0254,1.996,1.9666,1.9479,0.0,0.0,0.0,0.0,0.0,1.9924,2.0702,2.0702,2.1433,2.2528,2.3331,2.3245,2.2789,2.2668,2.21,2.1254,2.0271,1.9973,2.0128,2.0692,1.9592,1.8751,2.0361,1.9413,1.8721,2.1018,2.007,1.9268,2.0989,1.9906,0.0,1.9405,1.9497,1.9633,2.0042,1.9314,1.8902,1.9268,1.7902,1.6987,1.7135,1.6363,1.575,1.5627,1.5353,0.0,0.0,0.0,1.4249,1.5088,1.5197,0.0,0.0,0.0,1.7307,1.7515,0.0,0.0,0.0,1.569,1.5645,0.0,0.0,0.0,0.0,0.0,0.0,0.0,0.0,0.0,0.0,0.0,0.0,0.0,0.0,0.0,0.0,1.9676,2.0735,2.1871,2.1844,2.1897,2.2405,2.2699,2.2928,2.2928,2.2928,2.2928,2.2928,2.2928,2.2928,2.2928,0.0,0.0,0.0,0.0,2.1764,2.1574,2.1243,2.1109,2.1109,2.1109,2.1109,2.1109,2.1109,2.1109,2.1096,2.0802,2.0521,2.0254,1.9973,1.9679,1.9412,1.9386,1.943,1.943,1.943,1.943,1.943,1.943,0.0,0.0,2.1033,2.1705,2.225,2.068,2.0114,1.9647,1.8071,1.7582,1.7898,1.9072,1.8274,1.7742,2.0022,1.9244,1.859,2.0852,1.9346,1.8272,2.0629,1.936,1.8226,1.9314,1.9405,1.9131,1.8611,1.8056,1.7498,1.6998,1.6386,1.596,1.5749,0.0,0.0,1.5219,1.5525,1.5788,1.5964,1.5205,1.5132,1.5967,1.7179,1.8473,1.9773,1.7802,1.7237,1.8191,1.6079,1.5196,1.5404,1.6346,1.6425,0.0,0.0,0.0,0.0,0.0,0.0,0.0,0.0,0.0,0.0,0.0,0.0,0.0,0.0,0.0,1.9312,2.0281,2.1269,2.2205,2.2498,2.2713,2.2766,2.2832,2.2928,2.2928,2.2928,2.2928,2.2928,2.2928,2.2928,2.2928,2.2418,2.2124,2.2071,2.155,2.1256,2.1189,2.1136,2.1109,2.1109,0.0,0.0,2.1109,2.1109,2.1109,2.1096,2.0802,2.0641,2.0575,2.0267,1.9973,1.9693,1.9452,1.943,1.943,1.943,1.943,1.943,1.943,1.9949,2.0649,2.0649,2.046,2.0171,1.9851,1.9002,0.0,1.7701,1.7582,1.7687,1.7937,1.7628,1.7295,1.7793,1.7415,1.733,1.8558,1.7654,1.7237,1.9409,1.9497,1.9222,1.9451,1.8688,1.8319,1.9177,1.8365,1.801,1.881,1.7994,1.7483,1.778,1.6958,1.6336,1.628,1.6137,1.5812,1.5239,1.4808,1.5173,1.656,1.6766,1.7001,1.728,1.6843,1.6726,1.6946,1.5857,1.5337,1.5391,1.5399,1.5413,0.0,0.0,0.0,0.0,0.0,0.0,0.0,0.0,0.0,0.0,0.0,1.7058,0.0,0.0,1.9323,2.0234,2.1159,2.1964,2.2552,2.2766,2.2928,2.2928,2.2928,2.2928,2.2928,2.2928,2.2928,2.2928,2.2928,2.2928,2.2928,2.2445,2.2138,2.1991,2.1563,2.1336,2.1336,2.1189,2.1189,2.1336,2.1176,2.1109,2.1109,2.1109,2.1109,2.1096,2.0962,2.0815,2.0655,2.0361,2.0067,1.9786,1.9639,1.9492,1.943,1.943,1.943,1.943,1.943,1.9426,1.9497,1.9497,1.9073,1.8603,1.8603,1.8146,1.7582,1.7582,1.7582,1.7582,1.7582,1.7475,1.742,1.742,1.7192,1.7186,1.8101,1.7358,1.7114,1.9268,1.9302,1.913,1.9608,1.8707,1.8052,1.8535,1.8102,1.7684,1.7669,1.7124,1.6857,1.7077,1.6574,1.6211,1.6211,1.6419,1.6109,1.5066,1.5848,1.6213,1.5903,1.633,1.6713,1.6907,1.631,1.6397,1.7146,1.6128,1.5618,1.5605,1.5471,1.5391,0.0,0.0,0.0,0.0,0.0,0.0,0.0,0.0,1.6718,1.6863,1.7388,1.797,1.8483,1.9499,2.0422,2.1069,2.1884,2.2539,2.2899,2.2899,2.2928,2.2928,2.2928,2.2928,2.2928,2.2928,2.2928,2.2928,2.2928,2.2928,2.2928,2.2579,2.2311,2.2071,2.179,2.1695,2.1695,2.1403,2.1376,2.1614,2.1309,2.1162,2.1109,2.1109,2.1109,2.1109,2.1109,2.0975,2.0735,2.0494,2.0227,1.996,1.9907,1.9706,1.9439,1.9444,1.943,1.943,1.943,1.9025,1.8571,1.8504,1.8116,1.7662,1.7595,1.7582,1.7582,1.7582,1.7582,1.7582,1.7582,1.7582,1.7582,1.7582,1.7447,1.7449,1.8089,1.7482,1.7285,1.8969,1.885,1.8664,1.9193,1.8684,1.8085,1.7744,1.7498,1.6951,1.5913,1.5784,1.5784,1.5784,1.5784,1.5784,1.5784,1.6373,1.6378,1.559,1.6876,1.7038,1.5576,1.6133,1.6593,1.6932,1.5966,1.6104,1.7326,1.6292,1.5784,1.5784,1.5784,1.5698,1.627,1.6012,1.5966,1.6173,1.6316,1.6631,0.0,0.0,1.8102,1.8239,1.8776,1.9219,1.9256,2.002,2.0851,2.1467,2.2017,2.2619,2.3193,2.3033,2.2928,2.2928,2.2928,2.2928,2.2928,2.2928,2.2928,2.2928,2.2928,2.2928,2.2928,2.2579,2.2405,2.2378,2.2084,2.1937,2.1937,2.1911,2.1777,2.1614,2.1588,2.1363,2.1109,2.1109,2.1109,2.1109,2.1109,2.1096,2.1056,2.1029,2.0842,2.0548,2.0281,2.0,1.972,1.9466,1.943,1.943,1.943,1.9145,1.8838,1.8571,1.8263,1.7889,1.7662,1.7582,1.7582,1.7582,1.7582,1.7582,1.7582,1.7582,1.7582,1.7582,1.7555,1.7501,1.736,1.7255,1.7109,1.705,1.7853,1.8198,1.7244,1.7824,1.829,1.7789,1.6763,1.5974,1.5832,1.5784,1.5784,1.5784,1.5784,1.5784,1.5784,1.5658,1.6086,1.7333,1.6349,1.6228,1.7333,1.643,1.5927,1.5954,1.5826,1.5839,1.6008,1.5879,1.5784,1.5784,1.5784,1.5758,1.5964,1.5965,0.0,0.0,1.6703,1.7357,1.7832,1.8372,1.8823,1.8991,1.9466,1.992,2.0094,2.0842,2.1523,0.0,2.2445,2.2966,2.3046,2.2939,2.2806,2.2619,2.2458,2.2418,2.2592,2.2766,2.2928,2.2928,2.2928,2.2928,2.2928,2.2579,2.2418,2.2418,2.2138,2.2071,2.2231,2.2071,2.1924,2.1804,2.1695,2.1403,2.1109,2.1109,2.1109,2.1109,2.1109,2.1109,2.1109,2.1109,2.0842,2.0401,2.0281,1.9947,1.9533,1.947,1.943,1.943,1.943,1.9172,1.8905,1.8784,1.8544,1.825,1.7943,1.7849,1.7809,1.7635,1.7582,1.7582,1.7582,1.7582,1.7582,1.7582,1.7582,1.7554,1.7259,1.734,1.7367,1.7072,1.7497,1.7756,1.7096,1.741,1.761,1.7176,1.6532,1.6019,1.5845,1.5784,1.5784,1.5784,1.5784,1.5784,1.5784,1.5712,1.5933,1.656,1.5994,1.5933,1.6574,1.6055,1.5784,1.5784,1.5784,1.5784,1.5784,1.5784,1.5784,1.5784,1.5784,1.5784,1.562,0.0,0.0,1.6435,1.726,1.8044,1.8266,1.8863,1.9448,1.9685,2.0067,2.0441,2.0735,2.1309,2.183,2.2071,2.2726,2.318,2.3113,2.2966,2.2752,2.2458,2.2164,2.2031,2.2164,2.2525,2.2779,2.2928,2.2928,2.2928,2.2928,2.2659,2.2539,2.2539,2.2338,2.2325,2.2539,2.2338,2.2191,2.2098,2.1817,2.1523,2.1229,2.1149,2.1109,2.1109,2.1109,2.1109,2.1109,2.1109,2.0855,2.0468,2.0388,2.0094,1.9765,1.9546,1.9439,1.943,1.943,1.9225,1.9025,1.8945,1.8784,1.8557,1.8263,1.8115,1.8103,1.7796,1.7716,1.7716,1.7716,1.7716,1.7729,1.7809,1.7836,1.7782,1.7621,1.7689,1.7769,1.7608,1.7742,1.7742,1.7448,1.7395,1.7261,1.6887,1.6647,1.6406,1.6112,1.6005,1.5925,1.5784,1.5784,1.5784,1.5784,1.5784,1.5784,1.5784,1.5784,1.5784,1.5784,1.5784,1.5784,1.5784,1.5784,1.5784,1.5784,1.5784,1.5784,1.5784,1.5784,1.5784,0.0,0.0,1.6522,1.7113,1.7898,1.8597,1.9243,1.976,2.0267,2.0575,2.0655,2.0748,2.1042,2.1122,2.1416,2.2271,2.2672,2.3086,2.3661,2.3303,2.2752,2.2458,2.2164,2.1884,0.0,2.2098,2.2552,2.2914,2.2928,2.2928,2.2928,2.2928,2.2846,2.2846,2.2914,2.2914,2.2846,2.2914,2.2699,2.2405,2.2111,2.1817,2.1601,2.1243,2.1109,2.1109,2.1109,2.1109,2.1109,2.1109,2.1096,2.1056,2.0775,2.0655,2.0561,2.0,1.9613,1.943,1.943,1.9417,1.9305,1.9011,1.8918,1.8851,1.8571,1.8477,1.8424,1.8062,1.7982,1.7982,1.7982,1.7982,1.8049,1.8397,1.8464,1.8464,1.845,1.8464,1.8464,1.845,1.8464,1.837,1.8009,1.7969,1.7822,1.7273,1.7179,1.7072,1.6714,1.6433,1.6152,1.5811,1.5784,1.5784,1.5784,1.5784,1.5784,1.5784,1.5784,1.5784,1.5784,1.5784,1.5784,1.5784,1.5784,1.5784,1.5784,1.5784,1.5784,1.5784,1.5784,1.5784,0.0,0.0,1.6967,1.7884,1.8601,1.9279,2.0054,2.0388,2.0548,2.0655,2.0322,2.005,2.0159,2.0334,2.0699,2.1416,2.2297,2.3008,2.314,2.334,2.314,2.2245,2.2044,0.0,0.0,0.0,0.0,2.2539,2.2565,2.2659,2.2914,2.2928,2.2928,2.2928,2.2928,2.2928,2.2928,2.2928,2.2712,2.2405,2.1924,2.155,2.1256,2.1149,2.1109,2.1109,2.1109,2.1109,2.1109,2.1109,2.1002,2.0815,2.0722,2.0548,2.0361,2.016,1.9907,1.9626,1.9439,1.943,1.9359,1.9252,1.9225,1.9158,1.8865,1.8784,1.8718,1.8424,1.8343,1.8343,1.8343,1.8343,1.837,1.8464,1.849,1.849,1.849,1.849,1.849,1.849,1.849,1.8464,1.8357,1.8343,1.813,1.7528,1.7101,1.682,1.6714,1.646,1.6233,1.6139,1.5952,1.5784,1.5784,1.5784,1.5784,1.5784,1.5784,1.5784,1.5784,1.5784,1.5784,1.5784,1.5784,1.5784,1.5784,1.5784,1.5784,1.5784,1.5784,1.5784,0.0,1.6987,1.7674,1.88,1.9479,1.9987,2.0548,2.0681,2.0588,2.0267,1.9748,1.9367,1.9423,1.941,1.971,2.0772,2.1561,2.231,2.2849,2.3172,2.3117,2.2512,2.2271,2.2111,0.0,0.0,0.0,2.2405,2.2619,2.2832,2.302,2.3033,2.3033,2.3033,2.2926,2.2928,2.2928,2.2928,2.2712,2.2418,2.2044,2.1657,2.1269,2.1269,2.1203,2.1109,2.1109,2.1109,2.1109,2.1109,2.1002,2.0828,2.0828,2.0708,2.0535,2.0428,2.0267,2.0054,1.9666,1.9452,1.943,1.943,1.943,1.939,1.9145,1.9078,1.9025,1.8731,1.8651,1.8651,1.8651,1.8651,1.8677,1.8784,1.8811,1.8811,1.8811,1.8811,1.8811,1.8811,1.8811,1.8771,1.8664,1.8464,1.8196,1.7809,1.7328,1.6941,1.6727,1.654,1.6393,1.6335,1.6005,1.5784,1.5784,1.5784,1.5784,1.5784,1.5784,1.5784,1.5784,1.5784,1.5784,1.5784,1.5784,1.5784,1.5784,1.5784,1.5784,1.5784,1.5784,1.5784,1.7273,1.7913,1.8671,1.9893,2.0454,2.0655,2.0655,2.0615,2.0347,1.9537,1.9036,1.8755,0.0,0.0,1.8495,2.0278,2.0653,2.1238,2.2724,2.2738,2.2754,0.0,0.0,0.0,0.0,0.0,0.0,2.2485,0.0,2.3313,2.3354,2.3354,2.3354,2.3354,2.306,2.2968,2.2886,2.2941,2.2712,2.2418,2.2418,2.2124,2.1641,2.1628,2.1403,2.1136,2.1122,2.1109,2.1109,2.1109,2.1109,2.1109,2.1109,2.1109,2.1082,2.0802,2.0695,2.0601,2.004,1.9639,1.9444,1.9444,1.943,1.943,1.943,1.943,1.9305,1.9025,1.8945,1.8945,1.8945,1.8945,1.9011,1.9305,1.943,1.943,1.943,1.943,1.943,1.943,1.943,1.9279,1.8998,1.8408,1.8009,1.8009,1.7796,1.7382,1.682,1.674,1.662,1.6326,1.6032,1.5798,1.5784,1.5784,1.5784,1.5784,1.5784,1.5784,1.5784,1.5784,1.5784,1.5784,1.5784,1.5784,1.5784,1.5784,1.5784,1.5784,1.5784,1.5784,1.8223,1.8942,1.9604,2.0361,2.0454,2.0347,2.0347,1.984,1.9243,1.8725,1.8206,1.7803,0.0,0.0,0.0,1.9722,2.0733,0.0,2.2741,2.3413,0.0,2.3354,0.0,2.3367,2.322,2.314,0.0,0.0,2.3153,2.318,2.3634,2.3661,2.3661,2.3661,2.3581,2.3434,2.3207,2.2979,2.2712,2.2418,2.2418,2.2231,2.1871,2.1722,2.1574,2.1494,2.1203,2.1109,2.1109,2.1109,2.1109,2.1109,2.1109,2.1109,2.1096,2.1029,2.0855,2.0655,2.0508,2.012,1.9693,1.9693,1.9546,1.943,1.943,1.943,1.9359,1.9279,1.9252,1.9252,1.9252,1.9252,1.9279,1.9403,1.943,1.943,1.943,1.943,1.943,1.943,1.943,1.9345,1.9265,1.8771,1.837,1.837,1.7929,1.7528,1.7382,1.7219,1.6978,1.662,1.6326,1.6072,1.5798,1.5784,1.5784,1.5784,1.5784,1.5784,1.5784,1.5784,1.5784,1.5784,1.5784,1.5784,1.5784,1.5784,1.5784,1.5784,1.5784,1.5784,1.9128,1.9824,2.0294,2.0748,2.0641,2.0294,1.9891,1.9287,1.8631,1.7716,1.7371,0.0,0.0,0.0,0.0,0.0,0.0,0.0,2.2498,2.324,2.3695,0.0,2.4048,0.0,2.4102,2.3981,2.4022,0.0,2.3794,2.3594,2.3941,2.3968,2.3968,2.3968,2.3834,2.3621,2.3327,2.3153,2.2913,2.2619,2.2619,2.2458,2.2164,2.2004,2.179,2.1601,0.0,2.1229,2.1109,2.1109,2.1109,2.1109,2.1109,2.1109,2.1109,2.1109,2.1002,2.0869,2.0869,2.0561,2.016,2.0027,1.988,1.9746,1.9746,1.9653,1.9559,1.9559,1.9466,1.943,1.943,1.943,1.943,1.943,1.943,1.943,1.943,1.943,1.943,1.943,1.943,1.943,1.943,1.8985,1.8677,1.8677,1.817,1.7782,1.7782,1.746,1.7139,1.6914,1.6576,1.6206,1.6046,1.5899,1.5784,1.5784,1.5784,1.5784,1.5784,1.5784,1.5784,1.5784,1.5784,1.5784,1.5784,1.5784,1.5784,1.5784,1.5784,1.5784,2.0,2.0508,2.0802,2.1042,2.0828,2.0315,1.9448,1.8919,1.8181,1.6745,0.0,1.6718,1.6538,0.0,1.7422,1.8655,0.0,2.0387,2.213,2.2753,2.3349,2.4476,2.4636,2.477,2.5104,2.4836,2.477,2.5117,2.4596,2.4262,2.4262,2.4262,2.4262,2.4262,2.3981,2.3701,2.3447,2.3407,2.3247,2.3048,2.2939,2.2792,2.2539,2.2458,2.2151,2.1735,2.1695,0.0,2.1229,2.1189,2.1162,2.1162,2.1122,2.1109,2.1109,2.1109,2.1109,2.1109,2.1109,2.0949,2.0681,2.0388,2.0267,2.0167,2.0167,2.0054,1.9853,1.9853,1.9679,1.9466,1.9439,1.9452,1.9466,1.9439,1.9426,1.9426,1.9426,1.9457,1.943,1.943,1.943,1.943,1.943,1.9118,1.8918,1.8918,1.8395,1.8049,1.8049,1.7582,1.7246,1.7206,1.6737,1.6402,1.6335,1.6032,1.5872,1.5784,1.5784,1.5784,1.5784,1.5824,1.5872,1.5784,1.5824,1.5824,1.5784,1.5784,1.5784,1.5784,1.5784,1.5784,2.0481,2.0815,2.1042,2.1096,2.0521,1.9765,1.9038,1.8128,0.0,0.0,0.0,1.6222,1.6373,1.6729,0.0,1.8914,0.0,0.0,0.0,0.0,2.3541,0.0,0.0,0.0,0.0,0.0,0.0,0.0,0.0,2.4556,2.4556,2.4556,2.4556,2.4556,2.4275,2.4102,2.4048,2.3808,2.3674,2.3607,2.3367,2.322,2.3153,2.2645,2.2365,2.2258,2.2017,0.0,2.1817,2.1577,2.1534,2.1521,2.1203,2.1109,2.1109,2.1109,2.1109,2.1109,2.1109,2.1082,2.0989,2.0695,2.0428,2.0167,2.0167,2.0201,2.016,2.016,2.012,2.0027,1.9786,1.9907,2.0027,1.9786,1.972,1.972,1.972,1.9533,1.943,1.943,1.943,1.943,1.943,1.9118,1.8918,1.8918,1.8637,1.841,1.841,1.7889,1.7474,1.7233,1.7112,1.6857,1.6362,1.6268,1.6086,1.5798,1.5784,1.5784,1.5784,1.6072,1.6086,1.5832,1.6072,1.6072,1.5784,1.5784,1.5784,1.5784,1.5784,1.5784,2.0775,2.1002,2.1109,2.1109,2.0334,1.9421,1.8687,0.0,0.0,0.0,1.598,1.6197,1.6197,0.0,0.0,0.0,0.0,0.0,0.0,0.0,0.0,0.0,0.0,0.0,0.0,0.0,0.0,0.0,0.0,2.4863,2.4863,2.4716,2.4636,2.4636,2.4502,2.4356,2.4209,2.4062,2.3915,2.3768,2.3474,2.3327,2.3313,2.2859,2.2565,2.2405,2.2271,0.0,2.1977,2.183,2.1842,2.1764,2.1617,2.147,2.1336,2.1336,2.1243,2.1109,2.1109,2.1109,2.1082,2.0949,2.0802,2.0695,2.0695,2.0588,2.0468,2.0468,2.0347,2.0201,2.0054,2.0134,2.0201,2.0054,1.9907,1.976,1.9613,1.9466,1.947,1.9559,1.9586,1.9639,1.9786,1.9573,1.9386,1.9386,1.8998,1.8718,1.8718,1.833,1.7943,1.7649,1.7393,1.7085,1.6804,1.6593,1.6433,1.6299,1.6286,1.6286,1.6286,1.642,1.6433,1.6286,1.6273,1.6206,1.6059,1.5899,1.5784,1.5784,1.5992,1.6059,2.0855,2.1069,2.1109,2.1109,2.0187,1.9085,1.845,1.728,0.0,0.0,1.5834,1.6155,1.602,0.0,0.0,0.0,0.0,0.0,0.0,0.0,0.0,0.0,0.0,0.0,0.0,0.0,0.0,0.0,0.0,0.0,2.5077,2.4863,2.4703,2.4562,2.4636,2.4529,2.4302,2.4302,2.4182,2.3955,2.3661,2.3487,2.3407,2.31,2.2792,2.2512,2.2512,0.0,0.0,2.2111,2.2084,2.2071,2.2004,2.1804,2.1614,2.1614,2.1363,2.1109,2.1109,2.1109,2.1109,2.1109,2.1109,2.1109,2.1109,2.0949,2.0775,2.0775,2.0601,2.0401,2.0347,2.0374,2.0401,2.0347,2.0147,1.9907,1.9613,1.9546,1.9626,1.984,1.9893,1.996,2.0127,2.004,1.9867,1.9813,1.9412,1.9092,1.9025,1.8758,1.849,1.8209,1.7702,1.734,1.7206,1.6941,1.6767,1.6714,1.67,1.67,1.67,1.6767,1.6767,1.67,1.654,1.6482,1.6366,1.6126,1.5971,1.6019,1.6259,1.6366,2.0609,2.0909,2.1109,2.1109,2.0027,1.8843,1.8395,0.0,0.0,1.5459,1.5532,1.5734,1.5977,1.6123,1.6536,0.0,0.0,0.0,0.0,0.0,0.0,0.0,0.0,0.0,0.0,0.0,0.0,0.0,0.0,0.0,2.509,2.505,2.4917,2.4649,2.4636,2.4623,2.4596,2.4596,2.4583,2.4556,2.4262,2.3981,2.3714,2.342,2.3113,2.2819,2.2819,0.0,0.0,2.2485,2.2378,2.2352,2.2084,2.1804,2.1614,2.1614,2.1363,2.1109,2.1109,2.1109,2.1109,2.1109,2.1109,2.1109,2.1109,2.1096,2.1069,2.1069,2.1056,2.0962,2.0708,2.0828,2.0962,2.0695,2.0615,2.0521,2.0214,2.0147,2.016,2.0187,2.0127,2.0201,2.0227,2.0153,2.0107,1.984,1.9746,1.9626,1.9417,1.9065,1.8878,1.8851,1.8262,1.7742,1.7246,1.7179,1.7045,1.6727,1.67,1.67,1.67,1.7018,1.7032,1.6714,1.6991,1.6991,1.666,1.6633,1.662,1.662,1.666,1.666,2.0261,2.0748,2.1109,2.1109,1.9986,1.8795,1.8406,0.0,0.0,1.5705,1.5677,1.5758,1.6024,1.6104,1.6299,0.0,0.0,0.0,0.0,0.0,0.0,0.0,0.0,0.0,0.0,0.0,0.0,0.0,0.0,0.0,2.5611,2.5104,2.4836,2.4903,2.473,2.4636,2.4636,2.4636,2.4636,2.4549,2.4168,2.3968,2.4022,2.3541,2.326,2.314,2.314,0.0,0.0,2.2739,2.2686,2.2672,2.2552,2.2231,2.1817,2.1817,2.151,2.1109,2.1109,2.1109,2.1109,2.1109,2.1109,2.1109,2.1109,2.1109,2.1109,2.1109,2.1109,2.1082,2.0962,2.1029,2.1042,2.0748,2.0681,2.0601,2.0294,2.0167,2.0281,2.0468,2.0494,2.0561,2.0735,2.0615,2.0454,2.0347,2.0027,1.976,1.9639,1.9372,1.9118,1.8945,1.8557,1.821,1.7969,1.7796,1.7635,1.7463,1.7341,1.7235,1.7235,1.7341,1.7407,1.7235,1.7233,1.7139,1.7018,1.6794,1.67,1.6714,1.6887,1.7018,1.9775,2.0462,2.0989,2.0989,1.9888,1.8632,0.0,0.0,1.5572,1.5705,1.5792,1.5824,1.5945,1.6137,1.6279,0.0,0.0,0.0,0.0,0.0,0.0,0.0,0.0,0.0,0.0,0.0,0.0,0.0,0.0,0.0,2.6079,2.5251,2.4863,2.5077,2.4796,2.4636,2.4636,2.4636,2.4636,2.4636,2.4222,2.4088,2.4182,2.3688,2.3407,2.3327,2.3233,0.0,0.0,2.2928,2.2928,2.2928,2.2766,2.2472,2.2098,2.1924,2.159,2.1229,2.1136,2.1109,2.1109,2.1109,2.1109,2.1109,2.1109,2.1109,2.1109,2.1109,2.1109,2.1109,2.1109,2.1109,2.1056,2.0855,2.0802,2.0748,2.0535,2.0494,2.0561,2.0762,2.0802,2.0869,2.1069,2.0935,2.0775,2.0695,2.0321,2.0,1.9826,1.9626,1.9386,1.9092,1.8878,1.8677,1.8504,1.8303,1.8183,1.8183,1.7969,1.7809,1.7716,1.7716,1.7675,1.7582,1.7434,1.7326,1.7326,1.7074,1.6967,1.6967,1.7233,1.7326,1.9138,2.0023,2.0681,2.0681,1.9577,1.8304,0.0,0.0,1.5247,1.5371,1.572,1.5931,1.5665,1.6169,1.64,1.5879,0.0,0.0,0.0,0.0,0.0,0.0,0.0,0.0,0.0,0.0,0.0,0.0,0.0,0.0,2.6373,2.5558,2.5077,2.5077,2.4796,2.4636,2.4636,2.4636,2.4636,2.4636,2.4549,2.4476,2.4195,2.3901,2.3607,0.0,0.0,0.0,0.0,2.2928,2.2928,2.2901,2.2539,2.2418,2.2338,2.1764,2.1614,2.1574,2.1216,2.1109,2.1109,2.1109,2.1109,2.1109,2.1109,2.1109,2.1109,2.1109,2.1109,2.1109,2.1109,2.1109,2.1109,2.1109,2.1109,2.1109,2.1096,2.1096,2.1096,2.1109,2.1109,2.1109,2.1109,2.1109,2.1002,2.0722,2.0668,2.0454,1.988,1.98,1.9679,1.9399,1.9417,1.9118,1.8544,1.849,1.849,1.849,1.8477,1.8343,1.7995,1.7995,1.7903,1.7595,1.7582,1.7582,1.7582,1.7569,1.7569,1.7569,1.7569,1.7582,1.7633,1.8185,1.8613,1.8724,1.8263,1.7677,1.7211,0.0,1.576,1.5792,1.5671,1.5625,1.5948,1.6041,1.6089,1.6147,0.0,0.0,0.0,0.0,0.0,0.0,0.0,0.0,0.0,0.0,0.0,0.0,0.0,0.0,2.5798,2.5344,2.517,2.5371,2.489,2.4636,2.4636,2.4636,2.4636,2.4636,2.4436,2.4289,2.4195,2.3901,2.3607,0.0,0.0,0.0,0.0,2.2928,2.2739,2.2552,2.2458,2.2178,2.1804,2.1681,2.143,2.1229,2.1149,2.1109,2.1109,2.1109,2.1109,2.1109,2.1109,2.1109,2.1109,2.1109,2.1109,2.1109,2.1109,2.1109,2.1109,2.1109,2.1109,2.1109,2.1109,2.1109,2.1109,2.1109,2.1109,2.1109,2.1109,2.1109,2.1082,2.0989,2.0802,2.0615,2.0428,2.0054,1.976,1.9679,1.9492,1.935,1.9105,1.8905,1.8784,1.8784,1.8597,1.8357,1.8009,1.8237,1.821,1.7903,1.7849,1.7849,1.7849,1.7689,1.7582,1.7582,1.7582,1.7582,0.0,1.7424,1.7898,1.8016,1.7724,0.0,0.0,0.0,1.5936,1.5848,1.5782,1.5791,1.5978,1.6001,1.5994,1.6072,0.0,0.0,0.0,0.0,0.0,0.0,0.0,0.0,0.0,0.0,0.0,0.0,0.0,0.0,2.5678,2.5304,2.5157,2.5344,2.489,2.4636,2.4636,2.4636,2.4636,2.4636,2.4449,2.4302,2.4195,2.3901,2.3607,0.0,0.0,0.0,0.0,2.2928,2.2752,2.2579,2.2458,2.2205,2.1857,2.1695,2.1494,2.1256,2.1149,2.1109,2.1109,2.1109,2.1109,2.1109,2.1109,2.1109,2.1109,2.1109,2.1109,2.1109,2.1109,2.1109,2.1109,2.1109,2.1109,2.1109,2.1109,2.1109,2.1109,2.1109,2.1109,2.1109,2.1109,2.1109,2.1109,2.1109,2.0949,2.0802,2.0695,2.0361,2.004,1.9826,1.9639,1.9492,1.943,1.9199,1.9092,1.9092,1.8918,1.8691,1.8328,1.8557,1.8517,1.8169,1.821,1.8102,1.7995,1.7729,1.7582,1.7582,1.7702,1.7756,0.0,0.0,0.0,0.0,0.0,0.0,0.0,0.0,0.0,1.5591,1.6033,1.6384,1.5874,1.6013,1.6171,1.596,0.0,0.0,0.0,0.0,0.0,0.0,0.0,0.0,0.0,0.0,0.0,0.0,0.0,0.0,2.5929,2.5344,2.505,2.505,2.4783,2.4636,2.4636,2.4636,2.4636,2.4636,2.4636,2.4476,2.4168,2.3888,2.3594,0.0,0.0,0.0,0.0,2.2928,2.2914,2.2806,2.2525,2.2392,2.2298,2.175,2.1601,2.1547,2.1203,2.1109,2.1109,2.1109,2.1109,2.1109,2.1109,2.1109,2.1109,2.1109,2.1109,2.1109,2.1109,2.1109,2.1109,2.1109,2.1109,2.1109,2.1109,2.1109,2.1109,2.1109,2.1109,2.1109,2.1109,2.1109,2.1109,2.1109,2.1109,2.1015,2.0735,2.0695,2.0468,1.992,1.984,1.972,1.9511,1.9399,1.943,1.943,1.943,1.9239,1.8931,1.8945,1.8824,1.8531,1.8504,1.8343,1.7995,1.7729,1.7595,1.7622,1.7862,1.8009,1.5966,0.0,1.5973,1.6199,1.6444,0.0,0.0,0.0,0.0,0.0,0.0,0.0,0.0,0.0,0.0,0.0,0.0,0.0,0.0,0.0,0.0,0.0,0.0,0.0,0.0,0.0,0.0,0.0,0.0,2.5344,2.497,2.481,2.4743,2.4743,2.4676,2.4636,2.4636,2.4636,2.4636,2.4636,2.4636,2.4369,2.3875,2.3808,2.3474,0.0,0.0,0.0,2.2928,2.2928,2.2726,2.2512,2.2445,2.2151,2.1737,2.1668,2.1403,2.1203,2.1136,2.1109,2.1109,2.1109,2.1109,2.1109,2.1109,2.1109,2.1109,2.1109,2.1109,2.1109,2.1109,2.1109,2.1109,2.1109,2.1109,2.1109,2.1109,2.1109,2.1109,2.1109,2.1109,2.1109,2.1109,2.1109,2.1109,2.1109,2.1109,2.1082,2.1015,2.0815,2.0628,2.0481,2.0267,2.0107,2.004,1.9626,1.943,1.943,1.943,1.9239,1.8931,1.9145,1.9118,1.8824,1.8597,1.8343,1.7995,1.7729,1.7702,1.7889,1.7955,1.8115,1.5833,1.5836,1.5835,1.6125,1.6429,1.659,0.0,0.0,0.0,0.0,0.0,0.0,0.0,0.0,0.0,0.0,0.0,0.0,0.0,0.0,0.0,0.0,0.0,0.0,0.0,0.0,0.0,0.0,0.0,2.5037,2.485,2.4716,2.4636,2.4636,2.4502,2.4502,2.4636,2.4502,2.4502,2.4636,2.4502,2.4209,2.3768,2.3768,2.3434,0.0,0.0,0.0,2.2928,2.2928,2.2766,2.2619,2.2619,2.2271,2.175,2.175,2.1483,2.1109,2.1109,2.1109,2.1109,2.1109,2.1109,2.1109,2.1109,2.1109,2.1109,2.1109,2.1109,2.1109,2.1109,2.1109,2.1109,2.1109,2.1109,2.1109,2.1109,2.1109,2.1109,2.1109,2.1109,2.1109,2.1109,2.1109,2.1109,2.1109,2.1109,2.1109,2.1109,2.0975,2.0828,2.0695,2.0535,2.0374,2.018,1.9947,1.9706,1.9573,1.9559,1.9439,1.9132,1.9279,1.9292,1.9132,1.8838,1.8611,1.8395,1.8143,1.809,1.825,1.8328,1.8531,1.5877,1.617,1.6461,1.6829,1.6932,1.6888,1.6565,0.0,0.0,0.0,0.0,0.0,0.0,0.0,0.0,0.0,0.0,0.0,0.0,0.0,0.0,0.0,0.0,0.0,0.0,0.0,0.0,0.0,0.0,2.4796,2.4997,2.477,2.4609,2.4569,2.4329,2.4302,2.4502,2.4262,2.4262,2.4502,2.4249,2.3981,2.3701,2.3701,2.3394,2.2928,0.0,0.0,2.2928,2.2928,2.2928,2.2859,2.2806,2.2458,2.1977,2.1937,2.1577,2.1109,2.1109,2.1109,2.1109,2.1109,2.1109,2.1109,2.1109,2.1109,2.1109,2.1109,2.1109,2.1109,2.1109,2.1109,2.1109,2.1109,2.1109,2.1109,2.1109,2.1109,2.1109,2.1109,2.1109,2.1109,2.1109,2.1109,2.1109,2.1109,2.1109,2.1109,2.1109,2.1109,2.1015,2.0775,2.0735,2.0641,2.0388,2.0374,2.0241,1.9947,1.9853,1.9666,1.943,1.943,1.943,1.943,1.9078,1.8918,1.8918,1.8637,1.8517,1.8557,1.8811,1.8945,1.614,1.6357,1.6481,1.6797,1.7062,1.7179,1.6903,0.0,0.0,0.0,0.0,0.0,0.0,0.0,0.0,0.0,0.0,0.0,0.0,0.0,0.0,0.0,0.0,0.0,0.0,0.0,0.0,0.0,0.0,2.4917,2.4716,2.4663,2.4529,2.4275,2.4222,2.4102,2.3901,2.3861,2.3861,2.3901,2.3861,2.3688,2.3394,2.3394,2.3193,2.2928,0.0,2.2928,2.2928,2.2928,2.2928,2.2832,2.2579,2.2285,2.1951,2.1775,2.1403,2.1109,2.1109,2.1109,2.1109,2.1109,2.1109,2.1109,2.1109,2.1109,2.1109,2.1109,2.1109,2.1109,2.1109,2.1109,2.1109,2.1109,2.1109,2.1109,2.1109,2.1109,2.1109,2.1109,2.1109,2.1109,2.1109,2.1109,2.1109,2.1109,2.1109,2.1109,2.1109,2.1109,2.1096,2.1042,2.1042,2.1029,2.0975,2.0975,2.0855,2.0561,2.008,1.9666,1.943,1.943,1.943,1.943,1.9078,1.8918,1.8918,1.8637,1.8624,1.8865,1.8905,1.9052,1.6082,1.6429,1.6718,1.6892,1.7026,1.7032,0.0,0.0,0.0,0.0,0.0,0.0,0.0,0.0,0.0,0.0,0.0,0.0,0.0,0.0,0.0,0.0,0.0,0.0,0.0,0.0,0.0,0.0,0.0,0.0,2.4409,2.4249,2.4102,2.3968,2.3808,2.3661,2.3527,2.3367,2.3517,2.3768,2.3607,2.346,2.3327,2.3327,2.3153,2.2928,0.0,2.2928,2.2914,2.2686,2.2712,2.2819,2.2365,2.2111,2.1937,2.1483,2.1229,2.1109,2.1109,2.1109,2.1109,2.1109,2.1109,2.1109,2.1109,2.1216,2.1349,2.1349,2.1229,2.1109,2.1109,2.1109,2.1109,2.1109,2.1109,2.1109,2.1109,2.1109,2.1109,2.1109,2.1109,2.1109,2.1109,2.1109,2.1109,2.1109,2.1109,2.1109,2.1109,2.1109,2.1109,2.1109,2.1109,2.1109,2.1109,2.1109,2.0989,2.0695,2.0267,1.9907,1.9613,1.9599,1.9533,1.943,1.9239,1.9158,1.9158,1.9025,1.9038,1.9158,1.9158,1.9239,1.6037,1.6487,1.6941,1.6969,0.0,0.0,0.0,0.0,0.0,0.0,0.0,0.0,0.0,0.0,0.0,0.0,0.0,0.0,0.0,0.0,0.0,0.0,0.0,0.0,0.0,0.0,0.0,0.0,0.0,0.0,2.4102,2.3888,2.3741,2.3674,2.3447,2.3287,2.322,2.2979,2.3169,2.3554,2.3327,2.322,2.322,2.322,2.3086,2.2928,2.2928,2.2887,2.2752,2.2592,2.2579,2.2619,2.2231,2.2004,2.183,2.1376,2.1216,2.1216,2.1216,2.1256,2.1296,2.1149,2.1162,2.1203,2.1136,2.1269,2.1534,2.1601,2.139,2.1216,2.1216,2.1216,2.1216,2.1216,2.1216,2.1216,2.1216,2.1216,2.1189,2.1122,2.1109,2.1109,2.1109,2.1109,2.1109,2.1109,2.1109,2.1109,2.1109,2.1109,2.1109,2.1109,2.1109,2.1109,2.1109,2.1109,2.1015,2.0788,2.0441,2.0107,1.9813,1.98,1.9666,1.943,1.943,1.943,1.943,1.943,1.943,1.943,1.943,1.943,1.6287,1.6646,1.6936,1.6965,1.712,0.0,1.7688,1.8,0.0,1.8928,0.0,0.0,0.0,0.0,0.0,0.0,0.0,0.0,0.0,0.0,0.0,0.0,0.0,0.0,0.0,0.0,0.0,0.0,0.0,0.0,2.3821,2.3781,2.3647,2.3367,2.334,2.3193,2.2899,2.2941,2.2954,2.2926,2.2968,2.2968,2.2968,2.2968,2.2954,2.2928,2.2928,2.2712,2.2472,2.2726,2.2525,2.2071,2.2298,2.2058,2.1641,2.1601,2.1588,2.1588,2.1588,2.1762,2.183,2.1283,2.1296,2.1534,2.1189,2.1122,2.1203,2.1534,2.1601,2.1588,2.1588,2.1588,2.1588,2.1588,2.1588,2.1588,2.1588,2.1588,2.1443,2.1162,2.1109,2.1109,2.1109,2.1109,2.1109,2.1109,2.1109,2.1109,2.1109,2.1109,2.1109,2.1109,2.1109,2.1109,2.1109,2.1109,2.1096,2.1082,2.0548,2.0107,1.9813,1.98,1.9666,1.943,1.943,1.943,1.943,1.943,1.943,1.943,1.943,1.943,1.6124,1.6682,1.7175,1.7022,1.717,0.0,0.0,1.7908,1.8321,1.9152,1.9403,0.0,0.0,0.0,0.0,0.0,0.0,0.0,0.0,0.0,0.0,0.0,0.0,0.0,0.0,0.0,0.0,0.0,0.0,0.0,2.35,2.3313,2.3153,2.3046,2.3033,2.2979,2.2928,2.2928,2.2928,2.2928,2.2928,2.2928,2.2928,2.2928,2.2928,2.2928,2.2928,2.2806,2.2686,2.2619,2.2565,2.2525,2.2445,2.2071,2.1641,2.1815,2.1817,2.1817,2.1817,2.1897,2.1951,2.1724,2.1737,2.1764,2.147,2.1643,2.1911,2.1844,2.215,2.2351,2.1924,2.1817,2.1817,2.1817,2.1817,2.1817,2.1817,2.1817,2.1737,2.1443,2.139,2.1323,2.1149,2.1109,2.1109,2.1109,2.1109,2.1109,2.1109,2.1109,2.1109,2.1109,2.1109,2.1109,2.1109,2.1109,2.1109,2.1109,2.0895,2.0641,2.0361,2.0347,2.012,1.9639,1.9639,1.9546,1.943,1.943,1.943,1.943,1.943,1.943,1.5877,1.6507,1.7046,1.6832,0.0,0.0,1.7863,1.8153,1.8713,1.9858,2.0072,0.0,0.0,0.0,0.0,0.0,0.0,0.0,0.0,0.0,0.0,0.0,0.0,0.0,0.0,0.0,0.0,0.0,0.0,0.0,0.0,2.2846,2.2726,2.2726,2.2632,2.2632,2.2726,2.2632,2.2646,2.2646,2.2646,2.2753,2.2928,2.2766,2.2726,2.2712,2.2619,2.2646,2.2565,2.2365,2.2405,2.2552,2.2258,2.1951,2.1789,2.2017,2.2124,2.2124,2.2124,2.2191,2.2231,2.2044,2.2044,2.2071,2.1842,2.1964,2.2258,2.2151,2.2405,2.2659,2.2338,2.2191,2.2124,2.2124,2.2124,2.2124,2.2124,2.2124,2.2031,2.175,2.1681,2.1561,2.1283,2.1256,2.1256,2.1256,2.1256,2.1256,2.1256,2.1162,2.1109,2.1109,2.1109,2.1109,2.1109,2.1109,2.1109,2.1109,2.1109,2.0975,2.0681,2.0681,2.0441,1.9947,1.984,1.9746,1.9639,1.9452,1.9466,1.9639,1.9546,1.9546,1.5619,1.6079,1.6461,0.0,0.0,0.0,1.8755,1.903,1.9635,2.1249,0.0,0.0,0.0,0.0,0.0,0.0,0.0,0.0,0.0,0.0,0.0,0.0,0.0,0.0,0.0,0.0,0.0,0.0,0.0,0.0,0.0,2.2418,2.2418,2.2418,2.2138,2.2124,2.2405,2.2124,2.1991,2.1991,2.1991,2.2285,2.2914,2.2552,2.2418,2.2392,2.2111,2.1991,2.1991,2.1991,2.1991,2.1951,2.1735,2.1802,2.2017,2.2311,2.2418,2.2418,2.2418,2.2619,2.2766,2.2178,2.2191,2.2365,2.2084,2.1991,2.2058,2.2338,2.2418,2.2485,2.2779,2.2645,2.2418,2.2418,2.2418,2.2418,2.2418,2.2418,2.2338,2.2044,2.1764,2.1628,2.1614,2.1614,2.1614,2.1614,2.1614,2.1614,2.1614,2.1296,2.1109,2.1109,2.1109,2.1109,2.1109,2.1109,2.1109,2.1109,2.1109,2.0975,2.0695,2.0681,2.0535,2.018,1.996,1.9947,2.0167,1.9653,1.9666,2.0167,1.9933,1.996,1.6257,1.746,0.0,0.0,0.0,0.0,0.0,1.9478,0.0,0.0,0.0,0.0,0.0,0.0,0.0,0.0,0.0,0.0,0.0,0.0,0.0,0.0,0.0,0.0,0.0,0.0,0.0,0.0,0.0,0.0,0.0,2.2218,2.2111,2.2111,2.2031,2.2031,2.2111,2.2031,2.1991,2.1991,2.1991,2.2071,2.2245,2.2151,2.2111,2.2124,2.2231,2.2178,2.1991,2.1991,2.1871,2.1762,2.1817,2.1911,2.2017,2.2311,2.2552,2.2726,2.2726,2.2792,2.2901,2.2659,2.2659,2.2672,2.2378,2.2432,2.2579,2.2458,2.2565,2.2752,2.2846,2.2792,2.2726,2.2726,2.2726,2.2726,2.2726,2.2726,2.2645,2.2352,2.2218,2.2098,2.1897,2.1857,2.179,2.1655,2.1614,2.1483,2.1269,2.1162,2.1109,2.1109,2.1109,2.1109,2.1109,2.1109,2.1109,2.1109,2.1109,2.1069,2.0989,2.0975,2.0842,2.0548,2.0454,2.0361,2.0167,2.0054,2.0067,2.0227,2.0147,2.0147,1.7016,0.0,0.0,0.0,0.0,0.0,0.0,0.0,0.0,0.0,0.0,0.0,0.0,0.0,0.0,0.0,0.0,0.0,0.0,0.0,0.0,0.0,0.0,0.0,0.0,0.0,0.0,0.0,0.0,0.0,0.0,2.1911,2.1817,2.1817,2.1697,2.1697,2.1817,2.1697,2.1643,2.1643,2.1643,2.1643,2.1643,2.1764,2.1817,2.1817,2.2004,2.1911,2.1643,2.1764,2.1643,2.1403,2.1697,2.1817,2.1844,2.2138,2.2365,2.2525,2.2645,2.2686,2.2712,2.2887,2.2928,2.2832,2.2645,2.2726,2.2887,2.2645,2.2726,2.2928,2.2928,2.2928,2.2928,2.2928,2.2928,2.2928,2.2928,2.2928,2.2806,2.2632,2.2498,2.2365,2.2191,2.2164,2.2058,2.1764,2.1695,2.1507,2.1149,2.1109,2.1109,2.1109,2.1109,2.1109,2.1109,2.1109,2.1109,2.1109,2.1109,2.1109,2.1109,2.1109,2.1029,2.0855,2.0735,2.0641,2.0575,2.0347,2.0286,2.0575,2.0468,2.0468,1.7823,0.0,0.0,0.0,0.0,0.0,0.0,0.0,0.0,0.0,0.0,0.0,0.0,0.0,0.0,0.0,0.0,0.0,0.0,0.0,0.0,0.0,0.0,0.0,0.0,0.0,0.0,0.0,0.0,0.0,0.0,2.1588,2.1574,2.1574,2.1256,2.1243,2.1574,2.1243,2.1109,2.1109,2.1109,2.1109,2.1122,2.139,2.1588,2.1614,2.1588,2.1376,2.1162,2.1416,2.1349,2.1136,2.1403,2.1601,2.1655,2.1844,2.1964,2.2017,2.2285,2.2392,2.2458,2.2739,2.2914,2.2928,2.2928,2.2928,2.2928,2.2928,2.2928,2.2928,2.2928,2.2928,2.2928,2.2928,2.2928,2.2928,2.2928,2.2928,2.2928,2.2928,2.2645,2.2458,2.2458,2.2458,2.2352,2.2031,2.1775,2.1416,2.1149,2.1109,2.1109,2.1109,2.1109,2.1109,2.1109,2.1109,2.1109,2.1109,2.1109,2.1109,2.1109,2.1109,2.1109,2.1109,2.0855,2.0842,2.1109,2.0575,2.0588,2.1096,2.0842,2.0855,0.0,1.9453,0.0,0.0,0.0,0.0,0.0,0.0,0.0,0.0,0.0,0.0,0.0,0.0,0.0,0.0,0.0,0.0,0.0,0.0,0.0,0.0,0.0,0.0,0.0,0.0,0.0,0.0,0.0,0.0,2.1614,2.1336,2.1203,2.1203,2.1149,2.1136,2.1203,2.1149,2.1109,0.0,2.1109,2.1109,2.1109,2.1176,2.1336,2.1601,2.1309,2.1296,2.1507,2.1269,2.1162,2.1122,2.1176,2.1349,2.1628,2.1681,2.179,2.1991,2.2058,2.2231,2.2432,2.2485,2.2672,2.2928,2.2928,2.2928,2.2928,2.2928,2.2928,2.2928,2.2928,2.2928,2.2928,2.2928,2.2928,2.2928,2.2928,2.2928,2.2928,2.2928,2.2806,2.2766,2.2766,2.2766,2.2592,2.2071,2.1537,2.1189,2.1122,2.1109,2.1109,2.1109,2.1109,2.1109,2.1109,2.1109,2.1109,2.1109,2.1109,2.1109,2.1109,2.1109,2.1109,2.1109,2.1042,2.1042,2.1109,2.0975,2.0989,2.1109,2.1042,2.1042,0.0,0.0,0.0,0.0,0.0,0.0,0.0,0.0,0.0,0.0,0.0,0.0,0.0,0.0,0.0,0.0,0.0,0.0,0.0,0.0,0.0,0.0,0.0,0.0,0.0,0.0,0.0,0.0,0.0,2.1336,2.1336,2.1189,2.1109,2.1109,2.1109,2.1109,2.1109,2.1109,2.1109,2.1109,2.1109,2.1109,2.1109,2.1109,2.1189,2.1336,2.1176,2.1203,2.1323,2.1176,2.1109,2.1109,2.1109,2.1203,2.1336,2.1336,2.143,2.159,2.1724,2.1884,2.2044,2.2325,2.2525,2.2672,2.2819,2.2928,2.2928,2.2928,2.2928,2.2928,2.2928,2.2928,2.2928,2.2928,2.2928,2.2887,2.2686,2.2766,2.2819,2.2672,2.2766,2.2819,2.2672,2.2418,2.2191,2.1896,2.139,2.1109,2.1109,2.1109,2.1109,2.1109,2.1109,2.1109,2.1109,2.1109,2.1109,2.1109,2.1109,2.1109,2.1109,2.1109,2.1109,2.1109,2.1109,2.1109,2.1109,2.1109,2.1109,2.1109,2.1109,2.1109,0.0,0.0,0.0,0.0,0.0,0.0,0.0,0.0,0.0,0.0,0.0,0.0,0.0,0.0,0.0,0.0,0.0,0.0,0.0,0.0,0.0,0.0,0.0,0.0,0.0,0.0,0.0,0.0,0.0,2.1109,2.1109,2.1109,2.1235,2.1538,2.1235,2.1235,2.1538,2.1235,2.1109,2.1109,2.1109,2.1109,2.1109,2.1109,2.1109,2.1109,2.1109,2.1109,2.1109,2.1109,2.1109,2.1109,2.1109,2.1109,2.1109,2.1109,2.1109,2.1149,2.139,2.1574,2.1708,2.2164,2.2378,2.2472,2.2779,2.2928,2.2928,2.2928,2.2928,2.2928,2.2928,2.2928,2.2928,2.2928,2.2928,2.2779,2.2485,2.2645,2.2779,2.2472,2.2659,2.2779,2.2539,2.2017,2.1695,2.1695,2.1336,2.1109,2.1109,2.1149,2.1189,2.1189,2.1229,2.1256,2.1256,2.1216,2.1189,2.1189,2.1136,2.1109,2.1109,2.1109,2.1109,2.1109,2.1109,2.1109,2.1109,2.1109,2.1109,2.1109,2.1109,2.1109,0.0,0.0,0.0,0.0,0.0,0.0,0.0,0.0,0.0,0.0,0.0,0.0,0.0,0.0,0.0,0.0,0.0,0.0,0.0,0.0,0.0,0.0,0.0,0.0,0.0,0.0,0.0,0.0,2.1109,2.1109,2.1109,2.1109,2.179,2.3201,2.1853,2.179,2.3263,2.1853,2.1109,2.1109,2.1109,2.1109,2.1109,2.1109,2.1109,2.1109,2.1109,2.1109,2.1109,2.1109,2.1109,2.1109,2.1109,2.1109,2.1109,2.1109,2.1109,2.1122,2.1149,2.1336,2.1668,2.1937,2.2218,2.2472,2.2779,2.2928,2.2928,2.2928,2.2928,2.2928,2.2928,2.2928,2.2928,2.2928,2.2928,2.2779,2.2485,2.2645,2.2779,2.2472,2.2659,2.2914,2.2806,2.2311,2.1924,2.1924,2.1456,2.1109,2.1109,2.1336,2.1561,2.1561,2.1724,2.1871,2.1871,2.1643,2.1561,2.1561,2.1256,2.1109,2.1109,2.1109,2.1109,2.1109,2.1109,2.1109,2.1109,2.1109,2.1109,2.1109,2.1109,2.1109,0.0,0.0,0.0,0.0,0.0,0.0,0.0,0.0,0.0,0.0,0.0,0.0,0.0,0.0,0.0,0.0,0.0,0.0,0.0,0.0,0.0,0.0,0.0,0.0,0.0,0.0,0.0,0.0,2.0615,2.0615,2.0615,2.0615,2.141,2.329,2.1714,2.1735,2.3574,2.1915,2.1109,2.1109,2.1109,2.1109,2.1109,2.1109,2.1109,2.1109,2.1109,2.1109,2.1109,2.1109,2.1109,2.1109,2.1109,2.1109,2.1109,2.1109,2.1109,2.1109,2.1109,2.1189,2.1349,2.1643,2.1937,2.2231,2.2525,2.2726,2.2928,2.2928,2.2928,2.2928,2.2928,2.2928,2.2928,2.2928,2.2928,2.2779,2.2485,2.2645,2.2887,2.2699,2.2632,2.2619,2.2619,2.2271,2.1991,2.1991,2.1764,2.1603,2.1603,2.171,2.179,2.179,2.1911,2.1991,2.1991,2.1871,2.1789,2.1628,2.143,2.1283,2.1122,2.1109,2.1109,2.1109,2.1109,2.1109,2.1109,2.1109,2.1109,2.1109,2.1109,2.1109,0.0,0.0,0.0,0.0,0.0,0.0,0.0,0.0,0.0,0.0,0.0,0.0,0.0,0.0,0.0,0.0,0.0,0.0,0.0,0.0,0.0,0.0,0.0,0.0,0.0,0.0,0.0,0.0,2.0167,2.0167,2.0167,2.0591,2.164,2.3473,2.2004,2.2058,2.3917,2.1998,2.1002,2.1002,2.1069,2.1109,2.1109,2.1109,2.1109,2.1109,2.1109,2.1109,2.1109,2.1109,2.1109,2.1109,2.1109,2.1109,2.1109,2.1109,2.1109,2.1109,2.1109,2.1109,2.1162,2.1521,2.175,2.2044,2.2338,2.2619,2.2928,2.2928,2.2928,2.2928,2.2928,2.2928,2.2928,2.2928,2.2928,2.2806,2.2579,2.2645,2.2752,2.2752,2.2632,2.2512,2.2432,2.2231,2.2098,2.2098,2.2031,2.1991,2.1991,2.2044,2.2098,2.2098,2.2164,2.2205,2.2205,2.2138,2.2004,2.179,2.1695,2.1521,2.1229,2.1149,2.1109,2.1109,2.1109,2.1109,2.1109,2.1109,2.1109,2.1109,2.1109,2.1109,0.0,0.0,0.0,0.0,0.0,0.0,0.0,0.0,0.0,0.0,0.0,0.0,0.0,0.0,0.0,0.0,0.0,0.0,0.0,0.0,0.0,0.0,0.0,0.0,0.0,0.0,0.0,0.0,2.0167,2.0167,2.0167,2.1601,2.3121,2.4753,2.3255,2.3211,2.4844,2.2097,2.0695,2.0695,2.0975,2.1109,2.1109,2.1109,2.1109,2.1109,2.1109,2.1109,2.1109,2.1109,2.1109,2.1109,2.1109,2.1109,2.1109,2.1109,2.1109,2.1109,2.1109,2.1109,2.1162,2.1521,2.175,2.2044,2.2338,2.2619,2.2928,2.2928,2.2928,2.2928,2.2928,2.2928,2.2928,2.2928,2.2928,2.2928,2.2914,2.2632,2.2445,2.2445,2.2659,2.2752,2.2472,2.2405,2.2392,2.2392,2.2164,2.1991,2.1991,2.2231,2.2392,2.2392,2.2645,2.2819,2.2819,2.2565,2.2392,2.2378,2.1857,2.1614,2.1601,2.1256,2.1109,2.1109,2.1109,2.1109,2.1109,2.1109,2.1109,2.1109,2.1109,2.1109,0.0,0.0,0.0,0.0,0.0,0.0,0.0,0.0,0.0,0.0,0.0,0.0,0.0,0.0,0.0,0.0,0.0,0.0,0.0,0.0,0.0,0.0,0.0,0.0,0.0,0.0,0.0,0.0,0.0,1.9679,1.9679,2.1103,2.2786,2.4606,2.3989,2.3594,2.3343,2.1399,2.0388,2.0401,2.0695,2.0828,2.0842,2.1029,2.1109,2.1109,2.1109,2.1109,2.1109,2.1109,2.1109,2.1109,2.1109,2.1109,2.1109,2.1109,2.1109,2.1109,2.1109,2.1109,2.1122,2.1229,2.159,2.2004,2.2111,2.2472,2.2928,2.2928,2.2928,2.2928,2.2928,2.2928,2.2928,2.2928,2.2928,2.2928,2.2928,2.2779,2.2699,2.2699,2.2792,2.2832,2.2726,2.2699,2.2699,2.2699,2.2619,2.2552,2.2552,2.2632,2.2699,2.2699,2.2806,2.2928,2.2928,2.2766,2.2619,2.2432,2.2044,2.183,2.183,2.155,2.1483,2.167,2.1483,2.1296,2.1109,2.1109,2.1109,2.1109,2.1109,2.1109,0.0,0.0,0.0,0.0,0.0,0.0,0.0,0.0,0.0,0.0,0.0,0.0,0.0,0.0,0.0,0.0,0.0,0.0,0.0,0.0,0.0,0.0,0.0,0.0,0.0,0.0,0.0,0.0,0.0,0.0,1.943,2.1259,2.3151,2.4974,2.4467,2.3518,2.22,2.0791,2.0094,2.0094,2.0388,2.0535,2.0535,2.0828,2.0962,2.0962,2.1069,2.1109,2.1109,2.1109,2.1109,2.1109,2.1109,2.1109,2.1109,2.1109,2.1109,2.1109,2.1109,2.1109,2.1122,2.1229,2.159,2.2004,2.2098,2.2472,2.2928,2.2928,2.2928,2.2928,2.2928,2.2928,2.2928,2.2928,2.2928,2.2928,2.2928,2.2928,2.2901,2.2726,2.2792,2.2832,2.2726,2.2792,2.2928,2.2928,2.2928,2.2928,2.2928,2.2928,2.2928,2.2928,2.2928,2.2928,2.2928,2.2928,2.2779,2.2579,2.2298,2.2124,2.2124,2.1857,2.179,2.1977,2.1804,2.155,2.1256,2.1719,2.1915,2.1915,2.1915,2.1664,0.0,0.0,0.0,0.0,0.0,0.0,0.0,0.0,0.0,0.0,0.0,0.0,0.0,0.0,0.0,0.0,0.0,0.0,0.0,0.0,0.0,0.0,0.0,0.0,0.0,0.0,0.0,0.0,1.9185,1.9417,1.9417,2.2153,2.4488,2.6045,2.4544,2.3039,2.1643,2.0375,1.9786,1.98,2.0094,2.0167,2.018,2.0535,2.0681,2.0695,2.0975,2.1096,2.1109,2.1109,2.1109,2.1109,2.1109,2.1109,2.1109,2.1109,2.1109,2.1109,2.1109,2.1109,2.1162,2.1507,2.1737,2.2044,2.2325,2.2619,2.2928,2.2928,2.2928,2.2928,2.2928,2.2928,2.2928,2.2928,2.2941,2.2941,2.2928,2.2941,2.2792,2.2485,2.2672,2.2766,2.2485,2.2672,2.2928,2.2928,2.2928,2.2928,2.2928,2.2928,2.2928,2.2928,2.2928,2.2928,2.2928,2.2928,2.2928,2.2928,2.2579,2.2418,2.2432,2.2151,2.2004,2.2017,2.2004,2.1857,2.1628,2.2952,2.3589,2.3574,2.3589,2.2731,1.95,0.0,0.0,0.0,0.0,0.0,0.0,0.0,0.0,0.0,0.0,0.0,0.0,0.0,0.0,0.0,0.0,0.0,0.0,0.0,0.0,0.0,0.0,0.0,0.0,0.0,0.0,0.0,1.8878,1.9052,1.9052,2.107,2.3431,2.6045,2.3599,2.2024,2.1586,2.0224,1.9586,1.98,2.0094,2.0167,2.018,2.0535,2.0681,2.0681,2.0762,2.0909,2.1109,2.1109,2.1109,2.1109,2.1109,2.1109,2.1109,2.1109,2.1109,2.1109,2.1109,2.1109,2.1122,2.1203,2.1577,2.2004,2.2084,2.2458,2.2928,2.2928,2.2928,2.2928,2.2928,2.2928,2.2928,2.2928,2.3033,2.314,2.2913,2.3046,2.3113,2.2792,2.2806,2.2832,2.2752,2.2806,2.2928,2.2928,2.2928,2.2928,2.2928,2.2928,2.2928,2.2928,2.2928,2.2928,2.2928,2.2928,2.2928,2.2928,2.2579,2.2512,2.2726,2.2458,2.2405,2.2686,2.2405,2.2151,2.1857,2.327,2.3798,2.3574,2.3813,2.3047,0.0,0.0,0.0,0.0,0.0,0.0,1.6529,1.6178,0.0,0.0,0.0,0.0,0.0,0.0,0.0,0.0,0.0,0.0,0.0,0.0,0.0,0.0,0.0,0.0,0.0,1.8183,1.832,1.8846,1.8767,1.9066,1.978,2.0837,2.256,2.5041,2.2814,2.1586,2.1586,2.0141,1.9452,1.9626,1.9907,2.0054,2.0067,2.0361,2.0494,2.0494,2.0615,2.0775,2.0935,2.1056,2.1109,2.1109,2.1109,2.1109,2.1109,2.1109,2.1109,2.1109,2.1109,2.1109,2.1136,2.1256,2.1603,2.2004,2.2124,2.2498,2.2928,2.2928,2.2928,2.2928,2.2928,2.2928,2.2928,2.2928,2.3006,2.3086,2.2899,2.3006,2.3086,2.2899,2.2928,2.2928,2.2928,2.2928,2.2928,2.2928,2.2928,2.2928,2.2928,2.2928,2.2928,2.2928,2.2928,2.2928,2.2928,2.2928,2.2928,2.2928,2.2699,2.2686,2.2928,2.2699,2.2686,2.2928,2.2699,2.2781,2.3196,2.3846,2.4093,2.3914,2.4108,2.3242,0.0,0.0,0.0,0.0,0.0,0.0,1.6861,1.6476,1.6118,0.0,0.0,0.0,0.0,0.0,0.0,0.0,0.0,0.0,0.0,0.0,0.0,0.0,0.0,0.0,1.8213,1.7835,1.7959,1.9066,1.8739,1.9209,2.0962,2.0966,2.1729,2.3478,2.2122,2.1358,2.1358,2.004,1.9457,1.9466,1.972,1.9867,1.9907,2.016,2.0267,2.0254,2.0508,2.0641,2.0695,2.0949,2.1082,2.1109,2.1109,2.1109,2.1109,2.1109,2.1109,2.1109,2.1109,2.1109,2.1149,2.148,2.1697,2.1991,2.2285,2.2579,2.2819,2.2914,2.2928,2.2928,2.2928,2.2928,2.2928,2.2928,2.2886,2.2968,2.2941,2.2886,2.2968,2.2941,2.2928,2.2928,2.2928,2.2928,2.2928,2.2928,2.2928,2.2928,2.2928,2.2928,2.2928,2.2928,2.2928,2.2928,2.2928,2.2928,2.2928,2.2928,2.2928,2.2928,2.2928,2.2928,2.2928,2.2928,2.2832,2.3432,2.4701,2.4464,2.4431,2.4461,2.4461,2.3487,0.0,0.0,0.0,0.0,0.0,0.0,1.8117,1.7215,1.6501,0.0,0.0,0.0,0.0,0.0,0.0,0.0,0.0,0.0,0.0,0.0,0.0,0.0,0.0,0.0,1.705,1.6958,1.7069,1.7568,1.7902,1.8891,2.0689,1.9877,2.0047,2.1572,2.0459,1.9809,1.9809,1.9533,1.9599,2.0067,2.012,2.0281,2.0508,2.0561,2.0454,2.018,2.0294,2.0454,2.0681,2.0735,2.0895,2.1109,2.1109,2.1109,2.1109,2.1109,2.1109,2.1109,2.1109,2.1109,2.1122,2.1176,2.1403,2.1762,2.1977,2.2271,2.2552,2.2792,2.2928,2.2928,2.2928,2.2928,2.2928,2.2928,2.306,2.3166,2.2913,2.306,2.3166,2.2913,2.2928,2.2928,2.2928,2.2928,2.2928,2.2928,2.2928,2.2928,2.2928,2.2928,2.2928,2.2928,2.2928,2.2928,2.2928,2.2928,2.2928,2.2928,2.2928,2.2928,2.2928,2.2928,2.2928,2.2928,2.2632,2.2795,2.3311,2.4057,2.455,2.4803,2.4803,2.3865,0.0,0.0,0.0,2.1374,0.0,0.0,0.0,1.8025,1.7244,0.0,0.0,0.0,0.0,0.0,0.0,0.0,0.0,0.0,0.0,0.0,0.0,0.0,0.0,0.0,1.7971,1.7114,1.6673,1.7166,1.7435,1.8102,1.9283,1.8919,1.9095,2.0005,1.9601,1.943,1.943,1.943,1.9506,1.98,1.9947,2.0094,2.0241,2.0241,2.016,2.0027,2.0113,2.0321,2.0481,2.0775,2.0975,2.1109,2.1109,2.1109,2.1109,2.1109,2.1109,2.1109,2.1109,2.1109,2.1109,2.1109,2.1416,2.179,2.1937,2.2285,2.2672,2.2819,2.2928,2.2928,2.2928,2.2928,2.2928,2.2928,2.2979,2.3046,2.2968,2.2979,2.3046,2.2954,2.2928,2.2928,2.2928,2.2928,2.2928,2.2928,2.2928,2.2928,2.2928,2.2928,2.2928,2.2928,2.2928,2.2928,2.2928,2.2928,2.2928,2.2928,2.2928,2.2928,2.2928,2.2928,2.2928,2.2928,2.2712,2.2712,2.2928,2.3414,2.3746,2.3902,2.3902,2.3347,0.0,0.0,0.0,0.0,0.0,2.0559,0.0,0.0,0.0,0.0,0.0,0.0,0.0,0.0,0.0,0.0,0.0,0.0,0.0,0.0,0.0,0.0,0.0,0.0,0.0,1.7366,1.6599,1.7072,1.7217,1.7434,1.7876,1.8237,1.8544,1.8824,1.9132,1.9305,1.943,1.943,1.9457,1.9452,1.9693,1.9826,1.988,1.9947,1.9907,1.9813,2.016,2.0281,2.0207,2.0802,2.1056,2.1109,2.1109,2.1109,2.1109,2.1109,2.1109,2.1109,2.1109,2.1109,2.1109,2.1109,2.151,2.1991,2.2044,2.2445,2.2928,2.2928,2.2928,2.2928,2.2928,2.2928,2.2928,2.2928,2.2928,2.2928,2.2928,2.2928,2.2928,2.2928,2.2928,2.2928,2.2928,2.2928,2.2928,2.2928,2.2928,2.2928,2.2928,2.2928,2.2928,2.2928,2.2928,2.2928,2.2928,2.2928,2.2928,2.2928,2.2928,2.2928,2.2928,2.2928,2.2928,2.2928,2.2928,2.2928,2.2928,2.2928,2.2928,2.2928,2.2928,2.2726,0.0,0.0,0.0,0.0,2.3682,0.0,0.0,0.0,1.9051,0.0,0.0,0.0,0.0,0.0,0.0,0.0,0.0,0.0,0.0,0.0,0.0,0.0,0.0,0.0,0.0,1.6642,1.6665,1.6727,1.7211,1.7495,1.7622,1.7929,1.8237,1.8531,1.8824,1.9105,1.9417,1.943,1.9492,1.9746,1.9786,1.9933,2.0127,2.0454,2.0294,1.9826,2.0388,2.0481,2.0254,2.0588,2.0882,2.1109,2.1109,2.1109,2.1109,2.1109,2.1109,2.1109,2.1109,2.1109,2.1109,2.1109,2.151,2.2031,2.2298,2.2605,2.2928,2.2928,2.2928,2.2928,2.2928,2.2928,2.2928,2.2928,2.2928,2.2928,2.2928,2.2928,2.2928,2.2928,2.2928,2.2928,2.2928,2.2928,2.2928,2.2928,2.2928,2.2928,2.2928,2.2928,2.2928,2.2928,2.2928,2.2928,2.2928,2.2928,2.2928,2.2928,2.2928,2.2928,2.2928,2.2928,2.2928,2.2928,2.2928,2.2928,2.2928,2.2928,2.2928,2.2928,2.2928,2.2914,0.0,0.0,0.0,0.0,0.0,0.0,2.3019,0.0,2.061,0.0,0.0,0.0,0.0,0.0,0.0,0.0,0.0,0.0,0.0,0.0,0.0,0.0,0.0,0.0,0.0,0.0,0.0,0.0,1.6827,1.7123,1.7367,1.7782,1.8049,1.8223,1.8677,1.8985,1.9105,1.9279,1.9484,1.9604,2.0452,2.0901,2.1044,2.1299,2.1299,2.1085,2.0828,2.0601,2.0508,2.0802,2.1002,2.1109,2.1109,2.1109,2.1109,2.1109,2.1109,2.1109,2.1109,2.1109,2.1162,2.151,2.179,2.2071,2.2539,2.2766,2.2928,2.2928,2.2928,2.2928,2.2928,2.2928,2.2928,2.2928,2.3006,2.3126,2.3126,2.3126,2.318,2.3354,2.31,2.3048,2.3327,2.3169,2.2928,2.2928,2.2928,2.2928,2.2928,2.2928,2.2928,2.2928,2.2928,2.2928,2.2928,2.2928,2.2928,2.2928,2.3033,2.3207,2.338,2.322,2.3126,2.3126,2.2953,2.2928,2.2928,2.2928,2.2928,2.2928,2.2928,2.2928,2.5038,0.0,0.0,0.0,0.0,0.0,0.0,0.0,0.0,0.0,0.0,0.0,0.0,0.0,0.0,0.0,0.0,0.0,0.0,0.0,0.0,0.0,0.0,0.0,0.0,0.0,0.0,1.6454,1.6572,1.6854,1.7179,1.7569,1.7822,1.7995,1.8488,1.8838,1.8918,1.9601,1.9982,2.004,2.1487,2.2194,2.2209,2.2135,2.2095,2.1934,2.1155,2.0748,2.0695,2.0989,2.1109,2.1109,2.1109,2.1109,2.1109,2.1109,2.1109,2.1109,2.1109,2.1425,2.1823,2.1921,2.2306,2.2679,2.2889,2.2928,2.2928,2.2928,2.2928,2.2928,2.2928,2.2928,2.2928,2.2928,2.31,2.3327,2.3327,2.3394,2.3514,2.3728,2.342,2.3316,2.3688,2.334,2.302,2.31,2.3046,2.2993,2.2993,2.2913,2.2928,2.2928,2.2928,2.2928,2.2928,2.2939,2.302,2.31,2.3327,2.3541,2.3768,2.3567,2.3447,2.3447,2.3153,2.2993,2.2993,2.2968,2.2928,2.2928,2.2928,2.2928,0.0,0.0,0.0,2.5791,0.0,0.0,0.0,0.0,2.3217,0.0,0.0,0.0,0.0,0.0,0.0,0.0,0.0,0.0,0.0,0.0,0.0,0.0,0.0,0.0,0.0,0.0,0.0,1.6697,1.669,1.6851,1.7166,1.7219,1.7448,1.7969,1.8343,1.8637,1.8918,2.0643,2.1529,2.1529,2.3039,2.371,2.3687,2.2859,2.2334,2.1949,2.1376,2.0935,2.0695,2.0989,2.1109,2.1109,2.1109,2.1109,2.1109,2.1109,2.1109,2.1109,2.1109,2.2153,2.3366,2.2298,2.3079,2.4145,2.3215,2.2928,2.2928,2.2928,2.2928,2.2928,2.2928,2.2928,2.2928,2.2928,2.31,2.3327,2.3327,2.3554,2.3754,2.3768,2.3754,2.3754,2.3768,2.3514,2.3407,2.3701,2.35,2.3313,2.3313,2.3046,2.2928,2.2928,2.2928,2.2928,2.2928,2.314,2.3434,2.3728,2.3754,2.3754,2.3768,2.3768,2.3754,2.3754,2.346,2.3313,2.3313,2.3006,2.2928,2.2928,2.2928,2.2928,0.0,0.0,2.707,2.6348,0.0,0.0,0.0,0.0,0.0,0.0,0.0,0.0,0.0,0.0,0.0,0.0,0.0,0.0,0.0,0.0,0.0,0.0,0.0,0.0,0.0,0.0,0.0,1.6375,1.6408,1.6545,1.6834,1.7099,1.7422,1.7969,1.833,1.8637,1.8918,1.9715,2.0644,2.1643,2.3095,2.4457,2.5737,2.5617,2.5676,2.5695,2.3626,2.3313,2.4055,2.1985,2.1727,2.2654,2.1538,2.1109,2.1109,2.1109,2.1109,2.1109,2.1109,2.1475,2.1949,2.1986,2.2372,2.2797,2.2889,2.2928,2.2928,2.2928,2.2928,2.2928,2.2928,2.302,2.3166,2.3166,2.3554,2.3915,2.3915,2.3981,2.4115,2.4302,2.4035,2.3888,2.4275,2.4102,2.3875,2.3781,2.3514,2.3327,2.3327,2.306,2.2928,2.2928,2.2928,2.2939,2.3153,2.3447,2.3741,2.4035,2.4062,2.4142,2.4342,2.4155,2.4062,2.4062,2.3768,2.3621,2.3621,2.3313,2.3166,2.3166,2.2953,2.2928,2.6602,2.7129,0.0,2.6602,2.6699,0.0,2.5888,0.0,0.0,0.0,0.0,0.0,0.0,0.0,0.0,0.0,0.0,0.0,0.0,0.0,0.0,0.0,0.0,0.0,0.0,0.0,1.6414,1.6224,1.6259,1.6384,0.0,0.0,1.7315,1.7969,1.833,1.8637,1.8918,2.0273,2.143,2.242,2.4433,2.6152,2.7456,2.7244,2.7337,2.7674,2.5412,2.5024,2.5802,2.3124,2.2654,2.345,2.1727,2.1109,2.1109,2.1109,2.1109,2.1109,2.1109,2.1543,2.2088,2.2013,2.244,2.3015,2.2916,2.2928,2.2914,2.2739,2.2779,2.2832,2.2726,2.302,2.3327,2.3327,2.3781,2.4209,2.4209,2.4289,2.4409,2.4596,2.4329,2.4195,2.4569,2.4476,2.4289,2.4102,2.3834,2.3634,2.3634,2.3273,2.3033,2.3033,2.3033,2.3193,2.3607,2.3821,2.4048,2.4342,2.4356,2.4436,2.4549,2.4449,2.4462,2.4663,2.4182,2.4035,2.4235,2.3621,2.3327,2.3313,2.3006,2.2928]}]]